[[{"header":{"parameterUnit":"m.s-1","parameterCategory":1,"la1":30.6,"la2":29.2853,"lo1":-89.7004,"lo2":-87.6739,"dy":0.0162,"dx":0.0183,"nx":112,"ny":82,"refTime":"2026-03-29T00:00:00:Z","depth":0,"parameterNumber":2,"parameterNumberName":"U-component_of_WINDS"},"data":[0.0,0.0,0.0,0.0,0.0,0.0,0.0,0.0,0.0,0.0,0.0,0.0,0.0,0.0,0.0,0.0,0.0,0.0,0.0,0.0,0.0,0.0,0.0,0.0,0.0,0.0,0.0,0.0,0.0,0.0,0.0,0.0,0.0,0.0,0.0,0.0,0.0,0.0,0.0,0.0,0.0,0.0,0.0,0.0,0.0,0.0,0.0,0.0,0.0,0.0,0.0,0.0,0.0,0.0,0.0,0.0,0.0,0.0,0.0,0.0,0.0,0.0,0.0,0.0,0.0,0.0,0.0,0.0,0.0,0.0,0.0,0.0,0.0,0.0,0.0,0.0,0.0,0.0,0.0,0.0,0.0,0.0,0.0,0.0,0.0,0.0,0.0,0.0,0.0,0.0,-1.2037,-1.2652,-1.3965,-1.4218,-1.2715,-1.1315,-0.9512,-0.7068,0.0,0.0,0.0,0.0,0.0,0.0,0.0,0.0,0.0,0.0,0.0,0.0,0.0,0.0,0.0,0.0,0.0,0.0,0.0,0.0,0.0,0.0,0.0,0.0,0.0,0.0,0.0,0.0,0.0,0.0,0.0,0.0,0.0,0.0,0.0,0.0,0.0,0.0,0.0,0.0,0.0,0.0,0.0,0.0,0.0,0.0,0.0,0.0,0.0,0.0,0.0,0.0,0.0,0.0,0.0,0.0,0.0,0.0,0.0,0.0,0.0,0.0,0.0,0.0,0.0,0.0,0.0,0.0,0.0,0.0,0.0,0.0,0.0,0.0,0.0,0.0,0.0,0.0,0.0,0.0,0.0,0.0,0.0,0.0,0.0,0.0,0.0,0.0,0.0,0.0,0.0,0.0,0.0,0.0,0.0,0.0,0.0,0.0,0.0,0.0,0.0,0.0,0.0,0.0,-1.2278,-1.4378,-1.4302,-1.3426,-1.1847,-1.0273,-0.8395,-0.6144,0.0,0.0,0.0,0.0,0.0,0.0,0.0,0.0,0.0,0.0,0.0,0.0,0.0,0.0,0.0,0.0,0.0,0.0,0.0,0.0,0.0,0.0,0.0,0.0,0.0,0.0,0.0,0.0,0.0,0.0,0.0,0.0,0.0,0.0,0.0,0.0,0.0,0.0,0.0,0.0,0.0,0.0,0.0,0.0,0.0,0.0,0.0,0.0,0.0,0.0,0.0,0.0,0.0,0.0,0.0,0.0,0.0,0.0,0.0,0.0,0.0,0.0,0.0,0.0,0.0,0.0,0.0,0.0,0.0,0.0,0.0,0.0,0.0,0.0,0.0,0.0,0.0,0.0,0.0,0.0,0.0,0.0,0.0,0.0,0.0,0.0,0.0,0.0,0.0,0.0,0.0,0.0,0.0,0.0,0.0,0.0,0.0,0.0,0.0,0.0,0.0,0.0,0.0,-1.1824,-1.2933,-1.4977,-1.4427,-1.3235,-1.1625,-1.0083,-0.822,-0.5933,-0.5346,0.0,0.0,0.0,0.0,0.0,0.0,0.0,0.0,0.0,0.0,0.0,0.0,0.0,0.0,0.0,0.0,0.0,0.0,0.0,0.0,0.0,0.0,0.0,0.0,0.0,0.0,0.0,0.0,0.0,0.0,0.0,0.0,0.0,0.0,0.0,0.0,0.0,0.0,0.0,0.0,0.0,0.0,0.0,0.0,0.0,0.0,0.0,0.0,0.0,0.0,0.0,0.0,0.0,0.0,0.0,0.0,0.0,0.0,0.0,0.0,0.0,0.0,0.0,0.0,0.0,0.0,0.0,0.0,0.0,0.0,0.0,0.0,0.0,0.0,0.0,0.0,0.0,0.0,0.0,0.0,0.0,0.0,0.0,0.0,0.0,0.0,0.0,0.0,0.0,0.0,0.0,0.0,0.0,0.0,0.0,0.0,0.0,0.0,0.0,0.0,0.0,0.0,-1.3093,-1.3802,-1.5324,-1.4242,-1.2903,-1.1625,-0.9768,-0.7845,-0.5933,-0.5284,0.0,0.0,0.0,0.0,0.0,0.0,0.0,0.0,0.0,0.0,0.0,0.0,0.0,0.0,0.0,0.0,0.0,0.0,0.0,0.0,0.0,0.0,0.0,0.0,0.0,0.0,0.0,0.0,0.0,0.0,0.0,0.0,0.0,0.0,0.0,0.0,0.0,0.0,0.0,0.0,0.0,0.0,0.0,0.0,0.0,0.0,0.0,0.0,0.0,0.0,0.0,0.0,0.0,0.0,0.0,0.0,0.0,0.0,0.0,0.0,0.0,0.0,0.0,0.0,0.0,0.0,0.0,0.0,0.0,0.0,0.0,0.0,0.0,0.0,0.0,0.0,0.0,0.0,0.0,0.0,0.0,0.0,0.0,0.0,0.0,0.0,0.0,0.0,0.0,0.0,0.0,0.0,0.0,0.0,0.0,0.0,0.0,0.0,0.0,0.0,0.0,0.0,-1.3547,-1.4763,-1.5651,-1.3536,-1.1902,-1.1543,-0.8663,-0.6558,-0.584,-0.5016,0.0,0.0,0.0,0.0,0.0,0.0,0.0,0.0,0.0,0.0,0.0,0.0,0.0,0.0,0.0,0.0,0.0,0.0,0.0,0.0,0.0,0.0,0.0,0.0,0.0,0.0,0.0,0.0,0.0,0.0,0.0,0.0,0.0,0.0,0.0,0.0,0.0,0.0,0.0,0.0,0.0,0.0,0.0,0.0,0.0,0.0,0.0,0.0,0.0,0.0,0.0,0.0,0.0,0.0,0.0,0.0,0.0,0.0,0.0,0.0,0.0,0.0,0.0,0.0,0.0,0.0,0.0,0.0,0.0,0.0,0.0,0.0,0.0,0.0,0.0,0.0,0.0,0.0,0.0,0.0,0.0,0.0,0.0,0.0,0.0,0.0,0.0,0.0,0.0,0.0,0.0,0.0,0.0,0.0,0.0,0.0,0.0,0.0,0.0,0.0,0.0,0.0,-1.344,-1.4335,-1.4599,-1.3006,-1.1482,-1.0519,-0.8426,-0.6783,-0.5989,0.0,0.0,0.0,0.0,0.0,0.0,0.0,0.0,0.0,0.0,0.0,0.0,0.0,0.0,0.0,0.0,0.0,0.0,0.0,0.0,0.0,0.0,0.0,0.0,0.0,0.0,0.0,0.0,0.0,0.0,0.0,0.0,0.0,0.0,0.0,0.0,0.0,0.0,0.0,0.0,0.0,0.0,0.0,0.0,0.0,0.0,0.0,0.0,0.0,0.0,0.0,0.0,0.0,0.0,0.0,0.0,0.0,0.0,0.0,0.0,0.0,0.0,0.0,0.0,0.0,0.0,0.0,0.0,0.0,0.0,0.0,0.0,0.0,0.0,0.0,0.0,0.0,0.0,0.0,0.0,0.0,0.0,0.0,0.0,0.0,0.0,0.0,0.0,0.0,0.0,0.0,0.0,0.0,0.0,0.0,0.0,0.0,0.0,0.0,0.0,0.0,0.0,-1.2184,-1.3207,-1.3905,-1.3956,-1.2384,-1.0935,-0.9969,-0.826,-0.6885,-0.604,0.0,0.0,0.0,0.0,0.0,0.0,0.0,0.0,0.0,0.0,0.0,0.0,0.0,0.0,0.0,0.0,0.0,0.0,0.0,0.0,0.0,0.0,0.0,0.0,0.0,0.0,0.0,0.0,0.0,0.0,0.0,0.0,0.0,0.0,0.0,0.0,0.0,0.0,0.0,0.0,0.0,0.0,0.0,0.0,0.0,0.0,0.0,0.0,0.0,0.0,0.0,0.0,0.0,0.0,0.0,0.0,0.0,0.0,0.0,0.0,0.0,0.0,0.0,0.0,0.0,0.0,0.0,0.0,0.0,0.0,0.0,0.0,0.0,0.0,0.0,0.0,0.0,0.0,0.0,0.0,0.0,0.0,0.0,0.0,0.0,0.0,0.0,0.0,0.0,0.0,0.0,0.0,0.0,0.0,0.0,0.0,0.0,0.0,0.0,0.0,0.0,0.0,-1.2278,-1.2936,-1.3601,-1.4016,-1.1764,-1.0146,-1.0019,-0.808,-0.664,0.0,0.0,0.0,0.0,0.0,0.0,0.0,0.0,0.0,0.0,0.0,0.0,0.0,0.0,0.0,0.0,0.0,0.0,0.0,0.0,0.0,0.0,0.0,0.0,0.0,0.0,0.0,0.0,0.0,0.0,0.0,0.0,0.0,0.0,0.0,0.0,0.0,0.0,0.0,0.0,0.0,0.0,0.0,0.0,0.0,0.0,0.0,0.0,0.0,0.0,0.0,0.0,0.0,0.0,0.0,0.0,0.0,0.0,0.0,0.0,0.0,0.0,0.0,0.0,0.0,0.0,0.0,0.0,0.0,0.0,0.0,0.0,0.0,0.0,0.0,0.0,0.0,0.0,0.0,0.0,0.0,0.0,0.0,0.0,0.0,0.0,0.0,0.0,0.0,0.0,0.0,0.0,0.0,0.0,0.0,0.0,0.0,0.0,0.0,0.0,0.0,0.0,0.0,-1.2879,-1.3513,-1.3664,-1.3074,-1.1425,-0.993,-0.8867,-0.7944,-0.7054,-0.6247,0.0,0.0,0.0,0.0,0.0,0.0,0.0,0.0,0.0,0.0,0.0,0.0,0.0,0.0,0.0,0.0,0.0,0.0,0.0,0.0,0.0,0.0,0.0,0.0,0.0,0.0,0.0,0.0,0.0,0.0,0.0,0.0,0.0,0.0,0.0,0.0,0.0,0.0,0.0,0.0,0.0,0.0,0.0,0.0,0.0,0.0,0.0,0.0,0.0,0.0,0.0,0.0,0.0,0.0,0.0,0.0,0.0,0.0,0.0,0.0,0.0,0.0,0.0,0.0,0.0,0.0,0.0,0.0,0.0,0.0,0.0,0.0,0.0,0.0,0.0,0.0,0.0,0.0,0.0,0.0,0.0,0.0,0.0,0.0,0.0,0.0,0.0,0.0,0.0,0.0,0.0,0.0,0.0,0.0,0.0,0.0,0.0,0.0,0.0,0.0,0.0,0.0,-1.2278,-1.2917,-1.2939,-1.1921,-1.0548,-0.9369,-0.8556,-0.8031,-0.7394,-0.6532,0.0,0.0,0.0,0.0,0.0,0.0,0.0,0.0,0.0,0.0,0.0,0.0,0.0,0.0,0.0,0.0,0.0,0.0,0.0,0.0,0.0,0.0,0.0,0.0,0.0,0.0,0.0,0.0,0.0,0.0,0.0,0.0,0.0,0.0,0.0,0.0,0.0,0.0,0.0,0.0,0.0,0.0,0.0,0.0,0.0,0.0,0.0,0.0,0.0,0.0,0.0,0.0,0.0,0.0,0.0,0.0,0.0,0.0,0.0,0.0,0.0,0.0,0.0,0.0,0.0,0.0,0.0,0.0,0.0,0.0,0.0,0.0,0.0,0.0,0.0,0.0,0.0,0.0,0.0,0.0,0.0,0.0,0.0,0.0,0.0,0.0,0.0,0.0,0.0,0.0,0.0,0.0,0.0,0.0,0.0,0.0,0.0,0.0,0.0,0.0,0.0,0.0,-1.1278,-1.1872,-1.1936,-1.1035,-0.9585,-0.8723,-0.871,-0.8309,-0.7638,-0.6797,0.0,0.0,0.0,0.0,0.0,0.0,0.0,0.0,0.0,0.0,0.0,0.0,0.0,0.0,0.0,0.0,0.0,0.0,0.0,0.0,0.0,0.0,0.0,0.0,0.0,0.0,0.0,0.0,0.0,0.0,0.0,0.0,0.0,0.0,0.0,0.0,0.0,0.0,0.0,0.0,0.0,0.0,0.0,0.0,0.0,0.0,0.0,0.0,0.0,0.0,0.0,0.0,0.0,0.0,0.0,0.0,0.0,0.0,0.0,0.0,-1.5103,-1.4231,0.0,0.0,0.0,0.0,0.0,0.0,0.0,0.0,0.0,0.0,0.0,0.0,0.0,0.0,0.0,0.0,0.0,0.0,0.0,0.0,0.0,0.0,0.0,0.0,0.0,0.0,0.0,0.0,0.0,0.0,0.0,0.0,0.0,0.0,0.0,0.0,0.0,0.0,0.0,0.0,-1.3278,-1.2991,-1.268,-1.2744,-1.0397,-0.8845,-0.8723,-0.8411,-0.7889,-0.7051,-0.631,0.0,0.0,0.0,0.0,0.0,0.0,0.0,0.0,0.0,0.0,0.0,0.0,0.0,0.0,0.0,0.0,0.0,0.0,0.0,0.0,0.0,0.0,0.0,0.0,0.0,0.0,0.0,0.0,0.0,0.0,0.0,0.0,0.0,0.0,0.0,0.0,0.0,0.0,0.0,0.0,0.0,0.0,0.0,0.0,0.0,0.0,0.0,0.0,0.0,0.0,0.0,0.0,0.0,0.0,0.0,0.0,0.0,0.0,0.0,-1.7456,-1.6379,0.0,0.0,0.0,0.0,0.0,0.0,0.0,0.0,0.0,0.0,0.0,0.0,0.0,0.0,0.0,0.0,0.0,0.0,0.0,0.0,0.0,0.0,0.0,0.0,0.0,0.0,0.0,0.0,0.0,0.0,0.0,0.0,0.0,0.0,0.0,0.0,0.0,0.0,0.0,0.0,-1.1489,-1.2286,-1.2385,-1.1302,-0.9809,-0.8851,-0.8825,-0.8615,-0.8187,-0.7456,-0.6856,0.0,0.0,0.0,0.0,0.0,0.0,0.0,0.0,0.0,0.0,0.0,0.0,0.0,0.0,0.0,0.0,0.0,0.0,0.0,0.0,0.0,0.0,0.0,0.0,0.0,0.0,0.0,0.0,0.0,0.0,0.0,0.0,0.0,0.0,0.0,0.0,0.0,0.0,0.0,0.0,0.0,0.0,0.0,0.0,0.0,0.0,0.0,0.0,0.0,0.0,0.0,0.0,0.0,-2.1323,-2.1643,-2.1884,-2.2084,-2.2258,-2.2217,-2.0401,-1.9372,-1.8891,-1.8144,0.0,0.0,0.0,0.0,0.0,0.0,0.0,0.0,0.0,0.0,0.0,0.0,0.0,0.0,0.0,0.0,0.0,0.0,0.0,0.0,0.0,0.0,-1.6139,-1.6326,-1.678,-1.6404,-1.3552,0.0,0.0,0.0,0.0,0.0,0.0,0.0,0.0,0.0,0.0,0.0,-1.0012,-1.1733,-1.2142,-0.9949,-0.9252,-0.8967,-0.8885,-0.8798,-0.8486,-0.7963,-0.7482,-0.6822,0.0,0.0,0.0,0.0,0.0,0.0,0.0,0.0,0.0,0.0,0.0,0.0,0.0,0.0,0.0,0.0,0.0,0.0,0.0,0.0,0.0,0.0,0.0,0.0,0.0,0.0,0.0,0.0,0.0,0.0,0.0,0.0,-1.7008,-1.7192,0.0,0.0,0.0,0.0,0.0,0.0,0.0,0.0,0.0,0.0,0.0,0.0,0.0,-2.1243,-2.1577,-2.2939,-2.3647,-2.3688,-2.4489,-2.489,-2.4917,-2.4716,-2.4756,-2.4957,-2.4436,0.0,-2.0735,-2.0361,0.0,0.0,0.0,0.0,0.0,0.0,0.0,0.0,0.0,0.0,0.0,0.0,0.0,0.0,0.0,0.0,0.0,0.0,0.0,0.0,0.0,0.0,-1.8784,-1.8571,-1.8771,-1.8851,-1.8127,-1.5325,-1.279,-1.2201,-0.9925,-0.7967,0.0,0.0,0.0,0.0,0.0,0.0,-1.4578,-1.4182,-1.3572,-1.3125,-1.0731,-0.9076,-0.8892,-0.8798,-0.8621,-0.8404,-0.7855,-0.7366,-0.6937,-0.6249,0.0,0.0,0.0,0.0,0.0,0.0,0.0,0.0,0.0,0.0,0.0,0.0,0.0,0.0,0.0,0.0,0.0,0.0,0.0,0.0,0.0,0.0,0.0,0.0,0.0,0.0,0.0,0.0,0.0,-1.774,-1.852,-1.7876,-1.8023,-1.7769,0.0,0.0,0.0,0.0,0.0,0.0,0.0,0.0,0.0,-2.2418,-2.2993,-2.3661,-2.4449,-2.5264,-2.5758,-2.5932,-2.648,-2.6827,-2.6987,-2.6934,-2.6867,-2.6987,-2.6854,-2.5945,-2.4436,-2.2645,-2.1403,-2.0508,0.0,0.0,0.0,0.0,-1.8691,-1.8584,-1.9533,-1.9819,-1.9551,-1.8704,0.0,0.0,0.0,0.0,0.0,0.0,0.0,-1.7422,-1.8076,-1.9052,-1.9907,-2.0107,-2.0254,-2.0267,-1.9973,-1.8476,-1.673,-1.4993,-1.262,-1.0449,-0.9108,-0.8844,0.0,0.0,0.0,-1.3696,-1.4176,-1.4812,-1.4906,-1.4015,-1.2609,-1.1346,-1.0445,-1.0171,-0.9622,-0.8675,-0.8289,-0.7963,-0.7611,-0.6964,-0.6444,0.0,0.0,0.0,0.0,0.0,0.0,0.0,0.0,0.0,0.0,0.0,0.0,0.0,0.0,0.0,0.0,0.0,0.0,0.0,0.0,0.0,0.0,0.0,0.0,0.0,0.0,0.0,0.0,-1.9338,-1.9836,-1.883,-1.9314,-1.9265,0.0,0.0,0.0,0.0,0.0,0.0,-2.1657,-2.2325,-2.3394,-2.4943,-2.5344,-2.5985,-2.6947,-2.7321,-2.7575,-2.7722,-2.8016,-2.823,-2.8377,-2.8377,-2.8377,-2.8377,-2.8377,-2.8083,-2.7415,-2.4823,-2.338,-2.2645,-2.1336,-2.0762,-2.0722,-2.0949,-2.0895,-2.0869,-2.2031,-2.2298,-2.1977,-2.1096,-2.0615,-2.0,-1.809,0.0,0.0,0.0,0.0,-1.9065,-2.0094,-2.0575,-2.0909,-2.1336,-2.1443,-2.1363,-2.1069,-2.0775,-1.988,-1.7515,-1.526,-1.3149,-1.1427,-1.1473,0.0,-1.0333,-1.2998,-1.4821,-1.3926,-1.4999,-1.5443,-1.4298,-1.3635,-1.2768,-1.1612,-1.1309,-1.0499,-0.8832,-0.8621,-0.8438,-0.817,-0.7624,-0.7177,-0.677,0.0,0.0,0.0,0.0,0.0,0.0,0.0,0.0,0.0,0.0,0.0,0.0,0.0,0.0,0.0,0.0,0.0,0.0,0.0,0.0,0.0,0.0,0.0,0.0,0.0,0.0,0.0,0.0,0.0,-2.0575,-2.155,0.0,0.0,0.0,0.0,-2.136,-2.2258,-2.3207,-2.4369,-2.5264,-2.6238,-2.7081,-2.7752,-2.8136,-2.8497,-2.9058,-2.9219,-2.8951,-2.9245,-2.9245,-2.8991,-2.8991,-2.8991,-2.8991,-2.8991,-2.8818,-2.8417,-2.6854,-2.5705,-2.4836,-2.3928,-2.3394,-2.3153,-2.3166,-2.3166,-2.3207,-2.3554,-2.3674,-2.3647,-2.3594,-2.2806,-2.175,-2.1069,-2.0481,0.0,0.0,-2.0494,-2.1096,-2.171,-2.2098,-2.2311,-2.2352,-2.2352,-2.2271,-2.1977,-2.1697,-2.1105,-1.9564,-1.7545,-1.5885,-1.5055,0.0,-1.3248,-1.4314,-1.5387,-1.6011,-1.5934,-1.5203,-1.4606,-1.4381,-1.3014,-1.1934,-1.1518,-1.1483,-1.0739,-0.8989,-0.8784,-0.8696,-0.8676,-0.8184,-0.78,-0.755,-0.679,0.0,0.0,0.0,0.0,0.0,0.0,0.0,0.0,0.0,0.0,0.0,0.0,0.0,0.0,0.0,0.0,0.0,0.0,0.0,0.0,0.0,0.0,0.0,0.0,0.0,0.0,0.0,0.0,-2.2352,-2.342,0.0,-2.2766,-2.3086,-2.3407,-2.3527,-2.4703,-2.5758,-2.656,-2.7281,-2.807,-2.8938,-2.9366,-2.9713,-3.0007,-3.0221,-3.0181,-2.99,-3.0181,-3.0074,-2.9606,-2.9806,-2.978,-2.9606,-2.9606,-2.9446,-2.9125,-2.8604,-2.7629,-2.64,-2.5594,-2.5117,-2.5024,-2.5024,-2.5024,-2.5037,-2.5144,-2.5259,-2.509,-2.4516,-2.3527,-2.2512,-2.2298,-2.1964,-2.1683,-2.1871,-2.2218,-2.2632,-2.3033,-2.3207,-2.3287,-2.3287,-2.3287,-2.3153,-2.2659,-2.2472,-2.2191,-2.1229,-1.9871,-1.8224,-1.6365,-1.6485,-1.6514,-1.5771,-1.7089,-1.8155,-1.7956,-1.7919,-1.7481,-1.6213,-1.5395,-1.4079,-1.1975,-1.1515,-1.0739,-0.9188,-0.894,-0.8804,-0.8804,-0.8608,-0.8282,-0.784,-0.7333,-0.6661,0.0,0.0,0.0,0.0,0.0,0.0,0.0,0.0,0.0,0.0,0.0,0.0,0.0,0.0,0.0,0.0,0.0,0.0,0.0,0.0,0.0,0.0,0.0,0.0,0.0,-2.1897,-2.35,-2.4008,-2.5184,-2.5651,-2.4877,-2.5424,-2.5865,-2.5972,-2.6961,-2.7869,-2.8564,-2.8978,-2.9513,-3.0194,-3.0301,-3.0448,-3.0648,-3.0648,-3.0501,-3.0207,-3.0501,-3.0394,-2.9927,-3.0114,-3.01,-2.9913,-2.9806,-2.9659,-2.9472,-2.9272,-2.8604,-2.7655,-2.6961,-2.6627,-2.6533,-2.6426,-2.6479,-2.6479,-2.6479,-2.6345,-2.5999,-2.5424,-2.4556,-2.3741,-2.3634,-2.3541,-2.3487,-2.3581,-2.3754,-2.3968,-2.4168,-2.4142,-2.4035,-2.3941,-2.3915,-2.3781,-2.3273,-2.3086,-2.2873,-2.2378,-2.1336,-1.9945,-1.8231,-1.8698,-1.8889,-1.7525,-1.8677,-1.941,-1.8674,-1.8911,-1.8706,-1.7422,-1.6514,-1.5162,-1.3144,-1.2029,-1.0827,-0.9327,-0.9015,-0.8858,-0.8811,-0.8764,-0.8526,-0.8126,-0.7624,-0.698,-0.6179,0.0,0.0,0.0,0.0,0.0,0.0,0.0,0.0,0.0,0.0,0.0,0.0,0.0,0.0,0.0,0.0,0.0,0.0,0.0,0.0,0.0,0.0,0.0,-2.2044,-2.3834,-2.5264,-2.5571,-2.6881,-2.7549,-2.6987,-2.7188,-2.7722,-2.8577,-2.8911,-2.9459,-3.0314,-3.0354,-3.0488,-3.0782,-3.0515,-3.0381,-3.0381,-3.0381,-3.0221,-2.994,-3.0234,-3.0207,-2.9913,-2.9927,-2.9927,-2.99,-2.9619,-2.9486,-2.9446,-2.8871,-2.8631,-2.8591,-2.827,-2.7963,-2.7682,-2.7402,-2.7281,-2.7281,-2.7281,-2.6894,-2.6413,-2.6413,-2.6012,-2.5491,-2.5197,-2.5291,-2.5451,-2.517,-2.509,-2.509,-2.509,-2.4877,-2.4583,-2.4302,-2.4222,-2.4142,-2.3848,-2.3554,-2.3247,-2.2939,-2.1937,-2.1056,-2.0762,-2.0454,-2.016,-1.9867,-2.0067,0.0,-1.8166,-1.7994,-1.7994,-1.7921,-1.6226,-1.4962,-1.4738,-1.2929,-1.1086,-0.9341,-0.9015,-0.8811,-0.8723,-0.871,-0.8574,-0.8333,-0.7733,-0.7132,-0.6532,0.0,0.0,0.0,0.0,0.0,0.0,0.0,0.0,0.0,0.0,0.0,0.0,0.0,0.0,0.0,0.0,0.0,0.0,0.0,0.0,0.0,-2.2338,-2.3527,-2.3313,-2.5237,-2.6934,-2.7669,-2.8671,-2.9325,-2.9379,-2.9459,-2.9526,-2.9553,-2.9833,-3.01,-3.0341,-3.0354,-3.0488,-3.0782,-3.0715,-3.0675,-3.0675,-3.0675,-3.0528,-3.0247,-3.0541,-3.0408,-2.9927,-3.014,-3.0114,-2.9913,-2.9833,-2.9673,-2.9472,-2.9312,-2.9112,-2.8871,-2.835,-2.8181,-2.8003,-2.802,-2.7762,-2.7575,-2.7575,-2.7335,-2.6987,-2.6774,-2.6453,-2.6092,-2.5798,-2.5625,-2.5491,-2.5411,-2.5398,-2.5398,-2.5398,-2.517,-2.493,-2.4863,-2.4676,-2.4436,-2.4142,-2.3861,-2.3567,-2.326,-2.2579,-2.1897,-2.1403,-2.1069,-2.0775,-2.0481,-2.0508,-2.0345,-1.9633,-1.9788,-1.9396,-1.8067,-1.7422,-1.6054,-1.3457,-1.2548,-1.133,-0.9442,-0.8974,-0.8804,-0.8817,-0.8771,-0.8621,-0.8425,-0.7841,-0.7346,0.0,0.0,0.0,0.0,0.0,0.0,0.0,0.0,0.0,0.0,0.0,0.0,0.0,0.0,0.0,0.0,0.0,0.0,0.0,0.0,0.0,0.0,-2.4436,-2.5785,-2.6119,-2.7228,-2.839,-2.9406,-2.986,-3.0221,-3.0515,-3.0314,-3.0154,-3.01,-3.0261,-3.0421,-3.0528,-3.0541,-3.0621,-3.0795,-3.0675,-3.0675,-3.0795,-3.0555,-3.0408,-3.0354,-3.0408,-3.0247,-2.9927,-3.01,-3.0074,-2.9913,-2.978,-2.9566,-2.9285,-2.9165,-2.8938,-2.8644,0.0,0.0,0.0,0.0,-2.8114,-2.7883,-2.7883,-2.7696,-2.7415,-2.7241,-2.6907,-2.6547,-2.6373,-2.6106,-2.5879,-2.5879,-2.5798,-2.5692,-2.5692,-2.5478,-2.5237,-2.5104,-2.4943,-2.4743,-2.4449,-2.4155,-2.3901,-2.3728,-2.3207,0.0,-2.2244,-2.175,-2.1376,-2.1082,-2.1105,-2.0935,-2.0641,-2.0748,-2.0463,-1.9349,-1.8531,-1.7213,-1.5144,-1.393,0.0,0.0,0.0,-0.953,-0.8845,-0.8696,0.0,0.0,0.0,0.0,0.0,0.0,0.0,0.0,-0.6878,-0.6837,0.0,0.0,0.0,0.0,0.0,0.0,0.0,0.0,0.0,0.0,0.0,0.0,0.0,0.0,0.0,0.0,-2.6547,-2.827,-2.9459,-2.9432,-2.9659,-3.0675,-3.0595,-3.0541,-3.0768,-3.0327,-3.0114,-3.0341,-3.0354,-3.0488,-3.0782,-3.0728,0.0,0.0,0.0,-3.0501,-3.0795,-3.0274,-3.0127,-3.0354,-3.01,-2.9953,-2.9913,-2.9913,-2.9913,-2.99,-2.9646,-2.9366,-2.9072,-2.8804,-2.8511,-2.8301,-2.8457,-2.8551,-2.8524,-2.8328,-2.8221,-2.8221,-2.8221,0.0,0.0,-2.7709,-2.7348,-2.6907,-2.6881,-2.6667,-2.644,-2.644,-2.6226,-2.609,-2.609,-2.5785,-2.5504,-2.5237,-2.5157,-2.505,-2.4756,-2.4462,-2.4249,-2.4209,-2.3754,-2.3273,-2.2966,-2.2432,-2.1937,-2.1708,-2.1668,-2.1574,-2.1243,-2.1176,-2.1162,-2.1162,-1.96,0.0,-1.8301,-1.6365,-1.4381,-1.2628,-1.2074,-1.0976,-0.9089,-0.8909,-0.8786,-0.856,-0.856,-0.8547,-0.8533,-0.8547,-0.856,-0.8533,-0.7577,-0.7407,0.0,0.0,0.0,0.0,0.0,0.0,0.0,0.0,0.0,0.0,0.0,0.0,0.0,0.0,0.0,-2.6106,-2.7736,-2.9192,-3.0368,-3.0688,-3.0795,-3.0795,-3.0955,-3.0982,-3.0808,-3.0688,-3.0555,-3.0381,-3.0354,-3.0488,-3.0782,-3.0341,-3.0408,-3.1116,-3.0635,-3.0501,-3.0795,-3.0675,-3.0541,-3.0354,-3.0301,0.0,-2.9913,-2.9913,-2.9913,-2.9913,-2.986,-2.9673,-2.9392,-2.9339,-2.9005,-2.8497,-2.831,-2.8315,-2.8315,-2.8248,-2.8221,-2.8221,-2.8221,-2.8194,-2.81,-2.7776,-2.7615,-2.7482,-2.7255,-2.6974,0.0,-2.6734,-2.6533,-2.6306,-2.6306,-2.6092,-2.5852,-2.5876,-2.5598,-2.5344,-2.505,-2.4756,-2.4489,-2.4249,-2.3915,-2.3594,-2.3287,-2.2739,-2.2231,-2.1951,-2.1897,-2.1884,-2.183,-2.1617,-2.1534,-2.1534,-2.0935,-1.9953,-1.845,-1.7796,-1.654,-1.444,-1.3874,-1.2786,-1.1009,-1.1108,-1.049,-0.9077,-0.9077,-0.8967,-0.8797,-0.8967,-0.9077,-0.9071,-0.8574,-0.8425,0.0,0.0,0.0,0.0,0.0,0.0,0.0,0.0,0.0,0.0,0.0,-2.2311,-2.334,0.0,-2.644,-2.7909,-2.9152,-3.0167,-3.0902,-3.1263,-3.1343,-3.1049,-3.1009,-3.0889,-3.0608,-3.0448,-3.0287,-3.0154,-3.0274,-3.0421,-3.0568,-3.0434,-3.0555,-3.0996,-3.0728,-3.0715,-3.1009,-3.0862,-3.0715,-3.0581,-3.0434,-3.0207,-2.9913,-2.9913,-2.9913,-2.9913,-2.9913,-2.9753,-2.9472,-2.9325,-2.9005,-2.8591,-2.843,-2.8283,-2.8221,-2.8221,-2.8221,-2.8221,-2.8221,-2.8221,-2.8207,-2.7963,-2.7722,-2.7482,-2.7482,-2.7175,-2.6854,-2.7001,-2.6827,-2.66,-2.66,-2.6386,-2.6132,-2.5999,-2.5838,-2.5651,-2.5358,-2.5064,-2.481,-2.4676,-2.4289,-2.3941,-2.3794,-2.3394,-2.2886,-2.2298,-2.2205,-2.2151,-2.2004,-2.1857,-2.1764,-2.1764,-2.163,-2.1161,-2.022,-1.8998,-1.7713,-1.6291,-1.5141,-1.3799,-1.2026,-1.2063,-1.1251,-0.9548,-0.949,-0.9449,-0.9381,-0.9456,-0.953,-0.9598,-0.9449,-0.9259,0.0,0.0,0.0,0.0,0.0,0.0,0.0,-2.0708,-2.1269,-2.2284,-2.3354,-2.4556,-2.5798,-2.7134,-2.8417,-2.9553,-3.0381,-3.0982,-3.1276,-3.1517,-3.1543,-3.1183,-3.0929,-3.0675,-3.0394,-3.0087,-2.994,-2.9993,-3.0221,-3.0408,-3.0528,-3.0702,-3.0849,-3.0955,-3.0902,-3.1022,-3.1316,-3.1076,-3.0902,-3.0795,-3.0555,-3.0261,-2.9913,-2.9913,-2.9913,-2.9913,-2.9913,-2.978,-2.9539,-2.9245,-2.8991,-2.8764,-2.8657,-2.8457,-2.8315,-2.8248,-2.8221,-2.8221,-2.8221,-2.8221,-2.8221,-2.8154,-2.7736,-2.7388,-2.7629,-2.7335,-2.6974,-2.7268,-2.7134,-2.6907,-2.6907,-2.6694,-2.6413,-2.6186,-2.6079,-2.5959,-2.5665,-2.5411,-2.5211,-2.5104,-2.4703,-2.4342,-2.4222,-2.4008,-2.3567,-2.2726,-2.2592,-2.2485,-2.2191,-2.2111,-2.2071,-2.2071,-2.2017,-2.1991,-2.1991,-2.0234,-1.8863,-1.8435,-1.694,-1.5191,-1.315,-1.2993,-1.2015,-0.991,-0.991,-0.991,-0.991,-0.991,-0.9971,-1.0031,-1.0031,-0.9903,-1.9239,-1.8945,-1.9345,-1.9853,-2.0254,-2.1149,0.0,-2.3901,-2.4088,-2.53,-2.64,-2.7335,-2.7762,-2.8631,-2.9579,-3.0501,-3.0942,-3.1276,-3.1583,-3.165,-3.1463,-3.0902,-3.0808,-3.0675,-3.0394,-3.0087,-3.002,-3.0287,-3.0341,-3.0581,-3.1102,-3.0915,-3.1036,-3.1557,-3.1316,-3.1316,-3.1623,-3.1583,-3.1303,-3.0795,-3.0755,-3.0448,-2.9913,-2.9913,-2.9913,-2.9913,-2.9913,-2.99,-2.9847,-2.9553,-2.9419,-2.9339,-2.8818,-2.8591,-2.8524,-2.8328,-2.8221,-2.8221,-2.8221,-2.8221,-2.8181,-2.7829,-2.7709,-2.7655,-2.7682,-2.7468,-2.7281,-2.7562,-2.7442,-2.7215,-2.7215,-2.7001,-2.676,-2.6734,-2.6533,-2.6266,-2.5972,-2.5879,-2.5705,-2.5184,-2.5024,-2.4823,-2.4289,-2.4182,-2.3941,-2.3327,-2.322,-2.3113,-2.2806,-2.2539,-2.2378,-2.2378,-2.2138,-2.1991,-2.1991,-2.1527,-2.1224,-2.1157,-2.0453,-1.8629,-1.5468,-1.509,-1.351,-1.0292,-1.0229,-1.0229,-1.0229,-1.0229,-1.0236,-1.0256,-1.0256,-1.0229,-2.1189,-2.1042,-2.1363,-2.2311,-2.302,-2.3875,-2.5331,-2.5825,-2.6226,-2.7135,-2.7896,-2.8564,-2.8871,-2.9646,-3.0368,-3.0728,-3.1183,-3.153,-3.165,-3.1517,-3.1263,-3.0849,-3.0795,-3.0608,-3.0154,-2.9993,-2.9967,-3.01,-3.0421,-3.0715,-3.0969,-3.1183,-3.1423,-3.1664,-3.1543,-3.1543,-3.1664,-3.1664,-3.1463,-3.1036,-3.0875,-3.0581,-3.0167,-2.9993,-2.9913,-2.9913,-2.9913,-2.9913,-2.99,-2.978,-2.9633,-2.9459,-2.9219,-2.9005,-2.8804,-2.8323,-2.8221,-2.8221,-2.8221,-2.8221,-2.8207,-2.8003,-2.7843,-2.7736,-2.7909,-2.7749,-2.7575,-2.7869,-2.7749,-2.7522,-2.7522,-2.7295,-2.7041,-2.6867,-2.6734,-2.656,-2.6266,-2.6079,-2.5956,-2.5638,-2.5317,-2.4997,-2.4756,-2.4569,-2.4315,-2.3901,-2.3688,-2.3541,-2.3407,-2.3126,-2.2873,-2.2699,-2.2565,-2.2432,-2.2258,-2.2124,-2.1991,-2.1817,-2.1577,-2.0373,-1.7936,-1.777,-1.6546,-1.4134,-1.3029,-1.2441,-1.2441,-1.1385,-1.0792,-1.0792,-1.0792,-1.0792,-2.2084,-2.2472,-2.314,-2.4088,-2.5224,-2.6253,-2.676,-2.7335,-2.7896,-2.8489,-2.8925,-2.9379,-2.9673,-3.0247,-3.0728,-3.0889,-3.1276,-3.157,-3.1664,-3.141,-3.1089,-3.0715,-3.0595,-3.0354,-2.9847,-2.994,-3.0034,-3.0034,-3.0515,-3.0822,-3.0902,-3.1396,-3.1664,-3.1664,-3.1664,-3.1664,-3.1664,-3.1664,-3.1517,-3.1223,-3.0929,-3.0635,-3.0354,-3.0047,-2.9913,-2.9913,-2.9913,-2.9913,-2.9913,-2.9913,-2.9793,-2.9593,-2.9513,-2.9352,-2.9098,-2.8577,-2.8337,-2.8341,-2.8261,-2.8221,-2.8207,-2.8127,-2.7869,-2.7736,-2.7949,-2.7869,-2.7762,-2.814,-2.8073,-2.7816,-2.7816,-2.7602,-2.7335,-2.7121,-2.7001,-2.6867,-2.6573,-2.6346,-2.6146,-2.6063,-2.5611,-2.5291,-2.5211,-2.4957,-2.469,-2.4476,-2.4195,-2.3955,-2.3794,-2.3581,-2.3367,-2.314,-2.3182,-2.2993,-2.2699,-2.2672,-2.2539,-2.2245,-2.2151,-2.1355,-1.9582,-1.9444,-1.8596,-1.684,-1.543,-1.476,-1.476,-1.3404,-1.2452,-1.1978,-1.1978,-1.171,-2.1229,-2.2619,-2.4222,-2.4543,-2.6132,-2.7709,-2.81,-2.8551,-2.9072,-2.9379,-2.9686,-2.998,-3.0274,-3.0354,-3.0555,-3.1116,-3.1223,-3.1343,-3.1623,-3.141,-3.1009,-3.0434,-3.0114,-2.982,-2.9526,-3.0007,-3.0341,-3.0341,-3.0621,-3.0915,-3.1196,-3.1503,-3.1664,-3.1664,-3.1664,-3.1664,-3.1664,-3.1664,-3.1517,-3.1223,-3.0929,-3.0635,-3.0354,-3.0047,-2.9913,-2.9913,-2.9913,-2.9913,-2.9913,-2.9913,-2.9913,-2.9873,-2.9593,-2.9486,-2.9432,-2.9125,-2.8831,-2.8551,-2.8328,-2.8221,-2.8181,-2.7802,-2.7709,-2.7696,-2.7709,-2.7709,-2.7762,-2.814,-2.8221,-2.8207,-2.8207,-2.7909,-2.7682,-2.7669,-2.7455,-2.7175,-2.6867,-2.68,-2.6627,-2.6066,-2.6023,-2.5838,-2.5545,-2.5264,-2.5064,-2.505,-2.4796,-2.4409,-2.3848,-2.3768,-2.3754,-2.3741,-2.3741,-2.3621,-2.3327,-2.33,-2.3166,-2.2928,-2.2565,-2.1639,-1.9844,-1.9539,-1.8596,-1.684,-1.6716,-1.6705,-1.6705,-1.6648,-1.5701,-1.3951,-1.3951,-1.2933,-2.3046,-2.4249,-2.5424,-2.6907,-2.7936,-2.8724,-2.9205,-2.9472,-2.9593,-2.9499,-2.9245,-2.9018,-2.8911,-2.9058,-2.9392,-2.998,-3.0555,-3.1102,-3.1597,-3.1249,-3.0728,-3.014,-3.0154,-2.994,-2.9259,-2.9553,-2.986,-3.0047,-3.0515,-3.0835,-3.0929,-3.1396,-3.1664,-3.1664,-3.1664,-3.1664,-3.1664,-3.1664,-3.1623,-3.1517,-3.1022,-3.0541,-3.006,-2.9967,-2.9913,-2.9913,-2.9913,-2.9913,-2.9913,-2.9913,-2.9913,-2.99,-2.9806,-2.9766,-2.974,-2.9446,-2.9272,-2.9125,-2.8617,-2.831,-2.8207,-2.8114,-2.7989,-2.7989,-2.7989,-2.7989,-2.81,-2.8194,-2.8221,-2.8221,-2.8221,-2.8154,-2.7949,-2.7749,-2.7629,-2.7468,-2.7175,-2.6961,-2.676,-2.6573,-2.6226,-2.5919,-2.5825,-2.5558,-2.5304,-2.5104,-2.4823,-2.4489,-2.4102,-2.4062,-2.3981,-2.3794,-2.3768,-2.3728,-2.3634,-2.3621,-2.3581,-2.3474,-2.3367,-2.3104,-2.2447,-2.2357,-2.1938,-2.1113,-1.9912,-1.9196,-1.8958,-1.7717,-1.6748,-1.6123,-1.6123,-1.5775,-2.4422,-2.5611,-2.672,-2.8484,-2.9219,-2.9606,-2.9993,-2.9993,-2.9806,-2.9406,-2.8684,-2.803,-2.7722,-2.7575,-2.7869,-2.8991,-2.9646,-3.0368,-3.137,-3.1089,-3.0568,-2.998,-2.9993,-2.982,-2.9259,-2.9272,-2.9486,-2.9887,-3.0461,-3.0795,-3.0795,-3.1356,-3.1664,-3.1664,-3.1664,-3.1664,-3.1664,-3.1664,-3.1623,-3.1503,-3.1129,-3.0648,-3.0074,-3.0074,-3.002,-2.9913,-2.9913,-2.9913,-2.9913,-2.9913,-2.9913,-2.9913,-2.9913,-2.9913,-2.99,-2.9713,-2.9579,-2.9406,-2.8818,-2.847,-2.8283,-2.8261,-2.8221,-2.8221,-2.8221,-2.8221,-2.8221,-2.8221,-2.8221,-2.8221,-2.8221,-2.8221,-2.8181,-2.7896,-2.7856,-2.7776,-2.7482,-2.7268,-2.7068,-2.6867,-2.652,-2.6239,-2.6132,-2.5865,-2.5571,-2.5277,-2.5077,-2.481,-2.4409,-2.4356,-2.4289,-2.4102,-2.4075,-2.4035,-2.3928,-2.3928,-2.3888,-2.3781,-2.3768,-2.3768,-2.3768,-2.3768,-2.3688,-2.3487,-2.2319,-2.1583,-2.141,-2.0192,-1.9193,-1.8545,-1.8545,-1.812,-2.5317,-2.6694,-2.807,-2.9259,-2.9953,-3.0354,-3.0341,-3.0087,-2.9673,-2.9072,-2.7976,-2.7041,-2.672,-2.6012,-2.6132,-2.8163,-2.8577,-2.9245,-3.0969,-3.0969,-3.0568,-2.998,-2.9673,-2.9499,-2.9486,-2.9245,-2.9312,-2.9873,-3.0448,-3.0782,-3.0795,-3.1356,-3.1664,-3.1664,-3.1664,-3.1664,-3.1664,-3.1664,-3.1517,-3.1209,-3.1223,-3.0915,-3.0341,-3.0354,-3.0194,-2.9913,-2.9913,-2.9913,-2.9913,-2.9913,-2.9913,-2.9913,-2.9913,-2.9913,-2.9913,-2.9913,-2.974,-2.9419,-2.8858,-2.8631,-2.8564,-2.827,-2.8248,-2.8221,-2.8221,-2.8221,-2.8221,-2.8221,-2.8221,-2.8221,-2.8221,-2.8221,-2.8221,-2.8221,-2.8221,-2.8154,-2.7789,-2.7709,-2.7535,-2.6974,-2.6841,-2.6734,-2.6453,-2.6172,-2.5879,-2.5585,-2.5531,-2.5331,-2.4756,-2.4589,-2.4663,-2.4663,-2.4649,-2.4529,-2.4249,-2.4222,-2.4115,-2.3834,-2.3808,-2.3808,-2.3808,-2.3808,-2.3808,-2.3794,-2.3794,-2.3781,-2.3768,-2.3768,-2.2885,-2.103,-2.103,-2.0093,-2.6921,-2.823,-2.9259,-3.0221,-3.0408,-3.0301,-3.0074,-2.9472,-2.8711,-2.7883,-2.6426,-2.5157,-2.4636,-2.4716,-2.5317,-2.672,-2.8257,-2.9646,-3.0755,-3.0835,-3.0568,-2.998,-2.9847,-2.9726,-2.9499,-2.9606,-2.9753,-2.99,-3.0261,-3.0568,-3.0782,-3.1356,-3.1664,-3.1664,-3.1664,-3.1664,-3.1664,-3.1664,-3.141,-3.0902,-3.1116,-3.0808,-3.0034,-3.0261,-3.0194,-2.9913,-2.9913,-2.9913,-2.9913,-2.9913,-2.9913,-2.9913,-2.9913,-2.9913,-2.9913,-2.9913,-2.9873,-2.9753,-2.9392,-2.8978,-2.8591,-2.8511,-2.8337,-2.8221,-2.8221,-2.8221,-2.8221,-2.8221,-2.8221,-2.8221,-2.8221,-2.8221,-2.8221,-2.8221,-2.8221,-2.8207,-2.8127,-2.7856,-2.7655,-2.7509,-2.7121,-2.68,-2.672,-2.6466,-2.6186,-2.5892,-2.5838,-2.5705,-2.5331,-2.5104,-2.497,-2.497,-2.477,-2.4609,-2.4529,-2.4529,-2.4489,-2.4422,-2.4422,-2.4422,-2.4422,-2.4422,-2.4315,-2.4102,-2.4088,-2.3981,-2.3768,-2.3768,-2.3554,-2.3028,-2.3028,-2.2814,-2.827,-2.9379,-3.0207,-3.0822,-3.0675,-3.0181,-2.9499,-2.8657,-2.7589,-2.6052,-2.4529,-2.33,-2.2712,-2.2979,-2.3875,-2.5705,-2.7522,-2.9138,-3.0421,-3.0715,-3.0568,-2.998,-2.9913,-2.9847,-2.9686,-2.9713,-2.9833,-3.0087,-3.0381,-3.0621,-3.0782,-3.1356,-3.1664,-3.1664,-3.1664,-3.1664,-3.1664,-3.1664,-3.1503,-3.1183,-3.1343,-3.1089,-3.0501,-3.0662,-3.0515,-3.0114,-3.0114,-3.0034,-2.9913,-2.9913,-2.9913,-2.9913,-2.9913,-2.9913,-2.9913,-2.9913,-2.9913,-2.99,-2.9726,-2.9379,-2.8951,-2.8698,-2.839,-2.8221,-2.8221,-2.8221,-2.8221,-2.8221,-2.8221,-2.8221,-2.8221,-2.8221,-2.8221,-2.8221,-2.8221,-2.8221,-2.8221,-2.8016,-2.7856,-2.7722,-2.7335,-2.7014,-2.7014,-2.6774,-2.652,-2.636,-2.6226,-2.6079,-2.5919,-2.5531,-2.5277,-2.5277,-2.5117,-2.5024,-2.5024,-2.5024,-2.5024,-2.5024,-2.5024,-2.5024,-2.5024,-2.5024,-2.4943,-2.4783,-2.4649,-2.4502,-2.4342,-2.4222,-2.4222,-2.4342,-2.4209,-2.4222,-2.9352,-3.0207,-3.0915,-3.1169,-3.0755,-2.998,-2.8492,-2.7503,-2.6187,-2.3707,-2.2417,-2.1537,-2.1029,-2.1269,-2.2405,-2.5024,-2.672,-2.8323,-3.0114,-3.0581,-3.0541,-3.0034,-2.994,-2.9927,-2.9967,-2.9753,-2.9833,-3.0381,-3.0688,-3.0849,-3.0849,-3.137,-3.1664,-3.1664,-3.1664,-3.1664,-3.1664,-3.1664,-3.165,-3.161,-3.165,-3.149,-3.1169,-3.1209,-3.0902,-3.0354,-3.0354,-3.0194,-2.9913,-2.9913,-2.9913,-2.9913,-2.9913,-2.9913,-2.9913,-2.9913,-2.9913,-2.9913,-2.9913,-2.9726,-2.9406,-2.8885,-2.8484,-2.8288,-2.8288,-2.8261,-2.8221,-2.8221,-2.8221,-2.8221,-2.8221,-2.8221,-2.8221,-2.8221,-2.8221,-2.8221,-2.8221,-2.8221,-2.8154,-2.7802,-2.7522,-2.7321,-2.7321,-2.7081,-2.6881,-2.6881,-2.6667,-2.6493,-2.6453,-2.5932,-2.5571,-2.5571,-2.5531,-2.5518,-2.5518,-2.5518,-2.5518,-2.5518,-2.5518,-2.5518,-2.5518,-2.5518,-2.5518,-2.5518,-2.5264,-2.5144,-2.5144,-2.4877,-2.489,-2.513,-2.4877,-2.489,-2.99,-3.0675,-3.1169,-3.1209,-3.0608,-2.9251,-2.6358,-2.5368,-2.4101,-2.086,-2.0183,-2.0147,-2.004,-2.0869,-2.2405,-2.477,-2.6587,-2.8323,-3.0114,-3.0408,-3.0394,-3.0301,-3.006,-3.0007,-3.0261,-3.0234,-3.0354,-3.0688,-3.0982,-3.1156,-3.1156,-3.1476,-3.1664,-3.1664,-3.1664,-3.1664,-3.1664,-3.1664,-3.1543,-3.1303,-3.1557,-3.1383,-3.0875,-3.1116,-3.0902,-3.0354,-3.0354,-3.0194,-2.9913,-2.9913,-2.9913,-2.9913,-2.9913,-2.9913,-2.9913,-2.9913,-2.9913,-2.9913,-2.9913,-2.9726,-2.9459,-2.9366,-2.8965,-2.8524,-2.8524,-2.835,-2.8221,-2.8221,-2.8221,-2.8221,-2.8221,-2.8221,-2.8221,-2.8221,-2.8221,-2.8221,-2.8221,-2.8221,-2.8207,-2.8154,-2.7829,-2.7629,-2.7629,-2.7375,-2.7188,-2.7188,-2.7148,-2.7028,-2.6774,-2.6239,-2.5879,-2.5879,-2.5665,-2.5518,-2.5518,-2.5518,-2.5518,-2.5518,-2.5518,-2.5518,-2.5518,-2.5518,-2.5518,-2.5518,-2.5464,-2.5438,-2.5438,-2.5384,-2.5384,-2.5438,-2.5384,-2.5384,-3.0354,-3.1009,-3.1423,-3.1263,-3.0341,-2.8464,-2.4827,-2.3179,-2.1546,-1.8273,-1.7591,-1.784,-1.8526,-1.9746,-2.1256,-2.3166,-2.4957,-2.6774,-2.8711,-2.9112,-2.9432,-3.006,-3.0007,-2.9967,-3.0114,-3.0274,-3.0474,-3.0768,-3.1062,-3.1223,-3.1223,-3.1503,-3.1664,-3.1664,-3.1664,-3.1664,-3.1664,-3.1664,-3.1597,-3.1463,-3.1597,-3.153,-3.1249,-3.1396,-3.1223,-3.0808,-3.0808,-3.0555,-3.014,-3.014,-3.006,-2.9913,-2.9913,-2.9913,-2.9913,-2.9913,-2.9913,-2.9913,-2.9913,-2.982,-2.9713,-2.9713,-2.9312,-2.8831,-2.8831,-2.8724,-2.8577,-2.843,-2.839,-2.835,-2.8274,-2.8221,-2.8221,-2.8221,-2.8221,-2.8221,-2.8221,-2.8221,-2.8221,-2.8221,-2.8114,-2.7923,-2.7923,-2.7682,-2.7495,-2.7495,-2.7362,-2.7215,-2.7068,-2.6814,-2.652,-2.6213,-2.6052,-2.5972,-2.5972,-2.5972,-2.5972,-2.5972,-2.5972,-2.5972,-2.5972,-2.5972,-2.5972,-2.5972,-2.5825,-2.5191,-2.408,-2.393,-2.3312,-2.2397,-2.2191,-2.2202,-3.0434,-3.1076,-3.149,-3.1129,-2.998,-2.782,-2.3699,-2.1635,-1.9705,-1.6402,-1.5803,-1.619,-1.7318,-1.8544,-1.9987,-2.171,-2.326,-2.5077,-2.7455,-2.7989,-2.869,-2.986,-2.9953,-2.994,-3.0007,-3.0274,-3.0568,-3.0862,-3.1156,-3.1316,-3.1316,-3.1543,-3.1664,-3.1664,-3.1664,-3.1664,-3.1664,-3.1664,-3.1664,-3.1664,-3.1664,-3.1664,-3.1664,-3.1664,-3.1503,-3.1223,-3.1223,-3.0929,-3.0448,-3.0381,-3.0221,-3.0007,-2.994,-2.9913,-2.9913,-2.9913,-2.9913,-2.9913,-2.9913,-2.9913,-2.9913,-2.9913,-2.9566,-2.9138,-2.9138,-2.9085,-2.8991,-2.8764,-2.8698,-2.8631,-2.8323,-2.8328,-2.8315,-2.8248,-2.8221,-2.8221,-2.8221,-2.8221,-2.8221,-2.8221,-2.8221,-2.8221,-2.8221,-2.7949,-2.7789,-2.7789,-2.7602,-2.7428,-2.7362,-2.7362,-2.7161,-2.664,-2.6573,-2.6573,-2.6573,-2.652,-2.648,-2.648,-2.6426,-2.6386,-2.6386,-2.6386,-2.6386,-2.6386,-2.6159,-2.5009,-2.2767,-2.2557,-2.1446,-1.9544,-1.9293,-1.9303,-2.9766,-3.0621,-3.1129,-3.0581,-2.9539,-2.7517,-2.3096,-2.1553,-1.9905,-1.5893,-1.5902,-1.6709,-1.7141,-1.7742,-1.9038,-2.1577,-2.2565,-2.4281,-2.7712,-2.8207,-2.877,-3.014,-3.0074,-3.002,-3.0287,-3.0581,-3.0875,-3.1169,-3.1463,-3.1623,-3.1623,-3.165,-3.1664,-3.1664,-3.1664,-3.1664,-3.1664,-3.1664,-3.1664,-3.1664,-3.1664,-3.1664,-3.1664,-3.1664,-3.1503,-3.1223,-3.1223,-3.1049,-3.0728,-3.0474,-3.0341,-3.0287,-3.002,-2.9913,-2.9913,-2.9913,-2.9913,-2.9913,-2.9913,-2.9913,-2.9913,-2.9913,-2.97,-2.9446,-2.9446,-2.9259,-2.9032,-2.9005,-2.9005,-2.8938,-2.8644,-2.8564,-2.8497,-2.8301,-2.8221,-2.8221,-2.8221,-2.8221,-2.8221,-2.8221,-2.8221,-2.8221,-2.8221,-2.8207,-2.8181,-2.8181,-2.8167,-2.8047,-2.7696,-2.7655,-2.7535,-2.7215,-2.7188,-2.7188,-2.7188,-2.6934,-2.6787,-2.6787,-2.6533,-2.6386,-2.6386,-2.6386,-2.6386,-2.6386,-2.636,-2.5291,-2.3025,-2.3002,-2.195,-1.9876,-1.9856,-1.9856,-2.9366,-3.0301,-3.0822,-3.0234,-2.9072,-2.6898,-2.2522,-2.0434,-1.8503,-1.5323,-1.4843,-1.5366,-1.6467,-1.6967,-1.7822,-1.9599,-2.0227,-2.1537,-2.4616,-2.5353,-2.6319,-2.8497,-2.8978,-2.9379,-3.0034,-3.0515,-3.0982,-3.1463,-3.1597,-3.1664,-3.1664,-3.1664,-3.1664,-3.1664,-3.1664,-3.1664,-3.1664,-3.1664,-3.1664,-3.1664,-3.1664,-3.1664,-3.1664,-3.1664,-3.161,-3.149,-3.149,-3.133,-3.1049,-3.0929,-3.0675,-3.0354,-3.0234,-3.0074,-2.9913,-2.9913,-2.9913,-2.9913,-2.9913,-2.9913,-2.9913,-2.9913,-2.9833,-2.974,-2.974,-2.9659,-2.9526,-2.9352,-2.9312,-2.9245,-2.8938,-2.8738,-2.8524,-2.8301,-2.8221,-2.8221,-2.8221,-2.8221,-2.8221,-2.8221,-2.8221,-2.8221,-2.8221,-2.8221,-2.8221,-2.8221,-2.8221,-2.8181,-2.7976,-2.7963,-2.7923,-2.7886,-2.7564,-2.7268,-2.7268,-2.7161,-2.7094,-2.7094,-2.6974,-2.6921,-2.6921,-2.6921,-2.6921,-2.6921,-2.5506,-2.3773,-2.162,-2.0218,-1.8403,-1.624,-1.624,-1.624,-2.8604,-2.9659,-3.0261,-2.9673,-2.8417,-2.6334,-2.2553,-2.0125,-1.7981,-1.5631,-1.4789,-1.4808,-1.5954,-1.638,-1.6941,-1.805,-1.8691,-1.9947,-2.2566,-2.338,-2.4623,-2.6907,-2.7642,-2.8297,-2.9179,-3.0194,-3.1036,-3.1623,-3.1664,-3.1664,-3.1664,-3.1664,-3.1664,-3.1664,-3.1664,-3.1664,-3.1664,-3.1664,-3.1664,-3.1664,-3.1664,-3.1664,-3.1664,-3.1664,-3.1664,-3.1664,-3.1664,-3.1557,-3.1356,-3.1263,-3.0929,-3.0474,-3.0394,-3.0181,-2.9913,-2.9913,-2.9913,-2.9913,-2.9913,-2.9913,-2.9913,-2.9913,-2.9913,-2.9913,-2.9913,-2.9913,-2.9873,-2.9673,-2.9553,-2.9419,-2.9112,-2.8818,-2.8524,-2.8301,-2.8221,-2.8221,-2.8221,-2.8221,-2.8221,-2.8221,-2.8221,-2.8221,-2.8221,-2.8221,-2.8221,-2.8221,-2.8221,-2.8221,-2.8221,-2.8221,-2.8221,-2.8221,-2.7859,-2.7604,-2.7604,-2.7442,-2.7388,-2.7388,-2.7308,-2.7009,-2.6259,-2.6259,-2.5918,-2.5248,-2.3584,-2.1734,-1.9558,-1.7891,-1.5957,-1.3838,-1.3838,-1.3838,-2.7321,-2.8591,-2.9352,-2.8764,-2.7495,-2.5785,-2.3407,-2.1056,-1.8865,-1.7074,-1.6184,-1.5784,-1.5784,-1.6072,-1.6567,-1.7448,-1.8584,-2.0248,-2.2593,-2.338,-2.4315,-2.5876,-2.6239,-2.676,-2.7642,-2.9579,-3.1036,-3.1623,-3.1664,-3.1664,-3.1664,-3.1664,-3.1664,-3.1664,-3.1664,-3.1664,-3.1664,-3.1664,-3.1664,-3.1664,-3.1664,-3.1664,-3.1664,-3.1664,-3.1664,-3.1664,-3.1664,-3.1664,-3.1637,-3.1343,-3.1049,-3.0755,-3.0474,-3.0181,-2.9913,-2.9913,-2.9913,-2.9913,-2.9913,-2.9913,-2.9913,-2.9913,-2.9913,-2.9913,-2.9913,-2.9913,-2.9913,-2.9913,-2.97,-2.9419,-2.9112,-2.8818,-2.8524,-2.8301,-2.8221,-2.8221,-2.8221,-2.8221,-2.8221,-2.8221,-2.8221,-2.8221,-2.8221,-2.8221,-2.8221,-2.8221,-2.8221,-2.8221,-2.8221,-2.8221,-2.8221,-2.8221,-2.8221,-2.8221,-2.8221,-2.7869,-2.7696,-2.7696,-2.7428,-2.6259,-2.3915,-2.3833,-2.2743,-2.0396,-2.0313,-1.9305,-1.7137,-1.7137,-1.5957,-1.3838,-1.3838,-1.3838,-2.4716,-2.5732,-2.6333,-2.5745,-2.4943,-2.3781,-2.1817,-2.0174,-1.8611,-1.7034,-1.6233,-1.5784,-1.5784,-1.5912,-1.6526,-1.8223,-1.8811,-1.9746,-2.1762,-2.318,-2.4382,-2.5251,-2.7215,-2.8845,-2.9726,-3.0408,-3.1036,-3.1623,-3.1664,-3.1664,-3.1664,-3.1664,-3.1664,-3.1664,-3.1664,-3.1664,-3.1664,-3.1664,-3.1664,-3.1664,-3.1664,-3.1664,-3.1664,-3.1664,-3.1664,-3.1664,-3.1664,-3.1664,-3.165,-3.1343,-3.1049,-3.0768,-3.0474,-3.0181,-2.9913,-2.9913,-2.9913,-2.9913,-2.9913,-2.9913,-2.9913,-2.9913,-2.9913,-2.9913,-2.9913,-2.9913,-2.9913,-2.9913,-2.9847,-2.9713,-2.9419,-2.9272,-2.9085,-2.8577,-2.8457,-2.8404,-2.8274,-2.8221,-2.8221,-2.8221,-2.8221,-2.8221,-2.8221,-2.8221,-2.8221,-2.8221,-2.8221,-2.8221,-2.8221,-2.8221,-2.8221,-2.8221,-2.8221,-2.8221,-2.8221,-2.814,-2.8003,-2.8003,-2.7993,-2.6839,-2.4529,-2.4444,-2.3331,-2.0923,-1.9389,-1.8268,-1.7586,-1.5961,-1.4849,-1.4156,-1.4156,-1.4102,-2.2493,-2.3915,-2.4476,-2.3995,-2.326,-2.2258,-2.0695,-1.9345,-1.8063,-1.6807,-1.6166,-1.5784,-1.5784,-1.5925,-1.642,-1.7716,-1.849,-1.9386,-2.0708,-2.2512,-2.4168,-2.5424,-2.7495,-2.9245,-3.0354,-3.0768,-3.1156,-3.1637,-3.1664,-3.1664,-3.1664,-3.1664,-3.1664,-3.1664,-3.1664,-3.1664,-3.1664,-3.1664,-3.1664,-3.1664,-3.1664,-3.1664,-3.1664,-3.1664,-3.1664,-3.1664,-3.1664,-3.161,0.0,-3.1303,-3.0996,-3.0608,-3.0434,-3.0181,-2.9913,-2.9913,-2.998,-3.0074,-2.9953,-2.9993,-3.006,-2.9953,-2.9913,-2.9913,-2.9913,-2.9913,-2.9913,-2.9913,-2.9913,-2.9847,-2.9566,-2.9486,-2.9366,-2.8885,-2.8764,-2.8684,-2.8377,-2.8323,-2.8283,-2.8248,-2.8221,-2.8221,-2.8221,-2.8221,-2.8221,-2.8221,-2.8221,-2.8221,-2.8221,-2.8221,-2.8221,-2.8221,-2.8328,-2.7957,-2.6995,-2.7787,-2.8323,-2.8323,-2.7519,-2.5909,-2.3481,-2.2525,-2.0962,-1.8627,-1.7159,-1.6466,-1.6466,-1.4992,-1.4299,-1.4299,-1.4299,-1.4251,0.0,-2.2481,-2.3217,-2.2951,-2.2111,-2.1052,-1.9893,-1.8544,0.0,-1.6496,-1.6032,-1.5798,-1.5912,-1.6112,-1.6326,-1.6549,-1.7929,-1.9225,-1.984,-2.1724,-2.3941,-2.6346,-2.7362,-2.8417,-2.9873,-3.0742,-3.1343,-3.165,-3.1664,-3.1664,-3.1664,-3.1664,-3.1664,-3.1664,-3.1664,-3.1664,-3.1664,-3.1664,-3.1664,-3.1664,-3.1664,-3.1664,-3.1664,-3.1664,-3.1664,-3.1664,-3.1664,-3.1503,-3.1223,-3.1209,-3.0862,-3.0354,-3.0341,-3.0167,-2.9953,-2.9953,-3.014,-3.0354,-3.0047,-3.0127,-3.0314,-3.0007,-2.9913,-2.9913,-2.9913,-2.9913,-2.9913,-2.9913,-2.9913,-2.986,-2.9579,-2.9513,-2.9446,-2.9138,-2.9072,-2.8991,-2.8698,-2.8644,-2.8551,-2.8355,-2.8274,-2.8261,-2.8288,-2.8261,-2.8234,-2.8261,-2.8248,-2.8221,-2.8221,-2.8221,-2.8221,-2.8221,-2.8404,-2.7607,-2.5165,-2.7043,-2.8287,-2.8102,-2.6055,-2.3651,-2.1078,-1.8898,-1.6729,-1.4387,-1.4299,-1.4299,-1.4299,-1.4299,-1.4299,-1.4299,-1.4299,-1.4299,-1.5011,0.0,-1.8123,-1.9003,-1.8905,-1.8437,0.0,-1.7488,-1.6794,-1.6366,-1.6032,-1.6032,-1.6764,-1.6576,-1.686,-1.8677,-1.9506,-2.0214,-2.1092,-2.33,-2.5932,-2.8751,-2.9272,-2.9793,-3.0822,-3.1102,-3.1343,-3.165,-3.1664,-3.1664,-3.1664,-3.1664,-3.1664,-3.1664,-3.1664,-3.1664,-3.1664,-3.1664,-3.1664,-3.1664,-3.1664,-3.1664,-3.1664,-3.1664,-3.1664,-3.1664,-3.1664,-3.1503,-3.1209,-3.0982,-3.0688,-3.0341,-3.0114,-3.0114,-3.0261,-3.0261,-3.0448,-3.0648,-3.0354,-3.0301,-3.0314,-3.0007,-2.9913,-2.9913,-2.9913,-2.9913,-2.9913,-2.9913,-2.9913,-2.99,-2.9833,-2.982,-2.974,-2.9446,-2.9379,-2.9299,-2.9005,-2.8938,-2.8911,-2.8845,-2.8657,-2.8564,-2.8791,-2.8444,-2.8315,-2.8457,-2.8297,-2.8221,-2.8221,-2.8221,-2.8221,-2.8221,-2.8288,-2.7465,-2.5424,-2.5822,-2.5372,-2.3401,-2.2624,-2.1184,-1.8858,-1.8094,-1.6729,-1.4387,-1.4299,-1.4299,-1.4299,-1.4299,-1.4299,-1.4299,-1.4299,-1.4299,-1.1592,-1.4094,-1.669,-1.7371,-1.7773,-1.7969,-1.7822,-1.7128,-1.642,-1.6126,-1.5939,-1.6019,-1.6683,-1.6764,-1.7192,-1.8557,-1.9599,-2.0962,-2.3073,-2.4836,-2.6961,-2.978,-3.0114,-3.0461,-3.1343,-3.1423,-3.149,-3.1664,-3.1664,-3.1664,-3.1664,-3.1543,-3.153,-3.1664,-3.153,-3.153,-3.1664,-3.1664,-3.1664,-3.1664,-3.1664,-3.1664,-3.1664,-3.1664,-3.1597,-3.1476,-3.161,-3.0737,-2.928,-3.0386,-3.003,-2.8904,-2.9623,-3.0181,-3.0541,-3.0408,-3.0621,-3.0929,-3.0515,-3.0274,-3.0127,-2.9967,-2.9913,-2.9913,-2.9913,-2.9913,-2.9913,-2.9913,-2.9913,-2.9913,-2.9913,-2.9913,-2.9873,-2.9713,-2.9686,-2.9606,-2.9312,-2.9245,-2.9205,-2.9072,-2.8911,-2.8858,-2.9005,-2.8764,-2.8617,-2.8778,-2.8657,-2.8511,-2.8377,-2.835,-2.8297,-2.8248,-2.731,-2.5896,-2.382,-2.2794,-2.213,-2.194,-2.067,-1.9453,-1.8051,-1.6816,-1.5631,-1.4394,-1.4333,-1.4367,-1.4502,-1.4434,-1.4434,-1.4502,-1.4428,-1.4394,-0.9464,-1.3133,-1.6663,-1.6678,-1.7495,-1.8277,-1.7983,-1.7101,-1.6273,-1.6019,-1.5917,-1.6112,-1.6593,-1.7099,-1.7594,-1.809,-1.9679,-2.2004,-2.5371,-2.6319,-2.7602,-3.0127,-3.0421,-3.0728,-3.153,-3.1597,-3.1583,-3.1543,-3.153,-3.153,-3.153,-3.1303,-3.1276,-3.153,-3.1289,-3.1276,-3.153,-3.1623,-3.1664,-3.1664,-3.1664,-3.1664,-3.1664,-3.1623,-3.1463,-3.1142,-3.1059,-2.9388,-2.7027,-2.8867,-2.8576,-2.7073,-2.8729,-2.9977,-3.0768,-3.0515,-3.0742,-3.1076,-3.0541,-3.0167,-2.9913,-2.9913,-2.9913,-2.9913,-2.9913,-2.9913,-2.9913,-2.9913,-2.9913,-2.9913,-2.9913,-2.9913,-2.9913,-2.9913,-2.9913,-2.9847,-2.9606,-2.9553,-2.9472,-2.9219,-2.9138,-2.9125,-2.9165,-2.9098,-2.9058,-2.9098,-2.9072,-2.8951,-2.8711,-2.8631,-2.8412,-2.7807,-2.6473,-2.4406,-2.1363,-2.024,-2.0016,-2.0943,-1.9074,-1.7731,-1.7526,-1.5446,-1.438,-1.4475,-1.436,-1.4421,-1.4672,-1.4563,-1.457,-1.4672,-1.4563,-1.4502,-0.8709,-1.1845,-1.4976,-1.5112,-1.6468,-1.7649,-1.7407,-1.6954,-1.662,-1.658,-1.6567,-1.6967,-1.8277,-1.8384,-1.8865,-2.0717,-2.2432,-2.4476,-2.7001,-2.7655,-2.8577,-3.0501,-3.0728,-3.0875,-3.1249,-3.1289,-3.1196,-3.0942,-3.0929,-3.0929,-3.0929,-3.0889,-3.0875,-3.0929,-3.0889,-3.0875,-3.0929,-3.1423,-3.1664,-3.1664,-3.1664,-3.1664,-3.1664,-3.141,-3.1276,-3.1116,-2.8812,-2.7424,-2.6595,-2.501,-2.5268,-2.678,-2.7188,-2.8804,-3.0795,-3.0742,-3.0782,-3.0808,-3.0474,-3.0167,-2.9913,-2.9913,-2.9913,-2.9913,-2.9913,-2.9913,-2.9913,-2.9913,-2.9913,-2.9913,-2.9913,-2.9913,-2.9913,-2.9913,-2.9913,-2.99,-2.986,-2.9847,-2.9833,-2.9793,-2.9579,-2.9499,-2.974,-2.9366,-2.9125,-2.9379,-2.9205,-2.9032,-2.8978,-2.8764,-2.7792,-2.5797,-2.685,-2.5273,-1.9124,-2.2173,-2.203,-1.642,-1.5767,-1.535,-1.5054,-1.4668,-1.4434,-1.4333,-1.4312,-1.4326,-1.4367,-1.4462,-1.4462,-1.4373,-1.4468,-1.4448,-0.8238,-1.1176,-1.4187,-1.4613,-1.6759,-1.8744,-1.8611,-1.8103,-1.7675,-1.7675,-1.7675,-1.7929,-1.8771,-1.9466,-2.0681,-2.3073,-2.4543,-2.5985,-2.7696,-2.8203,-2.8938,-3.0381,-3.0555,-3.0675,-3.0969,-3.0996,-3.0942,-3.0808,-3.0795,-3.0795,-3.0795,-3.0648,-3.0635,-3.0795,-3.0635,-3.0635,-3.0795,-2.9717,-2.9845,-3.1196,-2.9845,-3.0016,-3.1329,-2.9687,-2.8987,-2.8881,-2.7625,-2.5417,-2.2695,-2.3068,-2.3128,-2.3233,-2.5712,-2.7526,-2.8985,-3.032,-3.0688,-3.0541,-3.0408,-3.0167,-2.9913,-2.9913,-2.8989,-2.8166,-2.9451,-2.8989,-2.8166,-2.9541,-2.9913,-2.9541,-2.8256,-2.8899,-2.9541,-2.8256,-2.8899,-2.9913,-2.9913,-2.9913,-2.9913,-2.9913,-2.9806,-2.9766,-2.99,-2.97,-2.9553,-2.97,-2.9593,-2.9459,-2.9299,-2.9165,-2.857,-2.7345,-2.6933,-2.5556,-2.2433,-2.3172,-2.176,-1.7241,-1.5618,-1.4746,-1.4523,-1.4434,-1.4401,-1.4414,-1.434,-1.438,-1.4536,-1.4523,-1.4523,-1.4536,-1.4523,-1.4475,-0.8269,-1.0906,-1.3821,-1.4389,-1.7086,-1.9706,-2.012,-1.9533,-1.8971,-1.9252,-1.9199,-1.9212,-1.9573,-2.0895,-2.2672,-2.4917,-2.6199,-2.7268,-2.831,-2.8724,-2.9272,-3.0247,-3.0354,-3.0448,-3.0675,-3.0688,-3.0662,-3.0595,-3.0595,-3.0595,-3.0595,-3.0381,-3.0354,-3.0581,-3.0368,-3.0081,-2.9729,-2.7848,-2.7921,-2.9937,-2.8043,-2.827,-3.034,-2.8663,-2.7598,-2.7086,-2.6306,-2.3467,-1.937,-2.0778,-2.0706,-2.0097,-2.3561,-2.5783,-2.7366,-2.9767,-3.0555,-3.0354,-3.0354,-3.0207,-3.0034,-3.01,-2.8408,-2.6778,-2.9273,-2.8216,-2.6695,-2.9182,-2.9451,-2.8629,-2.6695,-2.7148,-2.7792,-2.6502,-2.7612,-2.9182,-2.9734,-2.9913,-2.9913,-2.9913,-2.9913,-2.9913,-2.9913,-2.9913,-2.9913,-2.9913,-2.9913,-2.9833,-2.9619,-2.907,-2.8572,-2.8351,-2.6658,-2.5825,-2.6645,-2.3486,-2.0862,-1.9505,-1.6514,-1.476,-1.457,-1.4462,-1.4421,-1.4462,-1.4353,-1.4414,-1.4638,-1.455,-1.4557,-1.4631,-1.455,-1.4496,-0.9016,-1.1359,-1.3808,-1.4302,-1.6724,-1.9412,-2.1119,-2.0748,-2.0414,-2.151,-2.1296,-2.1096,-2.1657,-2.3193,-2.4716,-2.5732,-2.7335,-2.8671,-2.9299,-2.9633,-2.9953,-3.0314,-3.0354,-3.0368,-3.0394,-3.0394,-3.0274,-3.0007,-2.998,-2.998,-2.998,-2.9967,-2.9953,-2.998,-2.9967,-2.8848,-2.6561,-2.6379,-2.6615,-2.7378,-2.7192,-2.7322,-2.7948,-2.9425,-2.9034,-2.6969,-2.4084,-2.142,-1.8986,-1.6832,-1.7398,-1.9533,-1.9889,-2.2909,-2.7354,-2.9638,-3.0381,-3.0354,-3.0354,-3.0341,-3.0381,-3.0635,-2.885,-2.7145,-2.9586,-2.8367,-2.6695,-2.9182,-2.8256,-2.6411,-2.6229,-2.458,-2.3564,-2.5684,-2.632,-2.7057,-2.9362,-2.9913,-2.9913,-2.9913,-2.9913,-2.9913,-2.9913,-2.9913,-2.9913,-2.9913,-2.9913,-2.9913,-2.9887,-2.7633,-2.611,-2.6175,-2.5772,-2.6443,-2.9004,-2.2855,-1.9779,-2.186,-1.7736,-1.5025,-1.4733,-1.4713,-1.4584,-1.4319,-1.4306,-1.4312,-1.4333,-1.4455,-1.4448,-1.4333,-1.4455,-1.4441,-0.8689,-1.0387,-1.2616,-1.479,-1.6697,-1.8738,-2.1303,-2.0841,-2.0638,-2.3139,-2.2294,-2.1641,-2.3298,-2.4636,-2.5745,-2.6627,-2.6817,-2.7574,-2.9508,-2.8463,-2.8204,-2.988,-3.0087,-3.0087,-3.0087,-3.0087,-3.0034,-2.9927,-2.8436,-2.8256,-2.9824,-2.8436,-2.8346,-2.9824,-2.9913,-2.8719,-2.6229,-2.6229,-2.5491,-2.4198,-2.4198,-2.5255,-2.7085,-2.7567,-2.6697,-2.4606,-2.3118,-2.0349,-1.6869,-1.5827,-1.6067,-1.7343,-2.0565,-2.378,-2.7048,-2.965,-3.0515,-3.0381,-3.0568,-3.0635,-3.0648,-3.0755,-2.7969,-2.5246,-2.94,-2.7719,-2.5206,-2.9324,-2.8682,-2.6352,-2.4474,-2.3198,-2.2372,-2.181,-2.2821,-2.458,-2.7057,-2.7612,-2.8076,-2.9644,-2.9913,-2.9913,-2.9913,-2.9913,-2.9913,-2.9913,-2.9913,-2.9913,-2.9913,-2.8988,-2.7823,-2.6269,-2.5995,-2.6342,-2.7361,-2.3528,-2.0786,-2.0226,-1.8342,-1.6431,-1.4694,-1.4597,-1.4543,-1.4434,-1.4523,-1.4529,-1.4434,-1.4482,-1.4441,-1.4299,-1.4353,-1.4353,-0.8581,-0.9762,-1.1579,-1.3868,-1.5721,-1.7754,-2.0977,-2.1513,-2.2153,-2.4951,-2.4061,-2.2939,-2.3705,-2.5085,-2.6188,-2.6212,-2.597,-2.6754,-2.9502,-2.7792,-2.7148,-2.9644,-2.9913,-2.9913,-2.9913,-2.9913,-2.9913,-2.9913,-2.8346,-2.8076,-2.9824,-2.7521,-2.7328,-2.9824,-2.9182,-2.7883,-2.6229,-2.6229,-2.4945,-2.2464,-2.3289,-2.4701,-2.6709,-2.7178,-2.6281,-2.4207,-2.3087,-2.0265,-1.6596,-1.5683,-1.5867,-1.72,-2.2397,-2.5373,-2.7036,-2.987,-3.0808,-3.057,-2.9909,-2.9695,-2.9615,-2.8837,-2.5661,-2.2934,-2.7204,-2.5445,-2.2835,-2.718,-2.6526,-2.4187,-2.2104,-2.1561,-2.1077,-1.9345,-2.0259,-2.2083,-2.45,-2.5684,-2.6683,-2.8436,-2.9362,-2.9644,-2.8899,-2.8719,-2.8436,-2.7702,-2.7521,-2.7521,-2.7521,-2.6876,-2.5764,-2.4113,-2.393,-2.4204,-2.4945,-2.2831,-2.0686,-1.8879,-1.8541,-1.7368,-1.4749,-1.4658,-1.4631,-1.4584,-1.4638,-1.4618,-1.4509,-1.4468,-1.4394,-1.4299,-1.4299,-1.4299,-0.8791,-0.977,-1.0977,-1.1231,-1.3416,-1.6535,-2.038,-2.2971,-2.5162,-2.7295,-2.6787,-2.5244,-2.2835,-2.4566,-2.5855,-2.4327,-2.5008,-2.6754,-2.9502,-2.7792,-2.7148,-2.9644,-2.9913,-2.9913,-2.9913,-2.9913,-2.9913,-2.9913,-2.9913,-2.9824,-2.9913,-2.7521,-2.7328,-2.9824,-2.7521,-2.6229,-2.6139,-2.6229,-2.4945,-2.2556,-2.5036,-2.637,-2.6789,-2.8938,-2.8679,-2.6513,-2.3762,-2.1299,-1.8859,-1.627,-1.6658,-1.9462,-2.4911,-2.7098,-2.7402,-3.0155,-3.1223,-3.0835,-2.8162,-2.7298,-2.6858,-2.4584,-2.2082,-2.0289,-2.2683,-2.1494,-1.982,-2.2371,-2.1241,-1.9342,-1.9342,-1.9437,-1.9387,-1.9106,-1.9064,-1.9663,-2.1961,-2.4398,-2.6139,-2.6139,-2.8166,-2.9079,-2.6604,-2.6139,-2.5309,-2.2831,-2.2464,-2.2464,-2.2464,-2.0344,-1.8871,-1.8964,-1.8871,-1.9882,-2.228,-2.0252,-1.8795,-1.8617,-1.86,-1.7516,-1.5063,-1.497,-1.4896,-1.4746,-1.459,-1.4516,-1.4516,-1.4373,-1.4306,-1.4299,-1.4299,-1.4299,-0.8628,-0.918,-1.0269,-1.2132,-1.4966,-1.828,-2.204,-2.2076,-2.2258,-2.5555,-2.6909,-2.7171,-2.6009,-2.6806,-2.7437,-2.6721,-2.6178,-2.6754,-2.9502,-2.7792,-2.7148,-2.9644,-2.9913,-2.9913,-2.9913,-2.9913,-2.9913,-2.9913,-2.8256,-2.8076,-2.9824,-2.5866,-2.4763,-2.7238,-2.6604,-2.54,-2.3564,-2.7057,-2.7521,-2.5127,-2.7612,-2.7933,-2.6438,-2.8848,-2.8679,-2.641,-2.367,-2.1206,-1.9056,-1.8252,-1.8416,-1.956,-2.4883,-2.6876,-2.7059,-3.0078,-2.9943,-2.8108,-2.7724,-2.65,-2.4756,-2.4151,-2.2079,-2.0774,-2.5142,-2.3342,-2.0686,-2.5131,-2.4555,-2.2132,-2.0296,-1.9809,-1.9353,-1.715,-1.6611,-1.726,-1.9751,-2.0748,-2.1766,-2.3426,-2.4323,-2.4489,-2.3747,-2.3656,-2.3391,-2.2647,-2.2556,-2.2556,-2.2464,-2.0344,-1.9511,-2.1267,-1.9882,-1.9149,-1.9882,-1.9326,-1.8111,-1.6319,-1.6226,-1.5753,-1.4814,-1.4909,-1.495,-1.4903,-1.4957,-1.4882,-1.4672,-1.4631,-1.4502,-1.4299,-1.4299,-1.4299,-0.8947,-0.9239,-1.0201,-1.2922,-1.5329,-1.8033,-2.1878,-2.2503,-2.2631,-2.403,-2.4905,-2.5104,-2.3955,-2.547,-2.6544,-2.5616,-2.5718,-2.6875,-2.9528,-2.7792,-2.7148,-2.9644,-2.9913,-2.9913,-2.9913,-2.9913,-2.9913,-2.9913,-2.8526,-2.8346,-2.9824,-2.6139,-2.4671,-2.6139,-2.6229,-2.5491,-2.4021,-2.7883,-2.9182,-2.7702,-2.9182,-2.8629,-2.632,-2.8809,-2.8616,-2.6166,-2.2606,-1.9767,-1.7742,-1.9695,-2.0433,-2.1011,-2.6272,-2.8155,-2.8253,-3.0306,-3.0052,-2.8331,-2.6641,-2.5067,-2.3588,-2.1441,-1.9692,-1.901,-2.2233,-2.096,-1.9109,-2.2233,-2.2037,-2.047,-1.8813,-1.8418,-1.7962,-1.6161,-1.5723,-1.6091,-1.755,-1.8533,-1.9527,-2.102,-2.1967,-2.2188,-2.1267,-2.1083,-2.0806,-1.9798,-1.9613,-1.9613,-1.9613,-1.8321,-1.7949,-1.9427,-1.8321,-1.7398,-1.7398,-1.7398,-1.6752,-1.5275,-1.5181,-1.5099,-1.4923,-1.5004,-1.5059,-1.5059,-1.5086,-1.5011,-1.4835,-1.4767,-1.4652,-1.4475,-1.4414,-1.4387,-0.9476,-0.972,-1.0544,-1.3419,-1.483,-1.6545,-2.0249,-2.3181,-2.4654,-2.2882,-2.1891,-2.0812,-1.9024,-2.2199,-2.4433,-2.2679,-2.4722,-2.7341,-2.9554,-2.7973,-2.7328,-2.9644,-2.9913,-2.9913,-2.9913,-2.9913,-2.9913,-2.9913,-2.9913,-2.9913,-2.9913,-2.7328,-2.5866,-2.5866,-2.5866,-2.5866,-2.5866,-2.8539,-2.9913,-2.9913,-2.9913,-2.8629,-2.632,-2.8526,-2.8076,-2.5309,-2.0797,-1.7491,-1.5556,-2.0353,-2.2372,-2.3035,-2.8066,-3.0132,-3.0354,-3.0451,-3.0438,-2.9713,-2.4769,-2.3099,-2.239,-1.7642,-1.6083,-1.6182,-1.6374,-1.6275,-1.6182,-1.6374,-1.6275,-1.6083,-1.6083,-1.6083,-1.6049,-1.5906,-1.5872,-1.5839,-1.571,-1.7356,-1.8822,-1.8806,-2.0415,-2.1102,-1.8964,-1.8592,-1.7763,-1.5556,-1.5181,-1.5181,-1.5181,-1.5181,-1.5181,-1.5181,-1.5181,-1.5181,-1.5181,-1.5181,-1.5181,-1.5181,-1.5181,-1.5181,-1.5181,-1.5181,-1.5181,-1.5181,-1.5059,-1.4984,-1.497,-1.4828,-1.4753,-1.4733,-1.4597,-1.4529,-0.9096,-0.9788,-1.0777,-1.2052,-1.4907,-1.7639,-1.8654,-1.9572,-2.0655,-2.224,-2.2353,-2.203,-2.1439,-2.3788,-2.5745,-2.5069,-2.73,-2.9272,-2.9824,-2.9451,-2.9272,-2.9824,-2.9913,-2.9913,-2.9913,-2.9913,-2.9913,-2.9913,-2.9913,-2.9913,-2.9913,-2.5673,-2.3289,-2.3289,-2.3289,-2.3289,-2.3289,-2.7702,-2.9913,-2.9913,-2.9913,-2.8629,-2.6229,-2.6785,-2.4569,-2.0437,-1.9326,-1.7491,-1.5462,-1.8414,-2.0806,-2.2841,-2.5924,-2.8254,-2.9777,-2.819,-2.6353,-2.4196,-2.1522,-1.9256,-1.7471,-1.6432,-1.6083,-1.6474,-1.8517,-1.7741,-1.6573,-1.8616,-1.7642,-1.6083,-1.6083,-1.6083,-1.6076,-1.6042,-1.6035,-1.6022,-1.5995,-1.6349,-1.6584,-1.6373,-1.6693,-1.6721,-1.6126,-1.6011,-1.583,-1.5275,-1.5181,-1.5181,-1.5181,-1.5181,-1.5181,-1.5181,-1.5181,-1.5181,-1.5181,-1.5181,-1.5181,-1.5181,-1.5181,-1.5181,-1.5181,-1.5181,-1.5181,-1.5181,-1.5153,-1.5079,-1.497,-1.4936,-1.4862,-1.474,-1.4706,-1.4692,-0.9551,-1.0987,-1.293,-1.5202,-1.6789,-1.7839,-1.8038,-1.7352,-1.7139,-1.85,-1.8937,-1.8938,-1.8836,-2.1925,-2.4354,-2.4234,-2.7423,-2.9913,-2.9913,-2.9913,-2.9913,-2.9913,-2.8809,-2.8166,-2.8166,-2.8166,-2.8166,-2.8166,-2.9272,-2.9913,-2.9913,-2.7431,-2.4945,-2.2647,-2.4854,-2.4945,-2.2556,-2.7431,-2.9913,-2.9913,-2.8719,-2.6229,-2.2729,-2.2729,-2.135,-1.8871,-1.767,-1.6385,-1.5368,-1.7856,-1.9697,-2.1175,-2.4763,-2.6966,-2.7998,-2.685,-2.5673,-2.413,-2.0702,-1.864,-1.7389,-1.623,-1.5913,-1.6264,-1.7621,-1.7089,-1.6374,-1.7741,-1.7154,-1.6083,-1.6083,-1.6083,-1.6083,-1.6083,-1.6083,-1.6083,-1.6083,-1.5961,-1.5832,-1.5757,-1.5622,-1.5472,-1.5316,-1.5228,-1.5181,-1.5181,-1.5181,-1.5181,-1.5181,-1.5181,-1.5181,-1.5181,-1.5181,-1.5181,-1.5181,-1.5181,-1.5181,-1.5181,-1.5181,-1.5181,-1.5181,-1.5181,-1.5181,-1.5181,-1.5181,-1.5147,-1.5072,-1.5072,-1.5031,-1.495,-1.4882,-1.4848,-0.9876,-1.1881,-1.4562,-1.8059,-1.794,-1.6992,-1.7291,-1.5942,-1.4706,-1.4733,-1.4957,-1.5147,-1.5147,-1.8854,-2.2004,-2.2464,-2.632,-2.9451,-2.9824,-2.9913,-2.9913,-2.9913,-2.7702,-2.6229,-2.6229,-2.5764,-2.5582,-2.5582,-2.7431,-2.8809,-2.9272,-2.8899,-2.6785,-2.2749,-2.6502,-2.6411,-2.1912,-2.632,-2.8629,-2.8616,-2.6139,-2.2821,-1.8871,-1.8499,-1.822,-1.8135,-1.6104,-1.5181,-1.5368,-1.7398,-1.8499,-1.9326,-2.3381,-2.5218,-2.5491,-2.5127,-2.5159,-2.4704,-2.0117,-1.862,-1.8535,-1.6802,-1.6411,-1.6496,-1.6524,-1.6623,-1.6637,-1.6175,-1.6083,-1.6083,-1.6083,-1.6083,-1.6083,-1.6083,-1.6083,-1.6083,-1.6083,-1.5981,-1.5886,-1.5859,-1.5737,-1.5601,-1.5472,-1.5343,-1.5255,-1.5228,-1.5221,-1.5215,-1.5187,-1.5181,-1.5181,-1.5181,-1.5181,-1.5181,-1.5181,-1.5181,-1.5181,-1.5181,-1.5181,-1.5181,-1.5181,-1.5181,-1.5181,-1.5181,-1.5181,-1.5181,-1.5181,-1.5181,-1.5181,-1.5181,-1.5065,-1.5011,-0.871,-1.0294,-1.2335,-1.3886,-1.4422,-1.4608,-1.4888,-1.4702,-1.4577,-1.4713,-1.4875,-1.4997,-1.4997,-1.7397,-2.0067,-2.2188,-2.4854,-2.7431,-2.9644,-2.9913,-2.9913,-2.9913,-2.7702,-2.6229,-2.6229,-2.4306,-2.3014,-2.3014,-2.3289,-2.4398,-2.6604,-2.4671,-2.3289,-2.2556,-2.3106,-2.2188,-1.9419,-2.2096,-2.3473,-2.3473,-2.0981,-1.9511,-1.8871,-1.6658,-1.5643,-1.5643,-1.5368,-1.5181,-1.5275,-1.5549,-1.6931,-1.8955,-1.9604,-2.1175,-2.2739,-2.0622,-1.99,-1.9599,-1.6936,-1.6007,-1.6237,-1.8319,-1.8906,-1.8833,-1.8979,-1.9045,-1.8614,-1.663,-1.6083,-1.6083,-1.6083,-1.6083,-1.6083,-1.6083,-1.6083,-1.6083,-1.6083,-1.6069,-1.6008,-1.5879,-1.5737,-1.5635,-1.5615,-1.5594,-1.5533,-1.5398,-1.5377,-1.533,-1.5201,-1.5181,-1.5181,-1.5181,-1.5181,-1.5181,-1.5181,-1.5181,-1.5181,-1.5181,-1.5181,-1.5181,-1.5181,-1.5181,-1.5181,-1.5181,-1.5181,-1.5181,-1.5181,-1.5181,-1.5181,-1.5181,-1.516,-1.5153,-1.0815,-1.163,-1.2407,-1.4658,-1.459,-1.4,-1.4217,-1.4333,-1.4414,-1.4482,-1.4611,-1.474,-1.4828,-1.6965,-1.9538,-2.1999,-2.4492,-2.7057,-2.9541,-2.9913,-2.9913,-2.9913,-2.7566,-2.6077,-2.6218,-2.3801,-2.2323,-2.2454,-2.2464,-2.3014,-2.4032,-2.4266,-2.3737,-2.2364,-2.3518,-2.3083,-2.0643,-2.173,-2.1608,-2.0272,-1.9375,-1.8135,-1.6752,-1.5737,-1.5181,-1.5181,-1.5181,-1.5181,-1.5181,-1.5181,-1.583,-1.6931,-1.8313,-1.9511,-2.0344,-1.9326,-1.8871,-1.8524,-1.6175,-1.5337,-1.5492,-1.6656,-1.7089,-1.7142,-1.7307,-1.7419,-1.7336,-1.6333,-1.6083,-1.6083,-1.6083,-1.6083,-1.6083,-1.6083,-1.6083,-1.6083,-1.6083,-1.6083,-1.6062,-1.5995,-1.5859,-1.5757,-1.5757,-1.5689,-1.5615,-1.5547,-1.5466,-1.5384,-1.5316,-1.5235,-1.5181,-1.5181,-1.5181,-1.5181,-1.5181,-1.5181,-1.5181,-1.5181,-1.5181,-1.5181,-1.5181,-1.5181,-1.5181,-1.5181,-1.5181,-1.5181,-1.5181,-1.5181,-1.5181,-1.5181,-1.5181,-1.5181,-1.1535,-1.1937,-1.2051,-1.4633,-1.443,-1.362,-1.3851,-1.4075,-1.4245,-1.4245,-1.436,-1.4489,-1.4604,-1.6219,-1.8615,-2.169,-2.3821,-2.6233,-2.9333,-2.9806,-2.9833,-2.9913,-2.7467,-2.5678,-2.5286,-2.2798,-2.1029,-2.0705,-2.0622,-2.0899,-2.1544,-2.3705,-2.3756,-2.1306,-2.3429,-2.3133,-2.011,-2.0191,-1.9374,-1.7628,-1.7805,-1.6971,-1.5126,-1.5167,-1.5181,-1.5181,-1.5181,-1.5181,-1.5181,-1.5181,-1.5181,-1.5368,-1.7211,-1.7949,-1.7949,-1.7949,-1.7949,-1.7678,-1.5873,-1.5215,-1.5281,-1.5967,-1.6248,-1.6378,-1.6544,-1.6695,-1.6755,-1.6234,-1.6083,-1.6083,-1.6083,-1.6083,-1.6083,-1.6083,-1.6083,-1.6083,-1.6083,-1.6083,-1.6083,-1.6083,-1.5988,-1.5913,-1.5913,-1.5825,-1.5737,-1.5696,-1.5594,-1.5513,-1.5472,-1.5337,-1.5242,-1.5242,-1.5208,-1.5181,-1.5181,-1.5181,-1.5181,-1.5181,-1.5181,-1.5181,-1.5181,-1.5181,-1.5181,-1.5181,-1.5181,-1.5181,-1.5181,-1.5181,-1.5181,-1.5181,-1.5181,-1.5181,-0.8611,-0.9264,-0.9896,-1.1303,-1.2224,-1.2901,-1.3336,-1.377,-1.4082,-1.4082,-1.4204,-1.4312,-1.4319,-1.4647,-1.6454,-2.1194,-2.2008,-2.3885,-2.8827,-2.9499,-2.9606,-2.9887,-2.7467,-2.4947,-2.2902,-2.0254,-1.7756,-1.5723,-1.5549,-1.6565,-1.8964,-2.1149,-2.1216,-1.8875,-2.0933,-1.9841,-1.5097,-1.5097,-1.5013,-1.4936,-1.5094,-1.5162,-1.4984,-1.512,-1.5181,-1.5181,-1.5181,-1.5181,-1.5181,-1.5181,-1.5181,-1.5181,-1.5368,-1.5368,-1.5368,-1.5368,-1.5368,-1.5389,-1.535,-1.5303,-1.5577,-1.8056,-1.8867,-1.8909,-1.9092,-1.9179,-1.8875,-1.6722,-1.6083,-1.6083,-1.6083,-1.6083,-1.6083,-1.6083,-1.6083,-1.6083,-1.6083,-1.6083,-1.6083,-1.6083,-1.6076,-1.6069,-1.6069,-1.6062,-1.6008,-1.5866,-1.5839,-1.5778,-1.5642,-1.5493,-1.5398,-1.5398,-1.5269,-1.5181,-1.5181,-1.5181,-1.5181,-1.5181,-1.5181,-1.5181,-1.5181,-1.5181,-1.5181,-1.5181,-1.5181,-1.5181,-1.5181,-1.5181,-1.5181,-1.5181,-1.5181,-1.5181,-0.8384,-0.896,-0.9612,-1.0575,-1.1423,-1.2135,-1.2589,-1.318,-1.3695,-1.3885,-1.4048,-1.4183,-1.4285,-1.4462,-1.619,-2.0969,-2.1797,-2.362,-2.8465,-2.9205,-2.9232,-2.9339,-2.6934,-2.516,-2.4677,-2.0786,-1.8093,-1.7654,-1.6104,-1.5549,-1.6471,-1.8492,-1.9942,-2.0563,-1.9839,-1.7876,-1.459,-1.459,-1.459,-1.4597,-1.4746,-1.4821,-1.4828,-1.4977,-1.5045,-1.5052,-1.5147,-1.5181,-1.5181,-1.5181,-1.5181,-1.5181,-1.5181,-1.5181,-1.5181,-1.5181,-1.5181,-1.5187,-1.5248,-1.5228,-1.5396,-1.6386,-1.6722,-1.6774,-1.7039,-1.7157,-1.7042,-1.6333,-1.6083,-1.6083,-1.6083,-1.6083,-1.6083,-1.6083,-1.6083,-1.6083,-1.6083,-1.6083,-1.6083,-1.6083,-1.6083,-1.6083,-1.6083,-1.6083,-1.6029,-1.5879,-1.5852,-1.5805,-1.5655,-1.5594,-1.5554,-1.5554,-1.5506,-1.5438,-1.5337,-1.533,-1.5289,-1.5187,-1.5181,-1.5181,-1.5181,-1.5181,-1.5181,-1.5181,-1.5181,-1.5181,-1.5181,-1.5181,-1.5181,-1.5181,-1.5181,-1.5181,-0.8018,-0.8513,-0.9137,-0.9985,-1.0575,-1.1165,-1.202,-1.2596,-1.3078,-1.3526,-1.3783,-1.3987,-1.4183,-1.4299,-1.569,-1.9771,-2.1126,-2.2842,-2.6112,-2.7196,-2.7408,-2.6784,-2.5045,-2.382,-2.3336,-2.0185,-1.8002,-1.766,-1.6076,-1.5181,-1.5181,-1.7894,-2.0073,-2.1511,-1.8458,-1.6099,-1.4509,-1.4509,-1.4489,-1.4441,-1.459,-1.4692,-1.4746,-1.4903,-1.4997,-1.5045,-1.514,-1.5181,-1.5181,-1.5181,-1.5181,-1.5181,-1.5181,-1.5181,-1.5181,-1.5181,-1.5181,-1.5181,-1.5181,-1.5215,-1.5276,-1.5377,-1.5479,-1.5594,-1.5791,-1.5886,-1.5954,-1.6056,-1.6083,-1.6083,-1.6083,-1.6083,-1.6083,-1.6083,-1.6083,-1.6083,-1.6083,-1.6083,-1.6083,-1.6083,-1.6083,-1.6083,-1.6083,-1.6083,-1.6049,-1.5947,-1.5934,-1.5893,-1.5798,-1.5744,-1.571,-1.571,-1.5669,-1.5601,-1.5499,-1.5486,-1.5445,-1.5343,-1.5337,-1.5337,-1.5337,-1.5289,-1.5262,-1.5262,-1.5208,-1.5181,-1.5181,-1.5181,-1.5181,-1.5181,-1.5181,-1.5181,0.0,0.0,0.0,-0.93,-0.9564,-0.9998,-1.1613,-1.1993,-1.2292,-1.2983,-1.3376,-1.3688,-1.4,-1.4061,-1.4887,-1.7285,-1.9566,-2.1292,-2.1689,-2.3653,-2.4266,-2.2371,-2.1852,-2.0754,-1.8557,-1.8223,-1.7227,-1.5135,-1.5099,-1.5174,-1.5174,-1.9244,-2.1531,-2.1321,-1.6991,-1.4606,-1.4516,-1.4516,-1.4441,-1.4299,-1.4441,-1.4584,-1.4733,-1.4889,-1.5038,-1.5167,-1.5181,-1.5181,-1.5181,-1.5181,-1.5181,-1.5181,-1.5181,-1.5181,-1.5181,-1.5181,-1.5181,-1.5181,-1.5187,-1.5289,-1.5411,-1.5418,-1.5615,-1.5852,-1.5859,-1.5961,-1.6083,-1.6083,-1.6083,-1.6083,-1.6083,-1.6083,-1.6083,-1.6083,-1.6083,-1.6083,-1.6083,-1.6083,-1.6083,-1.6083,-1.6083,-1.6083,-1.6083,-1.6083,-1.6083,-1.6076,-1.6076,-1.6076,-1.6076,-1.5947,-1.5852,-1.5957,-1.5737,-1.5649,-1.5649,-1.5649,-1.5642,-1.5642,-1.5642,-1.5642,-1.5642,-1.5499,-1.5418,-1.5411,-1.5262,-1.5187,-1.5181,-1.5181,-1.5181,-1.5181,-1.5181,-1.5181,-0.7394,0.0,0.0,0.0,0.0,0.0,-0.9917,-1.0436,-1.1009,-1.2128,-1.2522,-1.2881,-1.362,-1.3838,-1.4084,-1.4808,-1.7066,-1.9941,-2.3387,-2.2967,-2.2729,-2.3844,-2.0918,-1.8699,-1.819,-1.6526,-1.5355,-1.4794,-1.4943,-1.5031,-1.5031,-1.776,-1.9299,-1.9346,-1.796,-1.6378,-1.4679,-1.457,-1.4441,-1.4299,-1.434,-1.438,-1.4428,-1.4685,-1.4828,-1.4875,-1.5086,-1.5181,-1.5181,-1.5181,-1.5181,-1.5181,-1.5181,-1.5181,-1.5181,-1.5181,-1.5181,-1.5201,-1.5309,-1.5377,-1.5445,-1.5662,-1.5784,-1.5872,-1.5988,-1.6049,-1.6083,-1.6083,-1.6083,-1.6083,-1.6083,-1.6083,-1.6083,-1.6083,-1.6083,-1.6083,-1.6083,-1.6083,-1.6083,-1.6083,-1.6083,-1.6083,-1.6083,-1.6083,-1.6042,-1.5934,-1.592,-1.592,-1.592,-1.5879,-1.5893,-1.6008,-1.5981,-1.5913,-1.5805,-1.5791,-1.575,-1.5649,-1.5642,-1.5642,-1.5642,-1.5601,-1.552,-1.5411,-1.5371,-1.5296,-1.5181,-1.5181,-1.5181,-1.5181,-1.5181,-1.5181,-0.7597,0.0,0.0,-0.8221,0.0,0.0,-0.9578,-0.9856,-1.027,-1.1674,-1.2033,-1.2338,-1.3112,-1.3322,-1.3437,-1.3627,-1.4956,-1.7046,-1.9866,-1.9962,-1.9922,-2.0279,-1.7938,-1.6329,-1.6437,-1.5273,-1.455,-1.4638,-1.4787,-1.5328,-1.6231,-1.6682,-1.7337,-1.85,-1.7341,-1.6083,-1.474,-1.459,-1.4441,-1.4299,-1.4299,-1.4333,-1.4394,-1.4631,-1.4774,-1.4848,-1.5079,-1.5181,-1.5181,-1.5181,-1.5181,-1.5181,-1.5181,-1.5181,-1.5181,-1.5181,-1.5181,-1.5201,-1.5357,-1.5452,-1.5547,-1.5778,-1.59,-1.5967,-1.6056,-1.6083,-1.6083,-1.6083,-1.6083,-1.6083,-1.6083,-1.6083,-1.6083,-1.6083,-1.6083,-1.6083,-1.6083,-1.6083,-1.6083,-1.6083,-1.6083,-1.6083,-1.6083,-1.6083,-1.6049,-1.5961,-1.5947,-1.5947,-1.5947,-1.5947,-1.5981,-1.6076,-1.6083,-1.6042,-1.5954,-1.5947,-1.5913,-1.5832,-1.5825,-1.5825,-1.5825,-1.5764,-1.5655,-1.5506,-1.5445,-1.5337,-1.5181,-1.5181,-1.5181,-1.5181,-1.5181,-1.5181,-0.7929,-0.8011,0.0,0.0,-0.8303,0.0,-0.9822,-0.9829,-0.9876,-1.1274,-1.1572,-1.1775,-1.2413,-1.2576,-1.2725,-1.3091,-1.3376,-1.3753,-1.434,-1.6135,-1.6673,-1.4882,-1.4448,-1.4278,-1.4299,-1.4414,-1.4489,-1.4489,-1.4631,-1.5705,-1.8059,-1.6015,-1.5906,-1.8317,-1.6004,-1.476,-1.474,-1.459,-1.4441,-1.4299,-1.4299,-1.4367,-1.4496,-1.4645,-1.4801,-1.495,-1.5099,-1.5167,-1.5181,-1.5181,-1.5181,-1.5181,-1.5181,-1.5181,-1.5181,-1.5181,-1.5181,-1.5201,-1.5357,-1.5513,-1.5662,-1.5805,-1.5954,-1.6083,-1.6083,-1.6083,-1.6083,-1.6083,-1.6083,-1.6083,-1.6083,-1.6083,-1.6083,-1.6083,-1.6083,-1.6083,-1.6083,-1.6083,-1.6083,-1.6083,-1.6083,-1.6083,-1.6083,-1.6083,-1.6083,-1.6083,-1.6069,-1.6062,-1.6083,-1.6069,-1.6062,-1.6083,-1.6083,-1.6083,-1.6083,-1.6083,-1.6083,-1.6083,-1.6083,-1.6083,-1.6083,-1.5954,-1.5805,-1.5642,-1.5472,-1.5316,-1.5181,-1.5181,-1.5181,-1.5181,-1.5181,-1.5181,-0.8425,-0.8554,-0.8649,-0.8465,-0.854,0.0,-0.8384,-0.8526,-0.892,-0.97,-0.9958,-1.0304,-1.1069,-1.1592,-1.1782,-1.1626,-1.244,-1.3924,-1.6334,-1.5436,-1.5167,-1.6671,-1.5235,-1.4163,-1.4285,-1.4326,-1.434,-1.434,-1.4475,-1.5672,-1.8223,-1.6217,-1.6029,-1.8509,-1.6214,-1.4869,-1.474,-1.459,-1.4441,-1.4299,-1.4299,-1.4312,-1.4346,-1.4489,-1.4638,-1.4794,-1.4943,-1.5079,-1.5181,-1.5181,-1.5181,-1.5181,-1.5181,-1.5181,-1.5181,-1.5181,-1.5181,-1.5201,-1.5357,-1.5513,-1.5662,-1.5805,-1.5954,-1.6083,-1.6083,-1.6083,-1.6083,-1.6083,-1.6083,-1.6083,-1.6083,-1.6083,-1.6083,-1.6083,-1.6083,-1.6083,-1.6083,-1.6083,-1.6083,-1.6083,-1.6083,-1.6083,-1.6083,-1.6083,-1.6083,-1.6083,-1.5974,-1.594,-1.6069,-1.5974,-1.5947,-1.6069,-1.6083,-1.6083,-1.6083,-1.6083,-1.6083,-1.6083,-1.6083,-1.6083,-1.6083,-1.6056,-1.5913,-1.5642,-1.5371,-1.5215,-1.5181,-1.5181,-1.5181,-1.5181,-1.5181,-1.5181,-0.8811,-0.8818,-0.892,-0.8845,0.0,0.0,0.0,-0.8533,-0.8716,-0.9603,-0.9598,-0.9727,-1.048,-1.0677,-1.0799,-1.1023,-1.1748,-1.2825,-1.4464,-1.4206,-1.4293,-1.5474,-1.4636,-1.3987,-1.4061,-1.4143,-1.4217,-1.4292,-1.4367,-1.4998,-1.6392,-1.5412,-1.5315,-1.6567,-1.5413,-1.4706,-1.4624,-1.4482,-1.4373,-1.4299,-1.4299,-1.4299,-1.4306,-1.4523,-1.4665,-1.4753,-1.4977,-1.512,-1.5181,-1.5181,-1.5181,-1.5181,-1.5181,-1.5181,-1.5181,-1.5181,-1.5181,-1.5201,-1.5357,-1.5513,-1.5662,-1.5805,-1.5954,-1.6083,-1.6083,-1.6083,-1.6083,-1.6083,-1.6083,-1.6083,-1.6083,-1.6083,-1.6083,-1.6083,-1.6083,-1.6083,-1.6083,-1.6083,-1.6083,-1.6083,-1.6083,-1.6083,-1.6083,-1.6083,-1.6083,-1.6083,-1.6015,-1.5995,-1.6069,-1.6015,-1.5995,-1.6076,-1.6083,-1.6083,-1.6083,-1.6083,-1.6083,-1.6083,-1.6083,-1.6083,-1.6083,-1.6083,-1.594,-1.5642,-1.5411,-1.5255,-1.5181,-1.5181,-1.5181,-1.5181,-1.5181,-1.5181,-0.9215,-0.9161,-0.9293,-0.9327,0.0,-0.873,0.0,0.0,0.0,-0.951,-0.9401,-0.9327,-0.9842,-0.9781,-0.9829,-1.0321,-1.0995,-1.1463,-1.1647,-1.2651,-1.341,-1.3526,-1.3641,-1.3709,-1.3709,-1.3797,-1.396,-1.4197,-1.4129,-1.4183,-1.4414,-1.4482,-1.457,-1.4692,-1.4577,-1.4509,-1.4509,-1.4373,-1.4299,-1.4299,-1.4299,-1.4299,-1.4306,-1.4577,-1.4713,-1.4753,-1.5025,-1.516,-1.5181,-1.5181,-1.5181,-1.5181,-1.5181,-1.5181,-1.5181,-1.5181,-1.5181,-1.5201,-1.5357,-1.5513,-1.5662,-1.5805,-1.5954,-1.6083,-1.6083,-1.6083,-1.6083,-1.6083,-1.6083,-1.6083,-1.6083,-1.6083,-1.6083,-1.6083,-1.6083,-1.6083,-1.6083,-1.6083,-1.6083,-1.6083,-1.6083,-1.6083,-1.6083,-1.6083,-1.6083,-1.6083,-1.6083,-1.6083,-1.6083,-1.6083,-1.6083,-1.6083,-1.6083,-1.6083,-1.6083,-1.6083,-1.6083,-1.6083,-1.6083,-1.6083,-1.6083,-1.6056,-1.5913,-1.5642,-1.5486,-1.5337,-1.5181,-1.5181,-1.5181,-1.5181,-1.5181,-1.5181,0.0,0.0,0.0,0.0,-0.9678,0.0,0.0,0.0,-0.8608,-0.8271,0.0,-0.8511,-0.8648,0.0,0.0,-0.8791,-0.9808,-1.0541,-1.0247,-1.1084,-1.1864,-1.2406,-1.2929,-1.3247,-1.3247,-1.3152,-1.3308,-1.3851,-1.3526,-1.3539,-1.4095,-1.4367,-1.4523,-1.4536,-1.4523,-1.4509,-1.4509,-1.4373,-1.4299,-1.4299,-1.4299,-1.4299,-1.4306,-1.4468,-1.4611,-1.4746,-1.4923,-1.5065,-1.5181,-1.5181,-1.5181,-1.5181,-1.5181,-1.5181,-1.5181,-1.5181,-1.5181,-1.5201,-1.5357,-1.5513,-1.5662,-1.5805,-1.5954,-1.6083,-1.6083,-1.6083,-1.6083,-1.6083,-1.6083,-1.6083,-1.6083,-1.6083,-1.6083,-1.6083,-1.6083,-1.6083,-1.6083,-1.6083,-1.6083,-1.6083,-1.6083,-1.6083,-1.6083,-1.6083,-1.6083,-1.6083,-1.6083,-1.6083,-1.6083,-1.6083,-1.6083,-1.6083,-1.6083,-1.6083,-1.6083,-1.6083,-1.6083,-1.6083,-1.6083,-1.6083,-1.6083,-1.5954,-1.5805,-1.5642,-1.5486,-1.5337,-1.5181,-1.5181,-1.5181,-1.5181,-1.5181,-1.5181,0.0,0.0,0.0,0.0,0.0,0.0,-0.8574,0.0,-0.8316,0.0,0.0,0.0,0.0,0.0,0.0,0.0,-0.9232,-0.97,-0.9666,-1.029,-1.1002,-1.1687,-1.1837,-1.2013,-1.2359,-1.2501,-1.282,-1.341,-1.32,-1.3308,-1.3905,-1.4143,-1.4299,-1.4387,-1.4387,-1.4387,-1.4387,-1.4333,-1.4299,-1.4299,-1.4299,-1.4299,-1.4306,-1.4536,-1.4679,-1.4753,-1.4991,-1.5126,-1.5181,-1.5181,-1.5181,-1.5181,-1.5181,-1.5181,-1.5181,-1.5181,-1.5181,-1.5201,-1.5357,-1.5513,-1.5676,-1.5913,-1.6029,-1.6083,-1.6083,-1.6083,-1.6083,-1.6083,-1.6083,-1.6083,-1.6083,-1.6083,-1.6083,-1.6083,-1.6083,-1.6083,-1.6083,-1.6083,-1.6083,-1.6083,-1.6083,-1.6083,-1.6083,-1.6083,-1.6083,-1.6083,-1.6083,-1.6083,-1.6083,-1.6083,-1.6083,-1.6083,-1.7452,-1.8327,-1.8327,-1.979,-1.9987,-1.8426,-1.6963,-1.6083,-1.6083,-1.6022,-1.5913,-1.5764,-1.5703,-1.5554,-1.5316,-1.5316,-1.5269,-1.5181,-1.5181,-1.5181,-1.0507,0.0,0.0,0.0,0.0,0.0,0.0,0.0,0.0,0.0,0.0,0.0,0.0,0.0,0.0,0.0,0.0,-0.9207,-0.9137,-0.951,-1.0053,-1.0758,-1.0867,-1.1131,-1.1769,-1.185,-1.2155,-1.2874,-1.2684,-1.2861,-1.362,-1.3878,-1.4075,-1.4231,-1.4278,-1.4299,-1.4299,-1.4299,-1.4299,-1.4299,-1.4299,-1.4299,-1.4312,-1.4604,-1.474,-1.4753,-1.5052,-1.5181,-1.5181,-1.5181,-1.5181,-1.5181,-1.5181,-1.5181,-1.5181,-1.5181,-1.5208,-1.5269,-1.5418,-1.5601,-1.5798,-1.6008,-1.6083,-1.6083,-1.6083,-1.6083,-1.6083,-1.6083,-1.6083,-1.6083,-1.6083,-1.6083,-1.6083,-1.6083,-1.6083,-1.6083,-1.6083,-1.6083,-1.6083,-1.6083,-1.6083,-1.6083,-1.6083,-1.6083,-1.6083,-1.6083,-1.6083,-1.6083,-1.6083,-1.6083,-1.6374,-1.7055,-1.8912,-2.0273,-2.1049,-2.2799,-2.2809,-2.0175,-1.8228,-1.6864,-1.6083,-1.6083,-1.6008,-1.5859,-1.5852,-1.573,-1.5472,-1.5472,-1.5418,-1.5303,-1.5221,-1.5181,0.0,0.0,0.0,-0.9944,0.0,0.0,0.0,0.0,-0.8817,0.0,0.0,0.0,0.0,0.0,0.0,0.0,0.0,0.0,0.0,-0.8526,-0.8764,-0.9374,-1.0202,-1.1016,-1.1755,-1.1185,-1.1199,-1.2244,-1.1775,-1.1952,-1.3132,-1.3607,-1.3919,-1.4075,-1.4224,-1.4299,-1.4299,-1.4299,-1.4299,-1.4299,-1.4299,-1.4299,-1.4312,-1.4604,-1.474,-1.4753,-1.5052,-1.5181,-1.5181,-1.5181,-1.5181,-1.5181,-1.5181,-1.5181,-1.5181,-1.5181,-1.5276,-1.5425,-1.5581,-1.5825,-1.6069,-1.6076,-1.6083,-1.6083,-1.6083,-1.6083,-1.6083,-1.6083,-1.6083,-1.6083,-1.6083,-1.6083,-1.6083,-1.6083,-1.6083,-1.6083,-1.6083,-1.6083,-1.6083,-1.6083,-1.6083,-1.6083,-1.6083,-1.6083,-1.6083,-1.6083,-1.6083,-1.6083,-1.6083,-1.6083,-1.7055,-1.9585,-1.9978,-2.1049,-2.3588,-2.388,-2.2809,-2.0175,-1.988,-1.8714,-1.6182,-1.6083,-1.6008,-1.5859,-1.5852,-1.5778,-1.5635,-1.5635,-1.5628,-1.5615,-1.5323,-1.5181,0.0,0.0,-1.1809,-1.0758,0.0,0.0,0.0,0.0,0.0,0.0,0.0,0.0,0.0,0.0,0.0,0.0,0.0,0.0,0.0,-0.8018,-0.816,-0.8852,-0.9469,-0.9897,-1.0046,-1.0371,-1.0758,-1.1219,-1.1335,-1.1782,-1.2678,-1.3247,-1.3661,-1.3912,-1.4163,-1.4299,-1.4299,-1.4299,-1.4299,-1.4299,-1.4299,-1.4299,-1.4312,-1.4604,-1.474,-1.4753,-1.5052,-1.5181,-1.5181,-1.5181,-1.5181,-1.5181,-1.5181,-1.5181,-1.5181,-1.5181,-1.5276,-1.5445,-1.5696,-1.5913,-1.6083,-1.6083,-1.6083,-1.6083,-1.6083,-1.6083,-1.6083,-1.6083,-1.6083,-1.6083,-1.6083,-1.6083,-1.6083,-1.6083,-1.6083,-1.6083,-1.6083,-1.6083,-1.6083,-1.6083,-1.6083,-1.6083,-1.6083,-1.6083,-1.6083,-1.6083,-1.6083,-1.6083,-1.6083,-1.6083,-1.7055,-1.9683,-2.1539,-2.3686,-2.6216,-2.6505,-2.6119,-2.5238,-2.3578,-2.1441,-1.8813,-1.8714,-1.781,-1.6107,-1.6001,-1.5934,-1.5778,-1.5778,-1.573,-1.5635,-1.5533,-1.5432,-1.2603,-1.2603,0.0,-1.1558,-1.1084,0.0,-0.951,0.0,-0.9842,0.0,0.0,0.0,0.0,0.0,0.0,0.0,0.0,0.0,0.0,-0.7807,-0.7936,-0.8418,-0.8872,-0.9252,-0.9582,-0.9788,-1.0181,-1.0758,-1.0819,-1.1253,-1.221,-1.2888,-1.3376,-1.3675,-1.4082,-1.4299,-1.4299,-1.4299,-1.4299,-1.4299,-1.4299,-1.4326,-1.438,-1.4631,-1.4767,-1.4835,-1.5079,-1.5181,-1.5181,-1.5181,-1.5181,-1.5181,-1.5181,-1.5181,-1.5181,-1.5181,-1.5316,-1.5533,-1.5832,-1.6001,-1.6083,-1.6083,-1.6083,-1.6083,-1.6083,-1.6083,-1.6083,-1.6083,-1.6083,-1.6083,-1.6083,-1.6083,-1.6083,-1.6083,-1.6083,-1.6083,-1.6083,-1.6083,-1.6083,-1.6083,-1.6083,-1.6083,-1.6083,-1.6083,-1.6083,-1.6083,-1.6083,-1.6083,-1.6083,-1.6083,-1.7452,-2.1049,-2.2897,-2.5335,-2.8847,-2.923,-2.8752,-2.7876,-2.6216,-2.3686,-2.0175,-1.9978,-1.8813,-1.6182,-1.6083,-1.6035,-1.5934,-1.5934,-1.5886,-1.5798,-1.5744,-1.5662]},{"header":{"parameterUnit":"m.s-1","parameterCategory":1,"la1":30.6,"la2":29.2853,"lo1":-89.7004,"lo2":-87.6739,"dy":0.0162,"dx":0.0183,"nx":112,"ny":82,"refTime":"2026-03-29T00:00:00:Z","depth":0,"parameterNumber":3,"parameterNumberName":"V-component_of_WINDS"},"data":[0.0,0.0,0.0,0.0,0.0,0.0,0.0,0.0,0.0,0.0,0.0,0.0,0.0,0.0,0.0,0.0,0.0,0.0,0.0,0.0,0.0,0.0,0.0,0.0,0.0,0.0,0.0,0.0,0.0,0.0,0.0,0.0,0.0,0.0,0.0,0.0,0.0,0.0,0.0,0.0,0.0,0.0,0.0,0.0,0.0,0.0,0.0,0.0,0.0,0.0,0.0,0.0,0.0,0.0,0.0,0.0,0.0,0.0,0.0,0.0,0.0,0.0,0.0,0.0,0.0,0.0,0.0,0.0,0.0,0.0,0.0,0.0,0.0,0.0,0.0,0.0,0.0,0.0,0.0,0.0,0.0,0.0,0.0,0.0,0.0,0.0,0.0,0.0,0.0,0.0,3.3073,3.4761,3.8897,4.1292,4.0635,3.9952,3.7282,3.1882,0.0,0.0,0.0,0.0,0.0,0.0,0.0,0.0,0.0,0.0,0.0,0.0,0.0,0.0,0.0,0.0,0.0,0.0,0.0,0.0,0.0,0.0,0.0,0.0,0.0,0.0,0.0,0.0,0.0,0.0,0.0,0.0,0.0,0.0,0.0,0.0,0.0,0.0,0.0,0.0,0.0,0.0,0.0,0.0,0.0,0.0,0.0,0.0,0.0,0.0,0.0,0.0,0.0,0.0,0.0,0.0,0.0,0.0,0.0,0.0,0.0,0.0,0.0,0.0,0.0,0.0,0.0,0.0,0.0,0.0,0.0,0.0,0.0,0.0,0.0,0.0,0.0,0.0,0.0,0.0,0.0,0.0,0.0,0.0,0.0,0.0,0.0,0.0,0.0,0.0,0.0,0.0,0.0,0.0,0.0,0.0,0.0,0.0,0.0,0.0,0.0,0.0,0.0,0.0,3.3733,3.9371,4.2131,4.3073,4.1831,4.0636,3.787,3.2948,0.0,0.0,0.0,0.0,0.0,0.0,0.0,0.0,0.0,0.0,0.0,0.0,0.0,0.0,0.0,0.0,0.0,0.0,0.0,0.0,0.0,0.0,0.0,0.0,0.0,0.0,0.0,0.0,0.0,0.0,0.0,0.0,0.0,0.0,0.0,0.0,0.0,0.0,0.0,0.0,0.0,0.0,0.0,0.0,0.0,0.0,0.0,0.0,0.0,0.0,0.0,0.0,0.0,0.0,0.0,0.0,0.0,0.0,0.0,0.0,0.0,0.0,0.0,0.0,0.0,0.0,0.0,0.0,0.0,0.0,0.0,0.0,0.0,0.0,0.0,0.0,0.0,0.0,0.0,0.0,0.0,0.0,0.0,0.0,0.0,0.0,0.0,0.0,0.0,0.0,0.0,0.0,0.0,0.0,0.0,0.0,0.0,0.0,0.0,0.0,0.0,0.0,0.0,3.2485,3.5532,4.1148,4.3119,4.3459,4.2096,4.1206,3.8467,3.3224,3.0512,0.0,0.0,0.0,0.0,0.0,0.0,0.0,0.0,0.0,0.0,0.0,0.0,0.0,0.0,0.0,0.0,0.0,0.0,0.0,0.0,0.0,0.0,0.0,0.0,0.0,0.0,0.0,0.0,0.0,0.0,0.0,0.0,0.0,0.0,0.0,0.0,0.0,0.0,0.0,0.0,0.0,0.0,0.0,0.0,0.0,0.0,0.0,0.0,0.0,0.0,0.0,0.0,0.0,0.0,0.0,0.0,0.0,0.0,0.0,0.0,0.0,0.0,0.0,0.0,0.0,0.0,0.0,0.0,0.0,0.0,0.0,0.0,0.0,0.0,0.0,0.0,0.0,0.0,0.0,0.0,0.0,0.0,0.0,0.0,0.0,0.0,0.0,0.0,0.0,0.0,0.0,0.0,0.0,0.0,0.0,0.0,0.0,0.0,0.0,0.0,0.0,0.0,3.5973,3.7793,4.2103,4.3509,4.3559,4.2096,4.1081,3.8346,3.3224,2.9967,0.0,0.0,0.0,0.0,0.0,0.0,0.0,0.0,0.0,0.0,0.0,0.0,0.0,0.0,0.0,0.0,0.0,0.0,0.0,0.0,0.0,0.0,0.0,0.0,0.0,0.0,0.0,0.0,0.0,0.0,0.0,0.0,0.0,0.0,0.0,0.0,0.0,0.0,0.0,0.0,0.0,0.0,0.0,0.0,0.0,0.0,0.0,0.0,0.0,0.0,0.0,0.0,0.0,0.0,0.0,0.0,0.0,0.0,0.0,0.0,0.0,0.0,0.0,0.0,0.0,0.0,0.0,0.0,0.0,0.0,0.0,0.0,0.0,0.0,0.0,0.0,0.0,0.0,0.0,0.0,0.0,0.0,0.0,0.0,0.0,0.0,0.0,0.0,0.0,0.0,0.0,0.0,0.0,0.0,0.0,0.0,0.0,0.0,0.0,0.0,0.0,0.0,3.7221,4.0561,4.3147,4.4102,4.3843,4.2159,3.969,3.6724,3.3122,2.8269,0.0,0.0,0.0,0.0,0.0,0.0,0.0,0.0,0.0,0.0,0.0,0.0,0.0,0.0,0.0,0.0,0.0,0.0,0.0,0.0,0.0,0.0,0.0,0.0,0.0,0.0,0.0,0.0,0.0,0.0,0.0,0.0,0.0,0.0,0.0,0.0,0.0,0.0,0.0,0.0,0.0,0.0,0.0,0.0,0.0,0.0,0.0,0.0,0.0,0.0,0.0,0.0,0.0,0.0,0.0,0.0,0.0,0.0,0.0,0.0,0.0,0.0,0.0,0.0,0.0,0.0,0.0,0.0,0.0,0.0,0.0,0.0,0.0,0.0,0.0,0.0,0.0,0.0,0.0,0.0,0.0,0.0,0.0,0.0,0.0,0.0,0.0,0.0,0.0,0.0,0.0,0.0,0.0,0.0,0.0,0.0,0.0,0.0,0.0,0.0,0.0,0.0,3.6927,4.0341,4.3474,4.4261,4.4197,4.3191,4.1417,3.8469,3.3968,0.0,0.0,0.0,0.0,0.0,0.0,0.0,0.0,0.0,0.0,0.0,0.0,0.0,0.0,0.0,0.0,0.0,0.0,0.0,0.0,0.0,0.0,0.0,0.0,0.0,0.0,0.0,0.0,0.0,0.0,0.0,0.0,0.0,0.0,0.0,0.0,0.0,0.0,0.0,0.0,0.0,0.0,0.0,0.0,0.0,0.0,0.0,0.0,0.0,0.0,0.0,0.0,0.0,0.0,0.0,0.0,0.0,0.0,0.0,0.0,0.0,0.0,0.0,0.0,0.0,0.0,0.0,0.0,0.0,0.0,0.0,0.0,0.0,0.0,0.0,0.0,0.0,0.0,0.0,0.0,0.0,0.0,0.0,0.0,0.0,0.0,0.0,0.0,0.0,0.0,0.0,0.0,0.0,0.0,0.0,0.0,0.0,0.0,0.0,0.0,0.0,0.0,3.3476,3.7425,4.111,4.4094,4.4845,4.4898,4.4282,4.2247,3.9046,3.4475,0.0,0.0,0.0,0.0,0.0,0.0,0.0,0.0,0.0,0.0,0.0,0.0,0.0,0.0,0.0,0.0,0.0,0.0,0.0,0.0,0.0,0.0,0.0,0.0,0.0,0.0,0.0,0.0,0.0,0.0,0.0,0.0,0.0,0.0,0.0,0.0,0.0,0.0,0.0,0.0,0.0,0.0,0.0,0.0,0.0,0.0,0.0,0.0,0.0,0.0,0.0,0.0,0.0,0.0,0.0,0.0,0.0,0.0,0.0,0.0,0.0,0.0,0.0,0.0,0.0,0.0,0.0,0.0,0.0,0.0,0.0,0.0,0.0,0.0,0.0,0.0,0.0,0.0,0.0,0.0,0.0,0.0,0.0,0.0,0.0,0.0,0.0,0.0,0.0,0.0,0.0,0.0,0.0,0.0,0.0,0.0,0.0,0.0,0.0,0.0,0.0,0.0,3.3733,3.9087,4.3469,4.514,4.5899,4.6004,4.5192,4.1566,3.7899,0.0,0.0,0.0,0.0,0.0,0.0,0.0,0.0,0.0,0.0,0.0,0.0,0.0,0.0,0.0,0.0,0.0,0.0,0.0,0.0,0.0,0.0,0.0,0.0,0.0,0.0,0.0,0.0,0.0,0.0,0.0,0.0,0.0,0.0,0.0,0.0,0.0,0.0,0.0,0.0,0.0,0.0,0.0,0.0,0.0,0.0,0.0,0.0,0.0,0.0,0.0,0.0,0.0,0.0,0.0,0.0,0.0,0.0,0.0,0.0,0.0,0.0,0.0,0.0,0.0,0.0,0.0,0.0,0.0,0.0,0.0,0.0,0.0,0.0,0.0,0.0,0.0,0.0,0.0,0.0,0.0,0.0,0.0,0.0,0.0,0.0,0.0,0.0,0.0,0.0,0.0,0.0,0.0,0.0,0.0,0.0,0.0,0.0,0.0,0.0,0.0,0.0,0.0,3.5385,4.083,4.5043,4.6356,4.691,4.6969,4.6426,4.3658,4.0008,3.543,0.0,0.0,0.0,0.0,0.0,0.0,0.0,0.0,0.0,0.0,0.0,0.0,0.0,0.0,0.0,0.0,0.0,0.0,0.0,0.0,0.0,0.0,0.0,0.0,0.0,0.0,0.0,0.0,0.0,0.0,0.0,0.0,0.0,0.0,0.0,0.0,0.0,0.0,0.0,0.0,0.0,0.0,0.0,0.0,0.0,0.0,0.0,0.0,0.0,0.0,0.0,0.0,0.0,0.0,0.0,0.0,0.0,0.0,0.0,0.0,0.0,0.0,0.0,0.0,0.0,0.0,0.0,0.0,0.0,0.0,0.0,0.0,0.0,0.0,0.0,0.0,0.0,0.0,0.0,0.0,0.0,0.0,0.0,0.0,0.0,0.0,0.0,0.0,0.0,0.0,0.0,0.0,0.0,0.0,0.0,0.0,0.0,0.0,0.0,0.0,0.0,0.0,3.63,4.1759,4.6069,4.7592,4.8075,4.8199,4.7914,4.5547,4.1931,3.6808,0.0,0.0,0.0,0.0,0.0,0.0,0.0,0.0,0.0,0.0,0.0,0.0,0.0,0.0,0.0,0.0,0.0,0.0,0.0,0.0,0.0,0.0,0.0,0.0,0.0,0.0,0.0,0.0,0.0,0.0,0.0,0.0,0.0,0.0,0.0,0.0,0.0,0.0,0.0,0.0,0.0,0.0,0.0,0.0,0.0,0.0,0.0,0.0,0.0,0.0,0.0,0.0,0.0,0.0,0.0,0.0,0.0,0.0,0.0,0.0,0.0,0.0,0.0,0.0,0.0,0.0,0.0,0.0,0.0,0.0,0.0,0.0,0.0,0.0,0.0,0.0,0.0,0.0,0.0,0.0,0.0,0.0,0.0,0.0,0.0,0.0,0.0,0.0,0.0,0.0,0.0,0.0,0.0,0.0,0.0,0.0,0.0,0.0,0.0,0.0,0.0,0.0,3.6746,4.2271,4.6783,4.8767,4.9311,4.9471,4.9394,4.7124,4.3594,3.8546,0.0,0.0,0.0,0.0,0.0,0.0,0.0,0.0,0.0,0.0,0.0,0.0,0.0,0.0,0.0,0.0,0.0,0.0,0.0,0.0,0.0,0.0,0.0,0.0,0.0,0.0,0.0,0.0,0.0,0.0,0.0,0.0,0.0,0.0,0.0,0.0,0.0,0.0,0.0,0.0,0.0,0.0,0.0,0.0,0.0,0.0,0.0,0.0,0.0,0.0,0.0,0.0,0.0,0.0,0.0,0.0,0.0,0.0,0.0,0.0,4.4334,4.1329,0.0,0.0,0.0,0.0,0.0,0.0,0.0,0.0,0.0,0.0,0.0,0.0,0.0,0.0,0.0,0.0,0.0,0.0,0.0,0.0,0.0,0.0,0.0,0.0,0.0,0.0,0.0,0.0,0.0,0.0,0.0,0.0,0.0,0.0,0.0,0.0,0.0,0.0,0.0,0.0,3.8022,4.3858,4.8163,4.9277,4.9985,5.0164,4.9471,4.7702,4.4739,4.0246,3.6014,0.0,0.0,0.0,0.0,0.0,0.0,0.0,0.0,0.0,0.0,0.0,0.0,0.0,0.0,0.0,0.0,0.0,0.0,0.0,0.0,0.0,0.0,0.0,0.0,0.0,0.0,0.0,0.0,0.0,0.0,0.0,0.0,0.0,0.0,0.0,0.0,0.0,0.0,0.0,0.0,0.0,0.0,0.0,0.0,0.0,0.0,0.0,0.0,0.0,0.0,0.0,0.0,0.0,0.0,0.0,0.0,0.0,0.0,0.0,4.9637,4.6413,0.0,0.0,0.0,0.0,0.0,0.0,0.0,0.0,0.0,0.0,0.0,0.0,0.0,0.0,0.0,0.0,0.0,0.0,0.0,0.0,0.0,0.0,0.0,0.0,0.0,0.0,0.0,0.0,0.0,0.0,0.0,0.0,0.0,0.0,0.0,0.0,0.0,0.0,0.0,0.0,3.9577,4.4872,4.8764,4.9948,5.0462,5.0519,5.0048,4.8856,4.6432,4.2555,3.913,0.0,0.0,0.0,0.0,0.0,0.0,0.0,0.0,0.0,0.0,0.0,0.0,0.0,0.0,0.0,0.0,0.0,0.0,0.0,0.0,0.0,0.0,0.0,0.0,0.0,0.0,0.0,0.0,0.0,0.0,0.0,0.0,0.0,0.0,0.0,0.0,0.0,0.0,0.0,0.0,0.0,0.0,0.0,0.0,0.0,0.0,0.0,0.0,0.0,0.0,0.0,0.0,0.0,5.8584,5.9465,6.0126,6.0676,6.0946,6.0835,5.6051,5.3225,5.1903,4.9681,0.0,0.0,0.0,0.0,0.0,0.0,0.0,0.0,0.0,0.0,0.0,0.0,0.0,0.0,0.0,0.0,0.0,0.0,0.0,0.0,0.0,0.0,4.4342,4.4856,4.6104,4.5533,3.9497,0.0,0.0,0.0,0.0,0.0,0.0,0.0,0.0,0.0,0.0,0.0,4.1304,4.5988,4.9389,5.0593,5.0845,5.0856,5.0712,4.9894,4.8125,4.5163,4.2431,3.8938,0.0,0.0,0.0,0.0,0.0,0.0,0.0,0.0,0.0,0.0,0.0,0.0,0.0,0.0,0.0,0.0,0.0,0.0,0.0,0.0,0.0,0.0,0.0,0.0,0.0,0.0,0.0,0.0,0.0,0.0,0.0,0.0,4.6103,4.7076,0.0,0.0,0.0,0.0,0.0,0.0,0.0,0.0,0.0,0.0,0.0,0.0,0.0,5.8364,5.9281,6.3025,6.4971,6.5081,6.7283,6.8385,6.8458,6.7907,6.8017,6.8568,6.7136,0.0,5.6969,5.5941,0.0,0.0,0.0,0.0,0.0,0.0,0.0,0.0,0.0,0.0,0.0,0.0,0.0,0.0,0.0,0.0,0.0,0.0,0.0,0.0,0.0,0.0,5.161,5.1022,5.1573,5.1793,5.0144,4.4506,3.9217,3.7273,3.5636,3.4001,0.0,0.0,0.0,0.0,0.0,0.0,4.2945,4.8069,5.1322,5.0752,5.1312,5.1471,5.075,4.9894,4.8894,4.7663,4.4547,4.1777,3.9592,3.5668,0.0,0.0,0.0,0.0,0.0,0.0,0.0,0.0,0.0,0.0,0.0,0.0,0.0,0.0,0.0,0.0,0.0,0.0,0.0,0.0,0.0,0.0,0.0,0.0,0.0,0.0,0.0,0.0,0.0,4.5617,4.8247,4.8947,4.9517,4.882,0.0,0.0,0.0,0.0,0.0,0.0,0.0,0.0,0.0,6.1594,6.3172,6.5007,6.7173,6.9412,7.077,7.1248,7.2753,7.3707,7.4147,7.3751,7.3817,7.4147,7.378,7.1284,6.7136,6.2218,5.8804,5.6345,0.0,0.0,0.0,0.0,5.1353,5.1059,5.3665,5.4268,5.3534,5.1389,0.0,0.0,0.0,0.0,0.0,0.0,0.0,4.7865,4.9664,5.2344,5.4693,5.5244,5.5647,5.5684,5.4876,5.1638,4.7408,4.2636,4.1278,3.9339,3.4441,3.451,0.0,0.0,0.0,4.3111,4.5131,4.9022,5.156,5.1405,5.1285,5.1179,5.1052,5.027,4.9503,4.8885,4.7009,4.5163,4.344,3.9746,3.6546,0.0,0.0,0.0,0.0,0.0,0.0,0.0,0.0,0.0,0.0,0.0,0.0,0.0,0.0,0.0,0.0,0.0,0.0,0.0,0.0,0.0,0.0,0.0,0.0,0.0,0.0,0.0,0.0,4.8935,5.1173,5.1385,5.3246,5.2931,0.0,0.0,0.0,0.0,0.0,0.0,5.9501,6.1337,6.4273,6.8531,6.9633,7.1394,7.4037,7.5065,7.5763,7.6166,7.6974,7.7561,7.7965,7.7965,7.7965,7.7965,7.7965,7.7157,7.5322,6.8201,6.4237,6.2218,5.8621,5.7042,5.6932,5.7556,5.7409,5.7336,6.0529,6.1263,6.0382,5.796,5.6638,5.495,4.9701,0.0,0.0,0.0,0.0,5.238,5.5207,5.6528,5.7446,5.8621,5.8914,5.8694,5.7886,5.7079,5.462,4.8122,4.6793,4.4749,3.8577,3.889,0.0,3.8561,4.2184,4.5786,4.7777,5.0434,5.2136,5.2219,5.179,5.1447,5.132,5.0747,5.0203,4.9769,4.8894,4.7855,4.6633,4.3517,4.07,3.8392,0.0,0.0,0.0,0.0,0.0,0.0,0.0,0.0,0.0,0.0,0.0,0.0,0.0,0.0,0.0,0.0,0.0,0.0,0.0,0.0,0.0,0.0,0.0,0.0,0.0,0.0,0.0,0.0,0.0,5.6528,5.9208,0.0,0.0,0.0,0.0,5.8487,6.0946,6.3759,6.6953,6.9412,7.1843,7.4404,7.5989,7.7304,7.8295,7.9837,8.0277,7.9543,8.0351,8.0351,7.9653,7.9653,7.9653,7.9653,7.9653,7.9176,7.8075,7.378,7.0624,6.8238,6.5742,6.4273,6.3613,6.3649,6.3649,6.3759,6.4714,6.5044,6.4971,6.4824,6.2658,5.9758,5.7886,5.6271,0.0,0.0,5.6308,5.796,5.9648,6.0713,6.13,6.141,6.141,6.119,6.0382,5.9612,5.779,5.357,5.1136,4.889,4.6162,0.0,4.5086,4.4718,4.6834,4.9096,5.0925,5.3019,5.4037,5.3208,5.3438,5.3009,5.1421,5.1269,5.1071,5.0654,4.9817,4.9317,4.9202,4.671,4.4517,4.2816,3.8507,0.0,0.0,0.0,0.0,0.0,0.0,0.0,0.0,0.0,0.0,0.0,0.0,0.0,0.0,0.0,0.0,0.0,0.0,0.0,0.0,0.0,0.0,0.0,0.0,0.0,0.0,0.0,0.0,6.141,6.4347,0.0,6.2548,6.3429,6.431,6.464,6.7871,7.077,7.2973,7.4955,7.7121,7.9507,8.0681,8.1636,8.2443,8.303,8.292,8.215,8.292,8.2627,8.1342,8.1893,8.1819,8.1342,8.1342,8.0901,8.0021,7.8589,7.5909,7.2532,7.0082,6.9009,6.8752,6.8752,6.8752,6.8788,6.9082,6.9165,6.8935,6.7357,6.464,6.1851,6.1263,6.0346,5.9575,6.0089,6.1043,6.2181,6.3282,6.3759,6.398,6.398,6.398,6.3613,6.2254,6.1741,6.0762,5.8327,5.5536,5.2555,4.9267,4.9268,4.9176,4.7653,4.9806,5.1627,5.178,5.3361,5.4204,5.3659,5.3249,5.3006,5.292,5.1942,5.135,5.1452,5.0702,5.025,5.025,4.8817,4.6971,4.4748,4.1585,3.7777,0.0,0.0,0.0,0.0,0.0,0.0,0.0,0.0,0.0,0.0,0.0,0.0,0.0,0.0,0.0,0.0,0.0,0.0,0.0,0.0,0.0,0.0,0.0,0.0,0.0,6.0162,6.4567,6.5962,6.9192,7.0477,6.8348,6.9853,7.1064,7.1358,7.4074,7.657,7.8479,7.9617,8.1085,8.2957,8.3251,8.3654,8.4205,8.4205,8.3801,8.2994,8.3801,8.3508,8.2223,8.2737,8.27,8.2186,8.1893,8.1489,8.0975,8.0424,7.8589,7.5983,7.4074,7.3156,7.2899,7.2606,7.2504,7.2504,7.2504,7.2137,7.1431,6.9853,6.7467,6.5228,6.4934,6.4677,6.453,6.4787,6.5264,6.5852,6.6402,6.6329,6.6035,6.5778,6.5705,6.5338,6.3943,6.3429,6.2842,6.1484,5.8621,5.5551,5.2759,5.2803,5.261,5.0895,5.2561,5.3876,5.3474,5.4343,5.4909,5.4633,5.4016,5.3762,5.3969,5.2627,5.177,5.1903,5.1125,5.0558,5.0289,4.9702,4.8355,4.6086,4.3239,3.9585,3.5045,0.0,0.0,0.0,0.0,0.0,0.0,0.0,0.0,0.0,0.0,0.0,0.0,0.0,0.0,0.0,0.0,0.0,0.0,0.0,0.0,0.0,0.0,0.0,6.0566,6.5485,6.9412,7.0257,7.3854,7.5689,7.4147,7.4698,7.6166,7.8516,7.9433,8.0938,8.3287,8.3398,8.3765,8.4572,8.3838,8.3471,8.3471,8.3471,8.303,8.226,8.3067,8.2994,8.2186,8.2223,8.2223,8.215,8.1379,8.1012,8.0901,7.9323,7.8662,7.8552,7.7671,7.6827,7.6056,7.5285,7.4955,7.4955,7.4955,7.3891,7.2569,7.2569,7.1468,7.0036,6.9229,6.9486,6.9926,6.9155,6.8935,6.8935,6.8935,6.8348,6.754,6.6769,6.6549,6.6329,6.5521,6.4714,6.387,6.3025,6.0272,5.785,5.7042,5.6198,5.539,5.4583,5.5133,0.0,5.6117,5.6214,5.6214,5.6196,5.5896,5.5357,5.4528,5.3338,5.2435,5.198,5.1125,5.0289,4.9471,4.9394,4.8625,4.6962,4.3577,4.0192,3.6808,0.0,0.0,0.0,0.0,0.0,0.0,0.0,0.0,0.0,0.0,0.0,0.0,0.0,0.0,0.0,0.0,0.0,0.0,0.0,0.0,0.0,6.1374,6.464,6.4053,6.9339,7.4001,7.6019,7.8772,8.0571,8.0718,8.0938,8.1122,8.1195,8.1966,8.27,8.3361,8.3398,8.3765,8.4572,8.4389,8.4278,8.4278,8.4278,8.3875,8.3104,8.3911,8.3544,8.2223,8.281,8.2737,8.2186,8.1966,8.1525,8.0975,8.0534,7.9984,7.9323,7.7892,7.7163,7.6937,7.6723,7.6276,7.5763,7.5763,7.5102,7.4147,7.356,7.2679,7.1688,7.0881,7.0403,7.0036,6.9816,6.9779,6.9779,6.9779,6.9155,6.8495,6.8311,6.7797,6.7136,6.6329,6.5558,6.4751,6.3906,6.2034,6.0162,5.8804,5.7886,5.7079,5.6271,5.6345,5.6279,5.5828,5.627,5.6531,5.6231,5.6107,5.5986,5.5783,5.4351,5.3301,5.2874,5.0894,4.9933,5.0327,4.974,4.8894,4.7778,4.447,4.1662,0.0,0.0,0.0,0.0,0.0,0.0,0.0,0.0,0.0,0.0,0.0,0.0,0.0,0.0,0.0,0.0,0.0,0.0,0.0,0.0,0.0,0.0,6.7136,7.0844,7.1762,7.4808,7.8002,8.0791,8.2039,8.303,8.3838,8.3287,8.2847,8.27,8.3141,8.3581,8.3875,8.3911,8.4132,8.4609,8.4278,8.4278,8.4609,8.3948,8.3544,8.3398,8.3544,8.3104,8.2223,8.27,8.2627,8.2186,8.1819,8.1232,8.0461,8.0131,7.9507,7.8699,0.0,0.0,0.0,0.0,7.698,7.6607,7.6607,7.6093,7.5322,7.4845,7.3927,7.2936,7.2459,7.1725,7.1101,7.1101,7.0881,7.0587,7.0587,7.0,6.9339,6.8972,6.8531,6.7981,6.7173,6.6366,6.5668,6.5191,6.3759,0.0,6.0909,5.9758,5.8731,5.7923,5.779,5.7519,5.6712,5.7005,5.7191,5.7001,5.682,5.6743,5.6765,5.5102,0.0,0.0,0.0,5.0197,5.0164,4.9317,0.0,0.0,0.0,0.0,0.0,0.0,0.0,0.0,3.9008,3.8777,0.0,0.0,0.0,0.0,0.0,0.0,0.0,0.0,0.0,0.0,0.0,0.0,0.0,0.0,0.0,0.0,7.2936,7.7671,8.0938,8.0865,8.1489,8.4278,8.4058,8.3911,8.4535,8.3324,8.2737,8.3361,8.3398,8.3765,8.4572,8.4425,0.0,0.0,0.0,8.3801,8.4609,8.3177,8.2774,8.3398,8.27,8.2296,8.2186,8.2186,8.2186,8.215,8.1452,8.0681,7.9874,7.914,7.8332,7.7494,7.8185,7.8442,7.8369,7.7567,7.7273,7.7273,7.7273,0.0,0.0,7.613,7.5139,7.3927,7.3854,7.3266,7.2642,7.2642,7.2055,7.1439,7.1439,7.0844,7.0073,6.9339,6.9119,6.8825,6.8017,6.721,6.6623,6.6512,6.5264,6.3943,6.3099,6.163,6.0272,5.9441,5.9331,5.9074,5.8364,5.818,5.8143,5.8143,5.774,0.0,5.7387,5.5692,5.4381,5.3892,5.2296,5.082,4.9643,4.8962,4.8587,4.8548,4.8548,4.8471,4.8394,4.8471,4.8548,4.8394,4.297,4.2008,0.0,0.0,0.0,0.0,0.0,0.0,0.0,0.0,0.0,0.0,0.0,0.0,0.0,0.0,0.0,7.1725,7.6203,8.0204,8.3434,8.4315,8.4609,8.4609,8.5049,8.5123,8.4646,8.4315,8.3948,8.3471,8.3398,8.3765,8.4572,8.3361,8.3544,8.549,8.4168,8.3801,8.4609,8.4278,8.3911,8.3398,8.3251,0.0,8.2186,8.2186,8.2186,8.2186,8.2039,8.1525,8.0755,8.0608,7.969,7.8295,7.7781,7.753,7.753,7.7347,7.7273,7.7273,7.7273,7.72,7.6943,7.6313,7.5873,7.5506,7.4882,7.4111,0.0,7.345,7.2899,7.2275,7.2275,7.1688,7.1027,7.0852,7.033,6.9633,6.8825,6.8017,6.7283,6.6623,6.5705,6.4824,6.398,6.2475,6.108,6.0309,6.0162,6.0126,5.9979,5.9391,5.8964,5.8964,5.8309,5.7743,5.7421,5.6441,5.5396,5.4365,5.2696,5.1523,5.0973,5.1431,5.1561,5.1154,5.1154,5.0856,5.0212,5.0856,5.1154,5.1115,4.8625,4.7778,0.0,0.0,0.0,0.0,0.0,0.0,0.0,0.0,0.0,0.0,0.0,6.13,6.4127,0.0,7.2642,7.668,8.0094,8.2884,8.4903,8.5894,8.6114,8.5306,8.5196,8.4866,8.4095,8.3654,8.3214,8.2847,8.3177,8.3581,8.3985,8.3618,8.3948,8.5159,8.4425,8.4389,8.5196,8.4792,8.4389,8.4022,8.3618,8.2994,8.2186,8.2186,8.2186,8.2186,8.2186,8.1746,8.0975,8.0571,7.969,7.8552,7.8112,7.7708,7.7273,7.7273,7.7273,7.7273,7.7273,7.7273,7.7237,7.6827,7.6166,7.5506,7.5506,7.4661,7.378,7.4184,7.3707,7.3083,7.3083,7.2496,7.1798,7.1431,7.0991,7.0477,6.9669,6.8862,6.8164,6.7797,6.6733,6.5778,6.5375,6.4273,6.2879,6.1263,6.1006,6.086,6.0456,6.0052,5.9795,5.9795,5.9428,5.9141,5.8932,5.7612,5.618,5.4777,5.3687,5.312,5.3148,5.3581,5.3797,5.3808,5.3818,5.3587,5.3203,5.3626,5.4049,5.4434,5.3587,5.251,0.0,0.0,0.0,0.0,0.0,0.0,0.0,5.6895,5.8437,6.1019,6.4163,6.7467,7.0881,7.4551,7.8075,8.1195,8.3471,8.5123,8.593,8.6591,8.6664,8.5673,8.4976,8.4278,8.3508,8.2663,8.226,8.2406,8.303,8.3544,8.3875,8.4352,8.4756,8.5049,8.4903,8.5233,8.604,8.538,8.4903,8.4609,8.3948,8.3141,8.2186,8.2186,8.2186,8.2186,8.2186,8.1819,8.1158,8.0351,7.9653,7.9029,7.8736,7.8185,7.753,7.7347,7.7273,7.7273,7.7273,7.7273,7.7273,7.709,7.6203,7.5249,7.5909,7.5102,7.4111,7.4918,7.4551,7.3927,7.3927,7.334,7.2569,7.1945,7.1651,7.1321,7.0513,6.9816,6.9265,6.8972,6.7871,6.688,6.6549,6.5962,6.4751,6.2438,6.2071,6.1777,6.097,6.075,6.0639,6.0639,6.0493,6.0419,6.0419,5.8762,5.7204,5.5906,5.5193,5.5011,5.5575,5.5451,5.5631,5.6203,5.6203,5.6203,5.6203,5.6203,5.6549,5.7253,5.7253,5.6165,5.2858,5.205,5.3151,5.4546,5.5647,5.8107,0.0,6.5668,6.6182,6.9275,7.2532,7.5102,7.6276,7.8662,8.1269,8.3801,8.5013,8.593,8.6775,8.6958,8.6444,8.4903,8.4646,8.4278,8.3508,8.2663,8.248,8.3214,8.3361,8.4022,8.5453,8.4939,8.527,8.6701,8.604,8.604,8.6885,8.6775,8.6004,8.4609,8.4499,8.3654,8.2186,8.2186,8.2186,8.2186,8.2186,8.215,8.2003,8.1195,8.0828,8.0608,7.9176,7.8552,7.8369,7.7567,7.7273,7.7273,7.7273,7.7273,7.7163,7.646,7.613,7.5983,7.6056,7.5469,7.4955,7.5726,7.5395,7.4771,7.4771,7.4184,7.3523,7.345,7.2899,7.2165,7.1358,7.1101,7.0624,6.9192,6.8752,6.8201,6.6733,6.6439,6.5778,6.409,6.3796,6.3503,6.2658,6.1924,6.1484,6.1484,6.0823,6.0419,6.0419,5.9549,5.8911,5.8727,5.7361,5.6911,5.7729,5.7062,5.7095,5.8,5.8011,5.8011,5.8011,5.8011,5.805,5.8165,5.8165,5.8011,5.8217,5.7813,5.8694,6.13,6.3246,6.5595,6.9596,7.0954,7.2055,7.4301,7.6644,7.8479,7.9323,8.1452,8.3434,8.4425,8.5673,8.6628,8.6958,8.6591,8.5894,8.4756,8.4609,8.4095,8.2847,8.2406,8.2333,8.27,8.3581,8.4389,8.5086,8.5673,8.6334,8.6995,8.6664,8.6664,8.6995,8.6995,8.6444,8.527,8.4829,8.4022,8.2884,8.2406,8.2186,8.2186,8.2186,8.2186,8.215,8.1819,8.1415,8.0938,8.0277,7.969,7.914,7.7818,7.7273,7.7273,7.7273,7.7273,7.7237,7.6937,7.6497,7.6203,7.668,7.624,7.5763,7.657,7.624,7.5616,7.5616,7.4992,7.4294,7.3817,7.345,7.2973,7.2165,7.1651,7.1073,7.044,6.9559,6.8678,6.8017,6.7504,6.6806,6.5668,6.5081,6.4677,6.431,6.3539,6.2842,6.2365,6.1998,6.163,6.1153,6.0786,6.0419,5.9942,5.9281,5.9169,5.983,5.9513,5.9662,6.0319,6.0647,6.0811,6.0811,6.1057,6.1204,6.1204,6.1204,6.1204,6.0676,6.1741,6.3576,6.6182,6.9302,7.2129,7.3523,7.5102,7.6644,7.8007,7.947,8.0718,8.1525,8.3104,8.4425,8.4866,8.593,8.6738,8.6995,8.6297,8.5416,8.4389,8.4058,8.3398,8.2003,8.226,8.2517,8.2517,8.3838,8.4682,8.4903,8.6261,8.6995,8.6995,8.6995,8.6995,8.6995,8.6995,8.6591,8.5783,8.4976,8.4168,8.3398,8.2553,8.2186,8.2186,8.2186,8.2186,8.2186,8.2186,8.1856,8.1305,8.1085,8.0645,7.9947,7.8516,7.7855,7.7604,7.7384,7.7273,7.7237,7.7017,7.657,7.6203,7.679,7.657,7.6276,7.7053,7.687,7.6423,7.6423,7.5836,7.5102,7.4515,7.4184,7.3817,7.301,7.2386,7.1835,7.1366,7.0367,6.9486,6.9265,6.8568,6.7834,6.7247,6.6476,6.5815,6.5375,6.4787,6.42,6.3576,6.3477,6.3172,6.2365,6.2291,6.1924,6.1117,6.086,6.0937,6.1406,6.1204,6.1304,6.1769,6.2176,6.2379,6.2379,6.2724,6.296,6.3092,6.3092,6.3182,5.8327,6.2144,6.6549,6.743,7.1798,7.613,7.6943,7.8442,7.9874,8.0718,8.1562,8.237,8.3177,8.3398,8.3948,8.549,8.5783,8.6114,8.6885,8.6297,8.5196,8.3618,8.2737,8.1929,8.1122,8.2443,8.3361,8.3361,8.4132,8.4939,8.571,8.6554,8.6995,8.6995,8.6995,8.6995,8.6995,8.6995,8.6591,8.5783,8.4976,8.4168,8.3398,8.2553,8.2186,8.2186,8.2186,8.2186,8.2186,8.2186,8.2186,8.2076,8.1305,8.1012,8.0865,8.0021,7.9213,7.8442,7.7567,7.7273,7.7163,7.6387,7.613,7.6093,7.613,7.613,7.6276,7.7053,7.7273,7.7237,7.7237,7.668,7.6056,7.6019,7.5432,7.4661,7.3817,7.3634,7.3156,7.1615,7.1256,7.0991,7.0183,6.9412,6.8862,6.8825,6.8128,6.7063,6.5521,6.5301,6.5264,6.5228,6.5228,6.4897,6.409,6.4016,6.3649,6.278,6.1998,6.1748,6.2225,6.1502,6.1304,6.1769,6.1843,6.1805,6.1805,6.1861,6.2108,6.2605,6.2605,6.2863,6.3319,6.6623,6.9853,7.3927,7.6754,7.8919,8.0241,8.0975,8.1305,8.1048,8.0351,7.9727,7.9433,7.9837,8.0755,8.237,8.3948,8.5453,8.6811,8.5857,8.4425,8.281,8.2847,8.226,8.0388,8.1195,8.2039,8.2553,8.3838,8.4719,8.4976,8.6261,8.6995,8.6995,8.6995,8.6995,8.6995,8.6995,8.6885,8.6591,8.5233,8.3911,8.259,8.2333,8.2186,8.2186,8.2186,8.2186,8.2186,8.2186,8.2186,8.215,8.1893,8.1782,8.1709,8.0901,8.0424,8.0021,7.8626,7.7781,7.7237,7.698,7.69,7.69,7.69,7.69,7.6943,7.72,7.7273,7.7273,7.7273,7.709,7.679,7.624,7.5909,7.5469,7.4661,7.4074,7.3523,7.301,7.2055,7.1211,7.0954,7.022,6.9522,6.8972,6.8201,6.7283,6.6219,6.6109,6.5888,6.5375,6.5301,6.5191,6.4934,6.4897,6.4787,6.4494,6.42,6.4129,6.4279,6.4021,6.3712,6.3331,6.3637,6.353,6.299,6.335,6.3613,6.3775,6.3775,6.3862,6.71,7.0367,7.3413,7.8259,8.0277,8.1342,8.2406,8.2406,8.1893,8.0791,7.8809,7.7011,7.6166,7.5763,7.657,7.9653,8.1452,8.3434,8.6187,8.5416,8.3985,8.237,8.2406,8.1929,8.0388,8.0424,8.1012,8.2113,8.3691,8.4609,8.4609,8.6151,8.6995,8.6995,8.6995,8.6995,8.6995,8.6995,8.6885,8.6554,8.5527,8.4205,8.2627,8.2627,8.248,8.2186,8.2186,8.2186,8.2186,8.2186,8.2186,8.2186,8.2186,8.2186,8.215,8.1636,8.1269,8.0791,7.9176,7.8222,7.7708,7.7384,7.7273,7.7273,7.7273,7.7273,7.7273,7.7273,7.7273,7.7273,7.7273,7.7273,7.7163,7.6644,7.6533,7.6313,7.5506,7.4918,7.4368,7.3817,7.2863,7.2092,7.1798,7.1064,7.0257,6.9449,6.8898,6.8164,6.7063,6.6916,6.6733,6.6219,6.6145,6.6035,6.5742,6.5742,6.5632,6.5338,6.5301,6.5301,6.5301,6.5301,6.5081,6.453,6.482,6.4739,6.422,6.4532,6.4795,6.4943,6.4943,6.5063,6.9559,7.334,7.7121,8.0388,8.2296,8.3398,8.3361,8.2663,8.1525,7.9874,7.6864,7.4294,7.3413,7.1468,7.1798,7.7378,7.8516,8.0351,8.5086,8.5086,8.3985,8.237,8.1525,8.1048,8.1012,8.0351,8.0534,8.2076,8.3654,8.4572,8.4609,8.6151,8.6995,8.6995,8.6995,8.6995,8.6995,8.6995,8.6591,8.5747,8.5783,8.4939,8.3361,8.3398,8.2957,8.2186,8.2186,8.2186,8.2186,8.2186,8.2186,8.2186,8.2186,8.2186,8.2186,8.2186,8.1709,8.0828,7.9286,7.8662,7.8479,7.7671,7.7347,7.7273,7.7273,7.7273,7.7273,7.7273,7.7273,7.7273,7.7273,7.7273,7.7273,7.7273,7.7273,7.709,7.635,7.613,7.5652,7.4111,7.3744,7.345,7.2679,7.1908,7.1101,7.0293,7.0146,6.9596,6.8017,6.7787,6.776,6.776,6.7724,6.7393,6.6623,6.6549,6.6256,6.5485,6.5411,6.5411,6.5411,6.5411,6.5411,6.5375,6.5375,6.5338,6.5301,6.5301,6.5533,6.5946,6.5946,6.6238,7.3964,7.7561,8.0388,8.303,8.3544,8.3251,8.2627,8.0975,7.8883,7.6607,7.2606,6.9119,6.7687,6.7907,6.9559,7.3413,7.7635,8.1452,8.4499,8.4719,8.3985,8.237,8.2003,8.1672,8.1048,8.1342,8.1746,8.215,8.3141,8.3985,8.4572,8.6151,8.6995,8.6995,8.6995,8.6995,8.6995,8.6995,8.6297,8.4903,8.549,8.4646,8.2517,8.3141,8.2957,8.2186,8.2186,8.2186,8.2186,8.2186,8.2186,8.2186,8.2186,8.2186,8.2186,8.2186,8.2076,8.1746,8.0755,7.9617,7.8552,7.8332,7.7855,7.7273,7.7273,7.7273,7.7273,7.7273,7.7273,7.7273,7.7273,7.7273,7.7273,7.7273,7.7273,7.7237,7.7017,7.6533,7.5983,7.5579,7.4515,7.3634,7.3413,7.2716,7.1945,7.1138,7.0991,7.0624,6.9596,6.8972,6.8605,6.8605,6.8054,6.7614,6.7393,6.7393,6.7283,6.71,6.71,6.71,6.71,6.71,6.6806,6.6219,6.6182,6.5888,6.5301,6.5301,6.5379,6.5483,6.5483,6.5558,7.7671,8.0718,8.2994,8.4682,8.4278,8.292,8.1048,7.8736,7.5799,7.1578,6.7393,6.4016,6.2401,6.3135,6.5595,7.0624,7.5616,8.0057,8.3581,8.4389,8.3985,8.237,8.2186,8.2003,8.1562,8.1636,8.1966,8.2663,8.3471,8.4132,8.4572,8.6151,8.6995,8.6995,8.6995,8.6995,8.6995,8.6995,8.6554,8.5673,8.6114,8.5416,8.3801,8.4242,8.3838,8.2737,8.2737,8.2517,8.2186,8.2186,8.2186,8.2186,8.2186,8.2186,8.2186,8.2186,8.2186,8.215,8.1672,8.0718,7.9543,7.8846,7.8002,7.7273,7.7273,7.7273,7.7273,7.7273,7.7273,7.7273,7.7273,7.7273,7.7273,7.7273,7.7273,7.7273,7.7273,7.6974,7.6533,7.6166,7.5102,7.4221,7.4221,7.356,7.2863,7.2422,7.2055,7.1651,7.1211,7.0146,6.9449,6.9449,6.9009,6.8752,6.8752,6.8752,6.8752,6.8752,6.8752,6.8752,6.8752,6.8752,6.8531,6.8091,6.7724,6.732,6.688,6.6549,6.6549,6.688,6.6512,6.6549,8.0645,8.2994,8.4939,8.5637,8.4499,8.237,7.9086,7.608,7.2194,6.6029,6.201,5.9171,5.7776,5.8437,6.1557,6.8752,7.3413,7.7818,8.2737,8.4022,8.3911,8.2517,8.226,8.2223,8.2333,8.1746,8.1966,8.3471,8.4315,8.4756,8.4756,8.6187,8.6995,8.6995,8.6995,8.6995,8.6995,8.6995,8.6958,8.6848,8.6958,8.6518,8.5637,8.5747,8.4903,8.3398,8.3398,8.2957,8.2186,8.2186,8.2186,8.2186,8.2186,8.2186,8.2186,8.2186,8.2186,8.2186,8.2186,8.1672,8.0791,7.936,7.8259,7.7457,7.7457,7.7384,7.7273,7.7273,7.7273,7.7273,7.7273,7.7273,7.7273,7.7273,7.7273,7.7273,7.7273,7.7273,7.709,7.6387,7.5616,7.5065,7.5065,7.4404,7.3854,7.3854,7.3266,7.2789,7.2679,7.1248,7.0257,7.0257,7.0146,7.011,7.011,7.011,7.011,7.011,7.011,7.011,7.011,7.011,7.011,7.011,6.9412,6.9082,6.9082,6.8348,6.8385,6.9045,6.8348,6.8385,8.215,8.4278,8.5637,8.5747,8.4095,8.147,7.7928,7.2899,6.7589,6.2798,5.8408,5.5354,5.506,5.7336,6.1349,6.8054,7.3046,7.7818,8.2737,8.3544,8.3508,8.3251,8.259,8.2443,8.3141,8.3067,8.3398,8.4315,8.5123,8.56,8.56,8.6481,8.6995,8.6995,8.6995,8.6995,8.6995,8.6995,8.6664,8.6004,8.6701,8.6224,8.4829,8.549,8.4903,8.3398,8.3398,8.2957,8.2186,8.2186,8.2186,8.2186,8.2186,8.2186,8.2186,8.2186,8.2186,8.2186,8.2186,8.1672,8.0938,8.0681,7.958,7.8369,7.8369,7.7892,7.7273,7.7273,7.7273,7.7273,7.7273,7.7273,7.7273,7.7273,7.7273,7.7273,7.7273,7.7273,7.7237,7.709,7.646,7.5909,7.5909,7.5212,7.4698,7.4698,7.4588,7.4258,7.356,7.2092,7.1101,7.1101,7.0513,7.011,7.011,7.011,7.011,7.011,7.011,7.011,7.011,7.011,7.011,7.011,6.9963,6.9889,6.9889,6.9743,6.9743,6.9889,6.9743,6.9743,8.3398,8.5196,8.6334,8.5894,8.3361,7.9553,7.4199,6.8777,6.302,5.6657,5.3346,5.1448,5.1246,5.4252,5.84,6.3649,6.8568,7.356,7.8883,7.9984,8.0865,8.259,8.2443,8.2333,8.2737,8.3177,8.3728,8.4535,8.5343,8.5783,8.5783,8.6554,8.6995,8.6995,8.6995,8.6995,8.6995,8.6995,8.6811,8.6444,8.6811,8.6628,8.5857,8.6261,8.5783,8.4646,8.4646,8.3948,8.281,8.281,8.259,8.2186,8.2186,8.2186,8.2186,8.2186,8.2186,8.2186,8.2186,8.1929,8.1636,8.1636,8.0534,7.9213,7.9213,7.8919,7.8516,7.8112,7.8002,7.7892,7.742,7.7273,7.7273,7.7273,7.7273,7.7273,7.7273,7.7273,7.7273,7.7273,7.698,7.6717,7.6717,7.6056,7.5542,7.5542,7.5175,7.4771,7.4368,7.367,7.2863,7.2018,7.1578,7.1358,7.1358,7.1358,7.1358,7.1358,7.1358,7.1358,7.1358,7.1358,7.1358,7.1358,7.0954,7.0891,7.1194,7.075,7.0956,7.1578,7.1192,7.1229,8.3618,8.538,8.6518,8.5527,8.237,7.7751,7.0828,6.5133,5.9106,5.1432,4.8999,4.8213,4.8069,5.0949,5.4913,5.9648,6.3906,6.8898,7.5432,7.69,7.8558,8.2039,8.2296,8.226,8.2443,8.3177,8.3985,8.4792,8.56,8.604,8.604,8.6664,8.6995,8.6995,8.6995,8.6995,8.6995,8.6995,8.6995,8.6995,8.6995,8.6995,8.6995,8.6995,8.6554,8.5783,8.5783,8.4976,8.3654,8.3471,8.303,8.2443,8.226,8.2186,8.2186,8.2186,8.2186,8.2186,8.2186,8.2186,8.2186,8.2186,8.1232,8.0057,8.0057,7.991,7.9653,7.9029,7.8846,7.8662,7.7818,7.7567,7.753,7.7347,7.7273,7.7273,7.7273,7.7273,7.7273,7.7273,7.7273,7.7273,7.7273,7.679,7.635,7.635,7.5836,7.5359,7.5175,7.5175,7.4625,7.3193,7.301,7.301,7.301,7.2863,7.2753,7.2753,7.2606,7.2496,7.2496,7.2496,7.2496,7.2496,7.1872,7.1866,7.2485,7.1814,7.2113,7.3258,7.2637,7.2675,8.1782,8.4132,8.5527,8.4022,8.1158,7.6905,7.004,6.3265,5.6602,5.0405,4.7527,4.6379,4.7095,4.8746,5.2307,5.9281,6.1998,6.6486,7.5879,7.7237,7.8778,8.281,8.2627,8.248,8.3214,8.4022,8.4829,8.5637,8.6444,8.6885,8.6885,8.6958,8.6995,8.6995,8.6995,8.6995,8.6995,8.6995,8.6995,8.6995,8.6995,8.6995,8.6995,8.6995,8.6554,8.5783,8.5783,8.5306,8.4425,8.3728,8.3361,8.3214,8.248,8.2186,8.2186,8.2186,8.2186,8.2186,8.2186,8.2186,8.2186,8.2186,8.1599,8.0901,8.0901,8.0388,7.9764,7.969,7.969,7.9507,7.8699,7.8479,7.8295,7.7494,7.7273,7.7273,7.7273,7.7273,7.7273,7.7273,7.7273,7.7273,7.7273,7.7237,7.7163,7.7163,7.7127,7.6796,7.6093,7.5983,7.5652,7.4771,7.4698,7.4698,7.4698,7.4001,7.3597,7.3597,7.2899,7.2496,7.2496,7.2496,7.2496,7.2496,7.2422,7.2678,7.3305,7.323,7.3512,7.418,7.4104,7.4104,8.0681,8.3251,8.4682,8.3067,7.9874,7.5176,6.7802,6.1293,5.5101,4.8783,4.6025,4.4946,4.5552,4.6617,4.8967,5.3849,5.5574,5.9171,6.7403,6.9421,7.2312,7.8295,7.9617,8.0718,8.2517,8.3838,8.5123,8.6444,8.6811,8.6995,8.6995,8.6995,8.6995,8.6995,8.6995,8.6995,8.6995,8.6995,8.6995,8.6995,8.6995,8.6995,8.6995,8.6995,8.6848,8.6518,8.6518,8.6077,8.5306,8.4976,8.4278,8.3398,8.3067,8.2627,8.2186,8.2186,8.2186,8.2186,8.2186,8.2186,8.2186,8.2186,8.1966,8.1709,8.1709,8.1489,8.1122,8.0645,8.0534,8.0351,7.9507,7.8956,7.8369,7.7494,7.7273,7.7273,7.7273,7.7273,7.7273,7.7273,7.7273,7.7273,7.7273,7.7273,7.7273,7.7273,7.7273,7.7163,7.6864,7.6827,7.6717,7.6356,7.5476,7.4918,7.4918,7.4625,7.4441,7.4441,7.4111,7.3964,7.3964,7.3964,7.3964,7.3964,7.434,7.483,7.5399,7.5787,7.6288,7.6817,7.6817,7.6817,7.8589,8.1489,8.3141,8.1525,7.8075,7.3096,6.5731,5.9501,5.3546,4.7576,4.5015,4.3939,4.4284,4.5002,4.6544,4.9591,5.1353,5.4803,6.1789,6.4237,6.765,7.3927,7.5946,7.7745,8.0167,8.2957,8.527,8.6885,8.6995,8.6995,8.6995,8.6995,8.6995,8.6995,8.6995,8.6995,8.6995,8.6995,8.6995,8.6995,8.6995,8.6995,8.6995,8.6995,8.6995,8.6995,8.6995,8.6701,8.6151,8.5894,8.4976,8.3728,8.3508,8.292,8.2186,8.2186,8.2186,8.2186,8.2186,8.2186,8.2186,8.2186,8.2186,8.2186,8.2186,8.2186,8.2076,8.1525,8.1195,8.0828,7.9984,7.9176,7.8369,7.7494,7.7273,7.7273,7.7273,7.7273,7.7273,7.7273,7.7273,7.7273,7.7273,7.7273,7.7273,7.7273,7.7273,7.7273,7.7273,7.7273,7.7273,7.7273,7.6283,7.5586,7.5586,7.5395,7.5249,7.5249,7.5028,7.497,7.5195,7.5195,7.5272,7.5458,7.5954,7.6423,7.7008,7.7493,7.7994,7.8477,7.8477,7.8477,7.5065,7.8552,8.0645,7.9029,7.5542,7.0844,6.431,5.785,5.183,4.6911,4.4616,4.3515,4.3515,4.4158,4.5516,4.7939,5.1059,5.5442,6.1863,6.4237,6.6806,7.0852,7.2092,7.3523,7.5946,8.1269,8.527,8.6885,8.6995,8.6995,8.6995,8.6995,8.6995,8.6995,8.6995,8.6995,8.6995,8.6995,8.6995,8.6995,8.6995,8.6995,8.6995,8.6995,8.6995,8.6995,8.6995,8.6995,8.6921,8.6114,8.5306,8.4499,8.3728,8.292,8.2186,8.2186,8.2186,8.2186,8.2186,8.2186,8.2186,8.2186,8.2186,8.2186,8.2186,8.2186,8.2186,8.2186,8.1599,8.0828,7.9984,7.9176,7.8369,7.7494,7.7273,7.7273,7.7273,7.7273,7.7273,7.7273,7.7273,7.7273,7.7273,7.7273,7.7273,7.7273,7.7273,7.7273,7.7273,7.7273,7.7273,7.7273,7.7273,7.7273,7.7273,7.657,7.6093,7.6093,7.5359,7.5195,7.585,7.5876,7.6169,7.679,7.6813,7.7072,7.7703,7.7703,7.7994,7.8477,7.8477,7.8477,6.7907,7.0697,7.2349,7.0734,6.8531,6.5338,5.9942,5.5427,5.1132,4.6801,4.4599,4.3515,4.3515,4.3718,4.5406,5.0068,5.1683,5.4252,5.9588,6.3686,6.699,6.9376,7.4771,7.925,8.1672,8.3544,8.527,8.6885,8.6995,8.6995,8.6995,8.6995,8.6995,8.6995,8.6995,8.6995,8.6995,8.6995,8.6995,8.6995,8.6995,8.6995,8.6995,8.6995,8.6995,8.6995,8.6995,8.6995,8.6958,8.6114,8.5306,8.4535,8.3728,8.292,8.2186,8.2186,8.2186,8.2186,8.2186,8.2186,8.2186,8.2186,8.2186,8.2186,8.2186,8.2186,8.2186,8.2186,8.2003,8.1636,8.0828,8.0424,7.991,7.8516,7.8185,7.8038,7.742,7.7273,7.7273,7.7273,7.7273,7.7273,7.7273,7.7273,7.7273,7.7273,7.7273,7.7273,7.7273,7.7273,7.7273,7.7273,7.7273,7.7273,7.7273,7.7053,7.6937,7.6937,7.665,7.6855,7.75,7.7527,7.7828,7.8429,7.8862,7.9129,7.9324,7.9786,8.012,8.0285,8.0285,7.9977,6.2647,6.5705,6.7247,6.5925,6.3906,6.1153,5.6859,5.3151,4.9627,4.6177,4.4415,4.3515,4.3515,4.3754,4.5112,4.8673,5.0802,5.3261,5.6895,6.1851,6.6402,6.9853,7.5542,8.0351,8.3398,8.4535,8.56,8.6921,8.6995,8.6995,8.6995,8.6995,8.6995,8.6995,8.6995,8.6995,8.6995,8.6995,8.6995,8.6995,8.6995,8.6995,8.6995,8.6995,8.6995,8.6995,8.6995,8.6848,0.0,8.6004,8.5159,8.4095,8.3618,8.292,8.2186,8.2186,8.237,8.2627,8.2296,8.2406,8.259,8.2296,8.2186,8.2186,8.2186,8.2186,8.2186,8.2186,8.2186,8.2003,8.1232,8.1012,8.0681,7.936,7.9029,7.8809,7.7965,7.7818,7.7708,7.7347,7.7273,7.7273,7.7273,7.7273,7.7273,7.7273,7.7273,7.7273,7.7273,7.7273,7.7273,7.7273,7.7567,7.7867,7.8123,7.7928,7.7818,7.7818,7.7982,7.8285,7.8639,7.8878,7.9267,7.9888,8.0296,8.0481,8.0481,8.0888,8.1093,8.1093,8.1093,8.0823,0.0,6.2402,6.4005,6.3271,6.075,5.7643,5.4656,5.0949,0.0,4.5168,4.4048,4.3551,4.3718,4.4268,4.4856,4.5315,4.926,5.2821,5.4509,5.9685,6.5778,7.2386,7.5175,7.8075,8.2076,8.4462,8.6114,8.6958,8.6995,8.6995,8.6995,8.6995,8.6995,8.6995,8.6995,8.6995,8.6995,8.6995,8.6995,8.6995,8.6995,8.6995,8.6995,8.6995,8.6995,8.6995,8.6995,8.6554,8.5783,8.5747,8.4792,8.3398,8.3361,8.2884,8.2296,8.2296,8.281,8.3398,8.2553,8.2774,8.3287,8.2443,8.2186,8.2186,8.2186,8.2186,8.2186,8.2186,8.2186,8.2039,8.1269,8.1085,8.0901,8.0057,7.9874,7.9653,7.8846,7.8699,7.8442,7.764,7.742,7.7384,7.7457,7.7384,7.731,7.7384,7.7347,7.7273,7.7273,7.7273,7.7273,7.7273,7.8038,7.8779,7.9511,7.9098,7.8787,7.8811,7.9306,7.9526,7.9358,7.9865,8.0427,8.1077,8.1093,8.1093,8.1093,8.1093,8.1093,8.1093,8.1093,8.1093,5.0675,0.0,5.358,5.3109,5.194,5.0655,0.0,4.8049,4.614,4.4966,4.4048,4.4048,4.5902,4.5388,4.6324,5.1316,5.3592,5.5537,5.7753,6.4016,7.1248,7.8993,8.0424,8.1856,8.4682,8.5453,8.6114,8.6958,8.6995,8.6995,8.6995,8.6995,8.6995,8.6995,8.6995,8.6995,8.6995,8.6995,8.6995,8.6995,8.6995,8.6995,8.6995,8.6995,8.6995,8.6995,8.6995,8.6554,8.5747,8.5123,8.4315,8.3361,8.2737,8.2737,8.3141,8.3141,8.3654,8.4205,8.3398,8.3251,8.3287,8.2443,8.2186,8.2186,8.2186,8.2186,8.2186,8.2186,8.2186,8.215,8.1966,8.1929,8.1709,8.0901,8.0718,8.0498,7.969,7.9507,7.9433,7.925,7.8736,7.8479,7.9103,7.8148,7.753,7.8185,7.7745,7.7273,7.7273,7.7273,7.7273,7.7273,7.7457,7.8374,8.033,8.0367,8.047,8.0943,8.0555,8.0461,8.0877,8.0371,8.0427,8.1077,8.1093,8.1093,8.1093,8.1093,8.1093,8.1093,8.1093,8.1093,4.6708,4.8949,5.1175,5.0989,5.0188,4.937,4.8967,4.7058,4.5112,4.4305,4.3791,4.4011,4.5682,4.5902,4.7076,5.0986,5.3849,5.7593,6.3392,6.8238,7.4074,8.1819,8.2737,8.3691,8.6114,8.6334,8.6518,8.6995,8.6995,8.6995,8.6995,8.6664,8.6628,8.6995,8.6628,8.6628,8.6995,8.6995,8.6995,8.6995,8.6995,8.6995,8.6995,8.6995,8.6811,8.6481,8.6848,8.6498,8.5641,8.4923,8.451,8.4242,8.2789,8.292,8.3911,8.3544,8.4132,8.4976,8.3838,8.3177,8.2774,8.2333,8.2186,8.2186,8.2186,8.2186,8.2186,8.2186,8.2186,8.2186,8.2186,8.2186,8.2076,8.1636,8.1562,8.1342,8.0534,8.0351,8.0241,7.9874,7.9433,7.9286,7.969,7.9029,7.8626,7.9066,7.8736,7.8332,7.7965,7.7892,7.7745,7.7347,7.7931,7.9112,8.1065,8.1846,8.223,8.2241,8.1763,8.1419,8.1421,8.0848,8.0886,8.1631,8.1285,8.1477,8.2247,8.1862,8.1862,8.2247,8.1823,8.1631,4.575,4.9013,5.2251,5.1713,5.0988,5.0215,4.9407,4.6985,4.4709,4.4011,4.3882,4.4268,4.559,4.6819,4.8177,4.9701,5.4069,6.0456,6.9706,7.2312,7.5836,8.2774,8.3581,8.4425,8.6628,8.6811,8.6775,8.6664,8.6628,8.6628,8.6628,8.6004,8.593,8.6628,8.5967,8.593,8.6628,8.6885,8.6995,8.6995,8.6995,8.6995,8.6995,8.6885,8.6444,8.5854,8.6507,8.6264,8.5395,8.5039,8.5096,8.5217,8.3434,8.3492,8.4535,8.3838,8.4462,8.538,8.3911,8.2884,8.2186,8.2186,8.2186,8.2186,8.2186,8.2186,8.2186,8.2186,8.2186,8.2186,8.2186,8.2186,8.2186,8.2186,8.2186,8.2003,8.1342,8.1195,8.0975,8.0277,8.0057,8.0021,8.0131,7.9947,7.9837,7.9947,7.9874,7.9543,7.8883,7.8662,7.8326,7.7714,7.8549,7.9829,8.1504,8.2716,8.3373,8.3225,8.3032,8.2531,8.1576,8.1359,8.1554,8.2093,8.1439,8.1785,8.3208,8.2593,8.2631,8.3208,8.2593,8.2247,4.8164,5.0304,5.1174,4.8112,4.7996,4.8489,4.7663,4.6581,4.5663,4.5553,4.5516,4.6617,5.0215,5.0508,5.183,5.6726,6.163,6.7247,7.4184,7.5983,7.8516,8.3801,8.4425,8.4829,8.5857,8.5967,8.571,8.5013,8.4976,8.4976,8.4976,8.4866,8.4829,8.4976,8.4866,8.4829,8.4976,8.6334,8.6995,8.6995,8.6995,8.6995,8.6995,8.6297,8.593,8.5781,8.5799,8.5351,8.4671,8.5804,8.5647,8.4613,8.4934,8.4854,8.4609,8.4462,8.4572,8.4646,8.3728,8.2884,8.2186,8.2186,8.2186,8.2186,8.2186,8.2186,8.2186,8.2186,8.2186,8.2186,8.2186,8.2186,8.2186,8.2186,8.2186,8.215,8.2039,8.2003,8.1966,8.1856,8.1269,8.1048,8.1709,8.0681,8.0021,8.0718,8.0241,7.9764,7.9617,7.9029,7.8755,7.9103,7.8256,7.8657,8.1216,8.1328,8.2217,8.4473,8.4558,8.3841,8.2227,8.2138,8.1862,8.1285,8.117,8.1246,8.1477,8.2016,8.2016,8.1516,8.2054,8.1939,4.7018,4.8895,5.0303,4.953,5.0453,5.1499,5.1132,4.9738,4.8563,4.8563,4.8563,4.926,5.1573,5.3482,5.6822,6.3392,6.743,7.1394,7.6093,7.7488,7.9507,8.3471,8.3948,8.4278,8.5086,8.5159,8.5013,8.4646,8.4609,8.4609,8.4609,8.4205,8.4168,8.4609,8.4168,8.4168,8.4609,8.5697,8.6066,8.571,8.6066,8.6254,8.6368,8.5914,8.5699,8.5694,8.5655,8.5807,8.6203,8.6468,8.6694,8.6707,8.5433,8.5031,8.5081,8.4739,8.4315,8.3911,8.3544,8.2884,8.2186,8.2186,8.2434,8.2678,8.2311,8.2434,8.2678,8.2279,8.2186,8.2279,8.2647,8.2465,8.2279,8.2647,8.2465,8.2186,8.2186,8.2186,8.2186,8.2186,8.1893,8.1782,8.215,8.1599,8.1195,8.1599,8.1305,8.0938,8.0498,8.0131,7.9847,7.9697,7.9342,7.9837,8.1581,8.1821,8.2652,8.427,8.4268,8.3632,8.2362,8.1862,8.167,8.1747,8.1323,8.1554,8.2439,8.2362,8.2362,8.2439,8.2362,8.2093,4.6894,4.8196,4.9838,5.1666,5.2977,5.4142,5.528,5.3665,5.2123,5.2894,5.2747,5.2784,5.3775,5.7409,6.2291,6.8458,7.1982,7.4918,7.7781,7.8919,8.0424,8.3104,8.3398,8.3654,8.4278,8.4315,8.4242,8.4058,8.4058,8.4058,8.4058,8.3471,8.3398,8.4022,8.3434,8.3496,8.4244,8.4761,8.4984,8.4833,8.5355,8.5732,8.5975,8.5355,8.5254,8.5581,8.5375,8.6077,8.7371,8.6966,8.7505,8.8368,8.6051,8.533,8.5492,8.4645,8.3948,8.3398,8.3398,8.2994,8.2517,8.27,8.309,8.3342,8.2665,8.2825,8.3082,8.2407,8.2311,8.256,8.3082,8.2935,8.2763,8.3103,8.2823,8.2407,8.2251,8.2186,8.2186,8.2186,8.2186,8.2186,8.2186,8.2186,8.2186,8.2186,8.2186,8.1966,8.1379,8.1245,8.0966,8.0339,8.0547,8.0982,8.1702,8.2585,8.3286,8.3654,8.3977,8.3708,8.2631,8.2016,8.1785,8.2016,8.14,8.1747,8.3016,8.2516,8.2554,8.2978,8.2516,8.2208,5.0808,5.0456,5.0003,5.246,5.2641,5.3335,5.7827,5.7005,5.6088,5.9098,5.851,5.796,5.9501,6.3723,6.7907,7.0697,7.5102,7.8772,8.0498,8.1415,8.2296,8.3287,8.3398,8.3434,8.3508,8.3508,8.3177,8.2443,8.237,8.237,8.237,8.2333,8.2296,8.237,8.2333,8.2608,8.3289,8.3347,8.4092,8.5529,8.5589,8.5998,8.6659,8.4557,8.4321,8.5536,8.4689,8.5119,8.6535,8.7099,8.7466,8.7654,8.7454,8.6631,8.5455,8.3986,8.3471,8.3398,8.3398,8.3361,8.3471,8.4168,8.4384,8.4168,8.3549,8.3269,8.3082,8.2407,8.2647,8.3132,8.3189,8.3651,8.3902,8.3359,8.3161,8.2965,8.2343,8.2186,8.2186,8.2186,8.2186,8.2186,8.2186,8.2186,8.2186,8.2186,8.2186,8.2186,8.2113,8.1992,8.1875,8.1772,8.1121,8.0782,8.1061,8.2762,8.359,8.303,8.4806,8.5209,8.3555,8.3439,8.2708,8.1208,8.1131,8.117,8.1285,8.1977,8.1939,8.1285,8.1977,8.19,4.9279,4.9667,5.0599,5.3785,5.4614,5.5599,5.9131,6.0743,6.2131,6.4448,6.4746,6.4678,6.489,6.7687,7.0734,7.3156,7.7607,8.094,8.1627,8.2369,8.2788,8.2655,8.2663,8.2663,8.2663,8.2663,8.2517,8.2223,8.2585,8.2647,8.2219,8.2585,8.2616,8.2219,8.2186,8.2528,8.3189,8.3189,8.3704,8.4737,8.4737,8.4918,8.5254,8.3908,8.4352,8.6165,8.4796,8.5583,8.7808,8.7526,8.776,8.8194,8.7338,8.6113,8.4815,8.4313,8.3838,8.3471,8.3985,8.4168,8.4205,8.4499,8.5132,8.5572,8.4484,8.468,8.5095,8.3972,8.4194,8.4543,8.3967,8.4004,8.4228,8.4335,8.4067,8.3651,8.2965,8.2823,8.2708,8.2284,8.2186,8.2186,8.2186,8.2186,8.2186,8.2186,8.2186,8.2186,8.2186,8.2144,8.2258,8.2685,8.2444,8.2293,8.2371,8.3425,8.415,8.4247,8.4037,8.3556,8.2808,8.2785,8.2477,8.1862,8.2362,8.2401,8.1862,8.2131,8.19,8.1093,8.14,8.14,4.8663,4.9077,5.0406,5.3384,5.5512,5.7844,6.1357,6.4062,6.669,6.9733,6.988,6.931,6.8845,7.0349,7.2443,7.4798,7.9046,8.2036,8.2169,8.2763,8.2935,8.2284,8.2186,8.2186,8.2186,8.2186,8.2186,8.2186,8.2616,8.2708,8.2219,8.2853,8.2876,8.2219,8.2407,8.2732,8.3189,8.3189,8.3543,8.4203,8.3979,8.4063,8.439,8.3336,8.3992,8.5831,8.4683,8.5643,8.794,8.7274,8.7201,8.7465,8.6604,8.5657,8.4778,8.494,8.4646,8.4275,8.505,8.5332,8.5401,8.5873,8.6631,8.7109,8.5954,8.6246,8.6732,8.5552,8.5757,8.6121,8.5469,8.5285,8.5326,8.5495,8.5203,8.4627,8.3715,8.3359,8.3045,8.2585,8.2343,8.2284,8.2465,8.2528,8.2585,8.2793,8.2853,8.2853,8.2853,8.3024,8.3294,8.3746,8.3798,8.372,8.3543,8.4104,8.4537,8.4719,8.3633,8.3047,8.3115,8.3131,8.2978,8.2708,8.3016,8.2901,8.2285,8.2054,8.1631,8.1093,8.1093,8.1093,4.9856,4.9116,4.926,5.0924,5.4828,5.9624,6.4882,6.695,6.9366,7.4992,7.3597,7.1287,7.107,7.1854,7.3267,7.5432,7.9315,8.2036,8.2169,8.2763,8.2935,8.2284,8.2186,8.2186,8.2186,8.2186,8.2186,8.2186,8.2186,8.2219,8.2186,8.2853,8.2876,8.2219,8.2853,8.3189,8.3218,8.3189,8.3543,8.4179,8.3515,8.3636,8.4323,8.2866,8.2997,8.441,8.4252,8.5029,8.6403,8.6212,8.57,8.5148,8.5467,8.5619,8.5604,8.575,8.5783,8.5882,8.6672,8.6907,8.7167,8.8646,8.898,8.8765,8.8103,8.7838,8.759,8.6893,8.7216,8.7697,8.7697,8.7676,8.7447,8.6629,8.6438,8.6023,8.4538,8.3704,8.3218,8.3218,8.2678,8.2402,8.3111,8.3218,8.3433,8.4104,8.4203,8.4203,8.4203,8.474,8.5121,8.51,8.5121,8.485,8.4252,8.4762,8.4777,8.3977,8.39,8.4213,8.4885,8.4901,8.4478,8.3632,8.2747,8.2324,8.2324,8.1516,8.1131,8.1093,8.1093,8.1093,4.8933,5.0143,5.2521,5.5006,5.9474,6.4815,7.0707,7.2208,7.3664,7.836,7.7327,7.5161,7.3958,7.4919,7.5896,7.5985,7.9389,8.2036,8.2169,8.2763,8.2935,8.2284,8.2186,8.2186,8.2186,8.2186,8.2186,8.2186,8.2647,8.2708,8.2219,8.3303,8.3597,8.2906,8.3111,8.3405,8.3902,8.2965,8.2853,8.3488,8.2823,8.288,8.3533,8.2608,8.2997,8.4402,8.4278,8.5052,8.64,8.6334,8.6179,8.6007,8.5719,8.5238,8.4852,8.5529,8.5742,8.5868,8.7264,8.8051,8.8517,8.8968,8.9384,8.9535,8.8408,8.8658,8.9155,8.8005,8.8168,8.8767,8.9244,8.9354,8.9134,8.8231,8.8016,8.7772,8.6845,8.6009,8.5314,8.4832,8.4132,8.3677,8.385,8.3876,8.3991,8.4154,8.4179,8.4179,8.4203,8.474,8.4936,8.4513,8.485,8.5058,8.485,8.4978,8.5206,8.5448,8.5465,8.4998,8.4016,8.4555,8.4786,8.4516,8.4824,8.4401,8.3208,8.2978,8.2247,8.1093,8.1093,8.1093,5.0741,5.2395,5.5039,5.8592,6.2644,6.7597,7.4755,7.6892,7.8278,8.1451,8.0207,7.8424,7.8047,7.81,7.8196,7.8258,8.0647,8.2408,8.2242,8.2763,8.2935,8.2284,8.2186,8.2186,8.2186,8.2186,8.2186,8.2186,8.2554,8.2616,8.2219,8.3218,8.3624,8.3218,8.3189,8.3378,8.3772,8.2732,8.2407,8.2793,8.2407,8.256,8.3161,8.2497,8.2812,8.3946,8.4367,8.5198,8.6241,8.5735,8.5522,8.5463,8.4936,8.4454,8.4133,8.4993,8.5456,8.5918,8.7478,8.8511,8.9199,8.974,9.022,9.0406,8.9587,8.9893,9.0385,8.9587,8.9635,9.0006,9.0447,9.0528,9.0301,8.9371,8.9171,8.8986,8.8232,8.7192,8.6295,8.5903,8.494,8.4276,8.4513,8.456,8.4628,8.491,8.4953,8.4953,8.4953,8.528,8.536,8.4995,8.528,8.5514,8.5514,8.5514,8.5682,8.6077,8.6094,8.5632,8.4632,8.5093,8.5401,8.5401,8.5555,8.5132,8.4132,8.3747,8.3093,8.2093,8.1747,8.1593,5.3741,5.5126,5.724,6.1802,6.521,6.9583,7.7597,8.0843,8.257,8.3929,8.2416,8.1203,8.2403,8.1078,8.0229,8.1432,8.2468,8.2913,8.2316,8.2702,8.2876,8.2284,8.2186,8.2186,8.2186,8.2186,8.2186,8.2186,8.2186,8.2186,8.2186,8.2876,8.3303,8.3303,8.3303,8.3303,8.3303,8.2591,8.2186,8.2186,8.2186,8.256,8.3161,8.2554,8.2708,8.3433,8.459,8.5495,8.6026,8.4778,8.4228,8.413,8.3577,8.3353,8.3398,8.4235,8.507,8.5987,8.7459,8.852,8.9387,9.0762,9.121,9.1192,9.1118,9.1136,9.1192,9.1118,9.1136,9.121,9.121,9.121,9.1018,9.021,9.0017,8.9825,8.9094,8.7753,8.6691,8.6615,8.5446,8.4635,8.51,8.5182,8.5399,8.6026,8.6094,8.6094,8.6094,8.6094,8.6094,8.6094,8.6094,8.6094,8.6094,8.6094,8.6094,8.6094,8.6094,8.6094,8.6094,8.6094,8.6094,8.6094,8.5401,8.4978,8.4901,8.4093,8.367,8.3555,8.2785,8.2401,5.1587,5.5511,6.0731,6.5025,7.1669,7.7951,8.1205,8.2716,8.3619,8.4101,8.3788,8.3308,8.2897,8.262,8.2277,8.1995,8.2186,8.2375,8.2219,8.2311,8.2375,8.2219,8.2186,8.2186,8.2186,8.2186,8.2186,8.2186,8.2186,8.2186,8.2186,8.3322,8.3979,8.3979,8.3979,8.3979,8.3979,8.2793,8.2186,8.2186,8.2186,8.256,8.3189,8.3053,8.3613,8.4718,8.4978,8.5495,8.6043,8.526,8.4628,8.4142,8.3489,8.2936,8.2651,8.3948,8.487,8.5794,8.7952,8.9155,8.988,9.087,9.121,9.11,9.0508,9.0743,9.1082,9.0488,9.0762,9.121,9.121,9.121,9.1171,9.0979,9.0941,9.0864,9.071,8.9853,8.8936,8.8339,8.7404,8.6524,8.5961,8.5864,8.5937,8.6077,8.6094,8.6094,8.6094,8.6094,8.6094,8.6094,8.6094,8.6094,8.6094,8.6094,8.6094,8.6094,8.6094,8.6094,8.6094,8.6094,8.6094,8.6094,8.594,8.5517,8.4901,8.4709,8.4286,8.3593,8.3401,8.3324,5.4164,5.7872,6.2505,6.8929,7.5339,8.0468,8.1784,8.297,8.3772,8.3882,8.4546,8.4986,8.4528,8.4022,8.3554,8.3142,8.2557,8.2186,8.2186,8.2186,8.2186,8.2186,8.2497,8.2678,8.2678,8.2678,8.2678,8.2678,8.2375,8.2186,8.2186,8.2883,8.3543,8.4154,8.357,8.3543,8.4179,8.2883,8.2186,8.2186,8.2528,8.3189,8.4092,8.4092,8.4452,8.5121,8.5418,8.5793,8.606,8.5379,8.4893,8.4537,8.3597,8.2994,8.2776,8.3566,8.4302,8.5203,8.7065,8.8168,8.8941,8.9755,9.0248,9.0503,9.0129,9.055,9.1118,9.0743,9.0895,9.121,9.121,9.121,9.121,9.121,9.121,9.121,9.121,9.0517,8.9787,8.9363,8.8594,8.7748,8.6863,8.6363,8.6094,8.6094,8.6094,8.6094,8.6094,8.6094,8.6094,8.6094,8.6094,8.6094,8.6094,8.6094,8.6094,8.6094,8.6094,8.6094,8.6094,8.6094,8.6094,8.6094,8.6094,8.5901,8.5478,8.5478,8.5247,8.4786,8.4401,8.4209,5.6011,5.9728,6.4029,7.2431,7.7321,8.0372,8.1347,8.2497,8.3401,8.3555,8.4824,8.5901,8.5901,8.5044,8.4325,8.4203,8.3161,8.2311,8.2219,8.2186,8.2186,8.2186,8.2793,8.3189,8.3189,8.3294,8.335,8.335,8.2883,8.2497,8.2375,8.2465,8.3053,8.4167,8.3103,8.3132,8.4349,8.3161,8.256,8.2523,8.3218,8.4067,8.5121,8.5202,8.5262,8.532,8.5846,8.6094,8.606,8.5514,8.5202,8.4978,8.3953,8.3461,8.3378,8.3488,8.3927,8.4754,8.6279,8.7134,8.7671,8.8497,8.9087,8.9548,8.9701,9.0239,9.0872,9.1154,9.121,9.121,9.121,9.121,9.121,9.121,9.121,9.121,9.121,9.0633,9.0094,8.994,8.9248,8.8479,8.7748,8.7017,8.6517,8.6363,8.6324,8.6286,8.6132,8.6094,8.6094,8.6094,8.6094,8.6094,8.6094,8.6094,8.6094,8.6094,8.6094,8.6094,8.6094,8.6094,8.6094,8.6094,8.6094,8.6094,8.6094,8.6094,8.6094,8.6094,8.544,8.5132,4.9394,5.7285,6.6959,7.4021,7.7815,8.0283,8.182,8.233,8.267,8.3439,8.4362,8.5055,8.5055,8.5035,8.4806,8.4276,8.357,8.2883,8.2284,8.2186,8.2186,8.2186,8.2793,8.3189,8.3189,8.3731,8.4054,8.4054,8.3979,8.3704,8.3111,8.3624,8.3979,8.4179,8.4029,8.4276,8.4957,8.43,8.3928,8.3928,8.4545,8.4936,8.5121,8.57,8.5971,8.5971,8.606,8.6094,8.6077,8.5988,8.5607,8.5062,8.4915,8.4537,8.4129,8.4673,8.4926,8.5317,8.7636,8.7969,8.7609,8.8555,8.8471,8.8127,8.8815,8.912,8.9491,9.0834,9.121,9.121,9.121,9.121,9.121,9.121,9.121,9.121,9.121,9.1133,9.0787,9.0056,8.9248,8.8671,8.8556,8.844,8.8094,8.7325,8.7209,8.694,8.6209,8.6094,8.6094,8.6094,8.6094,8.6094,8.6094,8.6094,8.6094,8.6094,8.6094,8.6094,8.6094,8.6094,8.6094,8.6094,8.6094,8.6094,8.6094,8.6094,8.6094,8.6094,8.5978,8.594,5.2571,6.0533,6.8614,7.4111,7.7307,7.94,8.0631,8.1285,8.1747,8.2131,8.2862,8.3593,8.4093,8.4326,8.4208,8.3559,8.3351,8.2965,8.2279,8.2186,8.2186,8.2186,8.2385,8.2705,8.3152,8.3348,8.3675,8.4166,8.4203,8.4054,8.381,8.3254,8.3122,8.3462,8.2697,8.2536,8.318,8.2902,8.3176,8.4035,8.4767,8.532,8.5682,8.5954,8.6094,8.6094,8.6094,8.6094,8.6094,8.6094,8.5937,8.5607,8.5242,8.4936,8.474,8.4978,8.5121,8.5317,8.6747,8.6978,8.6752,8.7213,8.7407,8.7676,8.8519,8.9094,8.9707,9.0888,9.121,9.121,9.121,9.121,9.121,9.121,9.121,9.121,9.121,9.121,9.1095,9.071,8.994,8.9363,8.9363,8.8979,8.8556,8.8171,8.7709,8.7248,8.6863,8.6401,8.6094,8.6094,8.6094,8.6094,8.6094,8.6094,8.6094,8.6094,8.6094,8.6094,8.6094,8.6094,8.6094,8.6094,8.6094,8.6094,8.6094,8.6094,8.6094,8.6094,8.6094,8.6094,5.3976,6.0354,6.582,7.1127,7.4673,7.7246,7.8554,7.9823,8.0785,8.0785,8.1439,8.217,8.2824,8.3438,8.3537,8.2751,8.2732,8.2573,8.198,8.1893,8.1966,8.2186,8.2089,8.238,8.3358,8.3263,8.3566,8.4613,8.4673,8.4605,8.4443,8.301,8.2507,8.3133,8.1707,8.1345,8.2184,8.2125,8.2682,8.3831,8.4672,8.532,8.5786,8.6017,8.6094,8.6094,8.6094,8.6094,8.6094,8.6094,8.6094,8.606,8.5551,8.536,8.536,8.536,8.536,8.5456,8.6167,8.6286,8.6115,8.615,8.6614,8.7305,8.8188,8.8994,8.9857,9.0905,9.121,9.121,9.121,9.121,9.121,9.121,9.121,9.121,9.121,9.121,9.121,9.121,9.0671,9.0248,9.0248,8.9748,8.9248,8.9017,8.844,8.7979,8.7748,8.6978,8.644,8.644,8.6247,8.6094,8.6094,8.6094,8.6094,8.6094,8.6094,8.6094,8.6094,8.6094,8.6094,8.6094,8.6094,8.6094,8.6094,8.6094,8.6094,8.6094,8.6094,8.6094,4.8221,5.1875,5.5769,6.3295,6.8885,7.3168,7.563,7.8092,7.9862,7.9862,8.0554,8.117,8.1208,8.2538,8.3193,8.1952,8.1778,8.1616,8.1124,8.1048,8.1342,8.2113,8.2089,8.2563,8.4004,8.3959,8.4442,8.5877,8.5988,8.5719,8.51,8.3657,8.3156,8.3839,8.2422,8.225,8.349,8.349,8.3544,8.3638,8.4522,8.4907,8.4978,8.5747,8.6094,8.6094,8.6094,8.6094,8.6094,8.6094,8.6094,8.6094,8.606,8.606,8.606,8.606,8.606,8.6176,8.7055,8.6786,8.6142,8.6335,8.6441,8.6632,8.7472,8.8332,8.9276,9.0777,9.121,9.121,9.121,9.121,9.121,9.121,9.121,9.121,9.121,9.121,9.121,9.121,9.1171,9.1133,9.1133,9.1095,9.0787,8.9979,8.9825,8.9479,8.8709,8.7863,8.7325,8.7325,8.6594,8.6094,8.6094,8.6094,8.6094,8.6094,8.6094,8.6094,8.6094,8.6094,8.6094,8.6094,8.6094,8.6094,8.6094,8.6094,8.6094,8.6094,8.6094,8.6094,4.7548,5.0818,5.4511,5.9973,6.4782,6.8821,7.1398,7.4745,7.7669,7.8746,7.9669,8.0439,8.1016,8.2016,8.2329,8.1082,8.1349,8.1367,8.0382,8.0241,8.0314,8.0608,8.0496,8.1027,8.2644,8.2983,8.3771,8.5341,8.5846,8.5988,8.5737,8.3844,8.2668,8.2475,8.1849,8.19,8.2747,8.2747,8.2747,8.2785,8.3632,8.4055,8.4093,8.4939,8.5324,8.5363,8.5901,8.6094,8.6094,8.6094,8.6094,8.6094,8.6094,8.6094,8.6094,8.6094,8.6094,8.6132,8.6478,8.6363,8.6214,8.6826,8.7041,8.7309,8.869,8.9304,8.9764,9.0888,9.121,9.121,9.121,9.121,9.121,9.121,9.121,9.121,9.121,9.121,9.121,9.121,9.121,9.121,9.121,9.121,9.0902,9.0056,8.9902,8.9633,8.8786,8.844,8.8209,8.8209,8.794,8.7555,8.6978,8.694,8.6709,8.6132,8.6094,8.6094,8.6094,8.6094,8.6094,8.6094,8.6094,8.6094,8.6094,8.6094,8.6094,8.6094,8.6094,8.6094,4.547,4.8279,5.1818,5.6626,5.9973,6.332,6.8167,7.1437,7.4168,7.6707,7.8169,7.9323,8.0439,8.1093,8.1193,8.0418,8.0597,8.0656,8.0068,7.983,7.9882,8.034,8.004,8.0413,8.2059,8.2488,8.3351,8.4901,8.5692,8.6094,8.6094,8.3734,8.2033,8.1344,8.157,8.1869,8.2285,8.2285,8.217,8.19,8.2747,8.3324,8.3632,8.4516,8.5055,8.5324,8.5863,8.6094,8.6094,8.6094,8.6094,8.6094,8.6094,8.6094,8.6094,8.6094,8.6094,8.6094,8.6094,8.6286,8.6632,8.7209,8.7786,8.844,8.9556,9.0094,9.0479,9.1056,9.121,9.121,9.121,9.121,9.121,9.121,9.121,9.121,9.121,9.121,9.121,9.121,9.121,9.121,9.121,9.121,9.1018,9.0441,9.0364,9.0133,8.9594,8.9286,8.9094,8.9094,8.8863,8.8479,8.7902,8.7825,8.7594,8.7017,8.6978,8.6978,8.6978,8.6709,8.6555,8.6555,8.6247,8.6094,8.6094,8.6094,8.6094,8.6094,8.6094,8.6094,0.0,0.0,0.0,5.2741,5.4241,5.6703,6.5859,6.8013,6.9269,7.363,7.5861,7.763,7.94,7.9746,7.9835,8.003,7.9583,7.9462,8.0245,7.9852,7.9994,8.1355,8.0849,8.0976,8.2429,8.2624,8.3276,8.4753,8.5632,8.6055,8.6055,8.3354,8.142,8.0627,8.1689,8.2308,8.2324,8.2324,8.19,8.1093,8.19,8.2708,8.3555,8.4439,8.5286,8.6017,8.6094,8.6094,8.6094,8.6094,8.6094,8.6094,8.6094,8.6094,8.6094,8.6094,8.6094,8.6094,8.6132,8.6709,8.7401,8.744,8.8556,8.9902,8.994,9.0517,9.121,9.121,9.121,9.121,9.121,9.121,9.121,9.121,9.121,9.121,9.121,9.121,9.121,9.121,9.121,9.121,9.121,9.121,9.121,9.1171,9.1171,9.1171,9.1171,9.0441,8.9902,8.9923,8.9248,8.8748,8.8748,8.8748,8.8709,8.8709,8.8709,8.8709,8.8709,8.7902,8.744,8.7401,8.6555,8.6132,8.6094,8.6094,8.6094,8.6094,8.6094,8.6094,4.1931,0.0,0.0,0.0,0.0,0.0,5.6242,5.8808,6.2038,6.8783,7.1014,7.3053,7.7246,7.8477,7.8869,7.8935,7.9437,7.9611,7.8953,7.9117,7.9266,7.9224,7.9804,8.0593,8.163,8.2143,8.2847,8.3901,8.4747,8.5247,8.5247,8.4002,8.3181,8.297,8.2721,8.281,8.3247,8.2631,8.19,8.1093,8.1323,8.1554,8.1823,8.3285,8.4093,8.4362,8.5555,8.6094,8.6094,8.6094,8.6094,8.6094,8.6094,8.6094,8.6094,8.6094,8.6094,8.6209,8.6824,8.7209,8.7594,8.8825,8.9517,9.0017,9.0671,9.1018,9.121,9.121,9.121,9.121,9.121,9.121,9.121,9.121,9.121,9.121,9.121,9.121,9.121,9.121,9.121,9.121,9.121,9.121,9.0979,9.0364,9.0287,9.0287,9.0287,9.0056,9.0133,9.0787,9.0633,9.0248,8.9633,8.9556,8.9325,8.8748,8.8709,8.8709,8.8709,8.8479,8.8017,8.7401,8.7171,8.6748,8.6094,8.6094,8.6094,8.6094,8.6094,8.6094,4.3085,0.0,0.0,4.6624,0.0,0.0,5.4318,5.5895,5.8242,6.6205,6.8244,6.9975,7.4361,7.5553,7.6207,7.7284,7.8311,7.8922,7.8945,7.9324,7.9535,7.9485,8.0086,8.0708,8.1244,8.1908,8.2516,8.3016,8.3862,8.4242,8.3993,8.3865,8.3811,8.3882,8.3372,8.3226,8.3593,8.2747,8.19,8.1093,8.1093,8.1285,8.1631,8.2978,8.3785,8.4209,8.5517,8.6094,8.6094,8.6094,8.6094,8.6094,8.6094,8.6094,8.6094,8.6094,8.6094,8.6209,8.7094,8.7632,8.8171,8.9479,9.0171,9.0556,9.1056,9.121,9.121,9.121,9.121,9.121,9.121,9.121,9.121,9.121,9.121,9.121,9.121,9.121,9.121,9.121,9.121,9.121,9.121,9.121,9.1018,9.0517,9.0441,9.0441,9.0441,9.0441,9.0633,9.1171,9.121,9.0979,9.0479,9.0441,9.0248,8.9787,8.9748,8.9748,8.9748,8.9402,8.8786,8.794,8.7594,8.6978,8.6094,8.6094,8.6094,8.6094,8.6094,8.6094,4.497,4.5432,0.0,0.0,4.7086,0.0,5.5703,5.5742,5.6011,6.3935,6.5628,6.6782,7.0398,7.1321,7.2168,7.4245,7.5861,7.75,7.93,7.9751,8.0159,8.0789,8.0907,8.0977,8.1093,8.1747,8.217,8.217,8.2978,8.3218,8.2739,8.3358,8.3777,8.3923,8.3798,8.3708,8.3593,8.2747,8.19,8.1093,8.1093,8.1477,8.2208,8.3054,8.3939,8.4786,8.5632,8.6017,8.6094,8.6094,8.6094,8.6094,8.6094,8.6094,8.6094,8.6094,8.6094,8.6209,8.7094,8.7979,8.8825,8.9633,9.0479,9.121,9.121,9.121,9.121,9.121,9.121,9.121,9.121,9.121,9.121,9.121,9.121,9.121,9.121,9.121,9.121,9.121,9.121,9.121,9.121,9.121,9.121,9.121,9.1133,9.1095,9.121,9.1133,9.1095,9.121,9.121,9.121,9.121,9.121,9.121,9.121,9.121,9.121,9.121,9.0479,8.9633,8.8709,8.7748,8.6863,8.6094,8.6094,8.6094,8.6094,8.6094,8.6094,4.7778,4.8509,4.9365,4.8009,4.8432,0.0,4.7548,4.8355,5.0587,5.5011,5.6472,5.8434,6.3178,6.5743,6.6821,6.5936,7.0552,7.5127,7.7676,7.8497,7.8947,7.9282,7.9769,8.0323,8.1016,8.1246,8.1323,8.1323,8.2093,8.2549,8.2624,8.3916,8.4429,8.392,8.4394,8.4324,8.3593,8.2747,8.19,8.1093,8.1093,8.117,8.1362,8.217,8.3016,8.3901,8.4747,8.5517,8.6094,8.6094,8.6094,8.6094,8.6094,8.6094,8.6094,8.6094,8.6094,8.6209,8.7094,8.7979,8.8825,8.9633,9.0479,9.121,9.121,9.121,9.121,9.121,9.121,9.121,9.121,9.121,9.121,9.121,9.121,9.121,9.121,9.121,9.121,9.121,9.121,9.121,9.121,9.121,9.121,9.121,9.0594,9.0402,9.1133,9.0594,9.0441,9.1133,9.121,9.121,9.121,9.121,9.121,9.121,9.121,9.121,9.121,9.1056,9.0248,8.8709,8.7171,8.6286,8.6094,8.6094,8.6094,8.6094,8.6094,8.6094,4.9971,5.001,5.0587,5.0164,0.0,0.0,0.0,4.8394,4.9433,5.4115,5.4434,5.5164,5.9435,6.055,6.1243,6.2512,6.6628,7.0483,7.2716,7.6187,7.8554,7.8688,7.8967,7.9323,7.9746,8.0208,8.0631,8.1054,8.1477,8.1919,8.2409,8.3154,8.3648,8.3768,8.367,8.3401,8.2939,8.2131,8.1516,8.1093,8.1093,8.1093,8.1131,8.2362,8.317,8.367,8.4939,8.5747,8.6094,8.6094,8.6094,8.6094,8.6094,8.6094,8.6094,8.6094,8.6094,8.6209,8.7094,8.7979,8.8825,8.9633,9.0479,9.121,9.121,9.121,9.121,9.121,9.121,9.121,9.121,9.121,9.121,9.121,9.121,9.121,9.121,9.121,9.121,9.121,9.121,9.121,9.121,9.121,9.121,9.121,9.0825,9.071,9.1133,9.0825,9.071,9.1171,9.121,9.121,9.121,9.121,9.121,9.121,9.121,9.121,9.121,9.121,9.0402,8.8709,8.7401,8.6517,8.6094,8.6094,8.6094,8.6094,8.6094,8.6094,5.2597,5.2289,5.2702,5.2895,0.0,4.951,0.0,0.0,0.0,5.3933,5.3318,5.2895,5.5818,5.5472,5.5742,5.8907,6.2358,6.5013,6.6051,7.1745,7.6053,7.6707,7.7361,7.7746,7.7746,7.8246,7.9169,8.0516,8.0131,8.0439,8.1747,8.2131,8.2631,8.3324,8.267,8.2285,8.2285,8.1516,8.1093,8.1093,8.1093,8.1093,8.1131,8.267,8.3439,8.367,8.5209,8.5978,8.6094,8.6094,8.6094,8.6094,8.6094,8.6094,8.6094,8.6094,8.6094,8.6209,8.7094,8.7979,8.8825,8.9633,9.0479,9.121,9.121,9.121,9.121,9.121,9.121,9.121,9.121,9.121,9.121,9.121,9.121,9.121,9.121,9.121,9.121,9.121,9.121,9.121,9.121,9.121,9.121,9.121,9.121,9.121,9.121,9.121,9.121,9.121,9.121,9.121,9.121,9.121,9.121,9.121,9.121,9.121,9.121,9.1056,9.0248,8.8709,8.7825,8.6978,8.6094,8.6094,8.6094,8.6094,8.6094,8.6094,0.0,0.0,0.0,0.0,5.4538,0.0,0.0,0.0,4.8817,4.721,0.0,4.7962,4.9048,0.0,0.0,4.9856,5.5626,5.9781,5.8484,6.2858,6.7282,7.036,7.3322,7.513,7.513,7.4591,7.5476,7.8554,7.6707,7.6784,7.9939,8.1477,8.2362,8.2439,8.2362,8.2285,8.2285,8.1516,8.1093,8.1093,8.1093,8.1093,8.1131,8.2054,8.2862,8.3632,8.4632,8.544,8.6094,8.6094,8.6094,8.6094,8.6094,8.6094,8.6094,8.6094,8.6094,8.6209,8.7094,8.7979,8.8825,8.9633,9.0479,9.121,9.121,9.121,9.121,9.121,9.121,9.121,9.121,9.121,9.121,9.121,9.121,9.121,9.121,9.121,9.121,9.121,9.121,9.121,9.121,9.121,9.121,9.121,9.121,9.121,9.121,9.121,9.121,9.121,9.121,9.121,9.121,9.121,9.121,9.121,9.121,9.121,9.121,9.0479,8.9633,8.8709,8.7825,8.6978,8.6094,8.6094,8.6094,8.6094,8.6094,8.6094,0.0,0.0,0.0,0.0,0.0,0.0,4.8625,0.0,4.7163,0.0,0.0,0.0,0.0,0.0,0.0,0.0,5.2356,5.5011,5.4818,5.8357,6.2397,6.6282,6.7128,6.8129,7.009,7.0898,7.2706,7.6053,7.4861,7.5476,7.8861,8.0208,8.1093,8.1593,8.1593,8.1593,8.1593,8.1285,8.1093,8.1093,8.1093,8.1093,8.1131,8.2439,8.3247,8.367,8.5016,8.5786,8.6094,8.6094,8.6094,8.6094,8.6094,8.6094,8.6094,8.6094,8.6094,8.6209,8.7094,8.7979,8.8902,9.0248,9.0902,9.121,9.121,9.121,9.121,9.121,9.121,9.121,9.121,9.121,9.121,9.121,9.121,9.121,9.121,9.121,9.121,9.121,9.121,9.121,9.121,9.121,9.121,9.121,9.121,9.121,9.121,9.121,9.121,9.121,9.0839,9.0586,9.0586,9.0198,9.0155,9.0566,9.0971,9.121,9.121,9.0864,9.0248,8.9402,8.9056,8.8209,8.6863,8.6863,8.6594,8.6094,8.6094,8.6094,5.9588,0.0,0.0,0.0,0.0,0.0,0.0,0.0,0.0,0.0,0.0,0.0,0.0,0.0,0.0,0.0,0.0,5.1885,5.1818,5.3933,5.7011,6.1012,6.1627,6.3128,6.6744,6.7205,6.8936,7.3014,7.1937,7.2937,7.7246,7.8707,7.9823,8.0708,8.0977,8.1093,8.1093,8.1093,8.1093,8.1093,8.1093,8.1093,8.117,8.2824,8.3593,8.367,8.5363,8.6094,8.6094,8.6094,8.6094,8.6094,8.6094,8.6094,8.6094,8.6094,8.6247,8.6594,8.744,8.8479,8.9594,9.0787,9.121,9.121,9.121,9.121,9.121,9.121,9.121,9.121,9.121,9.121,9.121,9.121,9.121,9.121,9.121,9.121,9.121,9.121,9.121,9.121,9.121,9.121,9.121,9.121,9.121,9.121,9.121,9.121,9.1118,9.0914,9.0426,9.0051,8.9832,8.9364,8.9402,9.0073,9.0606,9.0989,9.121,9.121,9.0787,8.994,8.9902,8.921,8.7748,8.7748,8.744,8.6786,8.6324,8.6094,0.0,0.0,0.0,5.6395,0.0,0.0,0.0,0.0,5.0327,0.0,0.0,0.0,0.0,0.0,0.0,0.0,0.0,0.0,0.0,4.8355,4.9702,5.3164,5.7857,6.2474,6.6667,6.3435,6.3512,6.9436,6.6782,6.7782,7.4476,7.7169,7.8938,7.9823,8.0669,8.1093,8.1093,8.1093,8.1093,8.1093,8.1093,8.1093,8.117,8.2824,8.3593,8.367,8.5363,8.6094,8.6094,8.6094,8.6094,8.6094,8.6094,8.6094,8.6094,8.6094,8.6632,8.7478,8.8363,8.9748,9.1133,9.1171,9.121,9.121,9.121,9.121,9.121,9.121,9.121,9.121,9.121,9.121,9.121,9.121,9.121,9.121,9.121,9.121,9.121,9.121,9.121,9.121,9.121,9.121,9.121,9.121,9.121,9.121,9.121,9.121,9.0914,9.0203,9.0116,8.9832,8.9199,8.9122,8.9402,9.0073,9.0138,9.0467,9.1192,9.121,9.0787,8.994,8.9902,8.9479,8.8671,8.8671,8.8632,8.8556,8.6901,8.6094,0.0,0.0,6.6974,6.1012,0.0,0.0,0.0,0.0,0.0,0.0,0.0,0.0,0.0,0.0,0.0,0.0,0.0,0.0,0.0,4.547,4.6278,5.0202,5.3703,5.6126,5.6973,5.8819,6.1012,6.3628,6.4282,6.6821,7.1898,7.513,7.7476,7.89,8.0323,8.1093,8.1093,8.1093,8.1093,8.1093,8.1093,8.1093,8.117,8.2824,8.3593,8.367,8.5363,8.6094,8.6094,8.6094,8.6094,8.6094,8.6094,8.6094,8.6094,8.6094,8.6632,8.7594,8.9017,9.0248,9.121,9.121,9.121,9.121,9.121,9.121,9.121,9.121,9.121,9.121,9.121,9.121,9.121,9.121,9.121,9.121,9.121,9.121,9.121,9.121,9.121,9.121,9.121,9.121,9.121,9.121,9.121,9.121,9.121,9.121,9.0914,9.0181,8.9716,8.9173,8.8503,8.8417,8.8532,8.8746,8.9161,8.974,9.0447,9.0467,9.057,9.0769,9.0748,9.0364,8.9479,8.9479,8.921,8.8671,8.8094,8.7517,7.1475,7.1475,0.0,6.5551,6.2858,0.0,5.3933,0.0,5.5462,0.0,0.0,0.0,0.0,0.0,0.0,0.0,0.0,0.0,0.0,4.4278,4.5009,4.774,5.0317,5.2472,5.4,5.5511,5.7742,6.1012,6.1358,6.382,6.9244,7.3091,7.5861,7.7553,7.9862,8.1093,8.1093,8.1093,8.1093,8.1093,8.1093,8.1246,8.1554,8.2978,8.3747,8.4132,8.5517,8.6094,8.6094,8.6094,8.6094,8.6094,8.6094,8.6094,8.6094,8.6094,8.6863,8.8094,8.9787,9.0748,9.121,9.121,9.121,9.121,9.121,9.121,9.121,9.121,9.121,9.121,9.121,9.121,9.121,9.121,9.121,9.121,9.121,9.121,9.121,9.121,9.121,9.121,9.121,9.121,9.121,9.121,9.121,9.121,9.121,9.121,9.0839,8.9832,8.9339,8.8719,8.7804,8.7678,8.7836,8.8076,8.8503,8.9173,9.0073,9.0116,9.0447,9.1192,9.121,9.0941,9.0364,9.0364,9.0094,8.9594,8.9286,8.8825]}]]